[[{"header":{"parameterUnit":"m.s-1","parameterCategory":1,"la1":30.6,"la2":29.2853,"lo1":-89.7004,"lo2":-87.6739,"dy":0.0162,"dx":0.0183,"nx":112,"ny":82,"refTime":"2023-05-11T12:00:00:Z","depth":0,"parameterNumber":2,"parameterNumberName":"U-component_of_WINDS"},"data":[0.0,0.0,0.0,0.0,0.0,0.0,0.0,0.0,0.0,0.0,0.0,0.0,0.0,0.0,0.0,0.0,0.0,0.0,0.0,0.0,0.0,0.0,0.0,0.0,0.0,0.0,0.0,0.0,0.0,0.0,0.0,0.0,0.0,0.0,0.0,0.0,0.0,0.0,0.0,0.0,0.0,0.0,0.0,0.0,0.0,0.0,0.0,0.0,0.0,0.0,0.0,0.0,0.0,0.0,0.0,0.0,0.0,0.0,0.0,0.0,0.0,0.0,0.0,0.0,0.0,0.0,0.0,0.0,0.0,0.0,0.0,0.0,0.0,0.0,0.0,0.0,0.0,0.0,0.0,0.0,0.0,0.0,0.0,0.0,0.0,0.0,0.0,0.0,0.0,0.0,2.0741,2.0969,2.2454,2.3451,2.3566,2.3839,2.3405,2.1991,0.0,0.0,0.0,0.0,0.0,0.0,0.0,0.0,0.0,0.0,0.0,0.0,0.0,0.0,0.0,0.0,0.0,0.0,0.0,0.0,0.0,0.0,0.0,0.0,0.0,0.0,0.0,0.0,0.0,0.0,0.0,0.0,0.0,0.0,0.0,0.0,0.0,0.0,0.0,0.0,0.0,0.0,0.0,0.0,0.0,0.0,0.0,0.0,0.0,0.0,0.0,0.0,0.0,0.0,0.0,0.0,0.0,0.0,0.0,0.0,0.0,0.0,0.0,0.0,0.0,0.0,0.0,0.0,0.0,0.0,0.0,0.0,0.0,0.0,0.0,0.0,0.0,0.0,0.0,0.0,0.0,0.0,0.0,0.0,0.0,0.0,0.0,0.0,0.0,0.0,0.0,0.0,0.0,0.0,0.0,0.0,0.0,0.0,0.0,0.0,0.0,0.0,0.0,0.0,2.1026,2.2541,2.2981,2.3216,2.3304,2.3782,2.3349,2.1675,0.0,0.0,0.0,0.0,0.0,0.0,0.0,0.0,0.0,0.0,0.0,0.0,0.0,0.0,0.0,0.0,0.0,0.0,0.0,0.0,0.0,0.0,0.0,0.0,0.0,0.0,0.0,0.0,0.0,0.0,0.0,0.0,0.0,0.0,0.0,0.0,0.0,0.0,0.0,0.0,0.0,0.0,0.0,0.0,0.0,0.0,0.0,0.0,0.0,0.0,0.0,0.0,0.0,0.0,0.0,0.0,0.0,0.0,0.0,0.0,0.0,0.0,0.0,0.0,0.0,0.0,0.0,0.0,0.0,0.0,0.0,0.0,0.0,0.0,0.0,0.0,0.0,0.0,0.0,0.0,0.0,0.0,0.0,0.0,0.0,0.0,0.0,0.0,0.0,0.0,0.0,0.0,0.0,0.0,0.0,0.0,0.0,0.0,0.0,0.0,0.0,0.0,0.0,1.9373,2.0198,2.2383,2.2768,2.2934,2.3083,2.361,2.3266,2.1689,2.1916,0.0,0.0,0.0,0.0,0.0,0.0,0.0,0.0,0.0,0.0,0.0,0.0,0.0,0.0,0.0,0.0,0.0,0.0,0.0,0.0,0.0,0.0,0.0,0.0,0.0,0.0,0.0,0.0,0.0,0.0,0.0,0.0,0.0,0.0,0.0,0.0,0.0,0.0,0.0,0.0,0.0,0.0,0.0,0.0,0.0,0.0,0.0,0.0,0.0,0.0,0.0,0.0,0.0,0.0,0.0,0.0,0.0,0.0,0.0,0.0,0.0,0.0,0.0,0.0,0.0,0.0,0.0,0.0,0.0,0.0,0.0,0.0,0.0,0.0,0.0,0.0,0.0,0.0,0.0,0.0,0.0,0.0,0.0,0.0,0.0,0.0,0.0,0.0,0.0,0.0,0.0,0.0,0.0,0.0,0.0,0.0,0.0,0.0,0.0,0.0,0.0,0.0,1.9287,2.0055,2.2076,2.2526,2.2754,2.2979,2.348,2.3197,2.1729,2.1838,0.0,0.0,0.0,0.0,0.0,0.0,0.0,0.0,0.0,0.0,0.0,0.0,0.0,0.0,0.0,0.0,0.0,0.0,0.0,0.0,0.0,0.0,0.0,0.0,0.0,0.0,0.0,0.0,0.0,0.0,0.0,0.0,0.0,0.0,0.0,0.0,0.0,0.0,0.0,0.0,0.0,0.0,0.0,0.0,0.0,0.0,0.0,0.0,0.0,0.0,0.0,0.0,0.0,0.0,0.0,0.0,0.0,0.0,0.0,0.0,0.0,0.0,0.0,0.0,0.0,0.0,0.0,0.0,0.0,0.0,0.0,0.0,0.0,0.0,0.0,0.0,0.0,0.0,0.0,0.0,0.0,0.0,0.0,0.0,0.0,0.0,0.0,0.0,0.0,0.0,0.0,0.0,0.0,0.0,0.0,0.0,0.0,0.0,0.0,0.0,0.0,0.0,2.0307,2.1843,2.2495,2.2526,2.2694,2.3231,2.3625,2.3098,2.1514,2.1665,0.0,0.0,0.0,0.0,0.0,0.0,0.0,0.0,0.0,0.0,0.0,0.0,0.0,0.0,0.0,0.0,0.0,0.0,0.0,0.0,0.0,0.0,0.0,0.0,0.0,0.0,0.0,0.0,0.0,0.0,0.0,0.0,0.0,0.0,0.0,0.0,0.0,0.0,0.0,0.0,0.0,0.0,0.0,0.0,0.0,0.0,0.0,0.0,0.0,0.0,0.0,0.0,0.0,0.0,0.0,0.0,0.0,0.0,0.0,0.0,0.0,0.0,0.0,0.0,0.0,0.0,0.0,0.0,0.0,0.0,0.0,0.0,0.0,0.0,0.0,0.0,0.0,0.0,0.0,0.0,0.0,0.0,0.0,0.0,0.0,0.0,0.0,0.0,0.0,0.0,0.0,0.0,0.0,0.0,0.0,0.0,0.0,0.0,0.0,0.0,0.0,0.0,1.98,2.0965,2.2007,2.2434,2.274,2.3038,2.3421,2.3014,2.1377,0.0,0.0,0.0,0.0,0.0,0.0,0.0,0.0,0.0,0.0,0.0,0.0,0.0,0.0,0.0,0.0,0.0,0.0,0.0,0.0,0.0,0.0,0.0,0.0,0.0,0.0,0.0,0.0,0.0,0.0,0.0,0.0,0.0,0.0,0.0,0.0,0.0,0.0,0.0,0.0,0.0,0.0,0.0,0.0,0.0,0.0,0.0,0.0,0.0,0.0,0.0,0.0,0.0,0.0,0.0,0.0,0.0,0.0,0.0,0.0,0.0,0.0,0.0,0.0,0.0,0.0,0.0,0.0,0.0,0.0,0.0,0.0,0.0,0.0,0.0,0.0,0.0,0.0,0.0,0.0,0.0,0.0,0.0,0.0,0.0,0.0,0.0,0.0,0.0,0.0,0.0,0.0,0.0,0.0,0.0,0.0,0.0,0.0,0.0,0.0,0.0,0.0,1.8429,1.9746,2.0941,2.1946,2.248,2.2844,2.3038,2.3377,2.2914,2.1254,0.0,0.0,0.0,0.0,0.0,0.0,0.0,0.0,0.0,0.0,0.0,0.0,0.0,0.0,0.0,0.0,0.0,0.0,0.0,0.0,0.0,0.0,0.0,0.0,0.0,0.0,0.0,0.0,0.0,0.0,0.0,0.0,0.0,0.0,0.0,0.0,0.0,0.0,0.0,0.0,0.0,0.0,0.0,0.0,0.0,0.0,0.0,0.0,0.0,0.0,0.0,0.0,0.0,0.0,0.0,0.0,0.0,0.0,0.0,0.0,0.0,0.0,0.0,0.0,0.0,0.0,0.0,0.0,0.0,0.0,0.0,0.0,0.0,0.0,0.0,0.0,0.0,0.0,0.0,0.0,0.0,0.0,0.0,0.0,0.0,0.0,0.0,0.0,0.0,0.0,0.0,0.0,0.0,0.0,0.0,0.0,0.0,0.0,0.0,0.0,0.0,0.0,1.8053,2.0466,2.2324,2.2555,2.2768,2.3038,2.3275,2.348,2.2872,0.0,0.0,0.0,0.0,0.0,0.0,0.0,0.0,0.0,0.0,0.0,0.0,0.0,0.0,0.0,0.0,0.0,0.0,0.0,0.0,0.0,0.0,0.0,0.0,0.0,0.0,0.0,0.0,0.0,0.0,0.0,0.0,0.0,0.0,0.0,0.0,0.0,0.0,0.0,0.0,0.0,0.0,0.0,0.0,0.0,0.0,0.0,0.0,0.0,0.0,0.0,0.0,0.0,0.0,0.0,0.0,0.0,0.0,0.0,0.0,0.0,0.0,0.0,0.0,0.0,0.0,0.0,0.0,0.0,0.0,0.0,0.0,0.0,0.0,0.0,0.0,0.0,0.0,0.0,0.0,0.0,0.0,0.0,0.0,0.0,0.0,0.0,0.0,0.0,0.0,0.0,0.0,0.0,0.0,0.0,0.0,0.0,0.0,0.0,0.0,0.0,0.0,0.0,1.8053,2.0511,2.2324,2.2555,2.2963,2.3216,2.3275,2.348,2.2829,2.1021,0.0,0.0,0.0,0.0,0.0,0.0,0.0,0.0,0.0,0.0,0.0,0.0,0.0,0.0,0.0,0.0,0.0,0.0,0.0,0.0,0.0,0.0,0.0,0.0,0.0,0.0,0.0,0.0,0.0,0.0,0.0,0.0,0.0,0.0,0.0,0.0,0.0,0.0,0.0,0.0,0.0,0.0,0.0,0.0,0.0,0.0,0.0,0.0,0.0,0.0,0.0,0.0,0.0,0.0,0.0,0.0,0.0,0.0,0.0,0.0,0.0,0.0,0.0,0.0,0.0,0.0,0.0,0.0,0.0,0.0,0.0,0.0,0.0,0.0,0.0,0.0,0.0,0.0,0.0,0.0,0.0,0.0,0.0,0.0,0.0,0.0,0.0,0.0,0.0,0.0,0.0,0.0,0.0,0.0,0.0,0.0,0.0,0.0,0.0,0.0,0.0,0.0,1.8213,2.0633,2.2463,2.2752,2.3098,2.3319,2.3363,2.3523,2.299,2.1509,0.0,0.0,0.0,0.0,0.0,0.0,0.0,0.0,0.0,0.0,0.0,0.0,0.0,0.0,0.0,0.0,0.0,0.0,0.0,0.0,0.0,0.0,0.0,0.0,0.0,0.0,0.0,0.0,0.0,0.0,0.0,0.0,0.0,0.0,0.0,0.0,0.0,0.0,0.0,0.0,0.0,0.0,0.0,0.0,0.0,0.0,0.0,0.0,0.0,0.0,0.0,0.0,0.0,0.0,0.0,0.0,0.0,0.0,0.0,0.0,0.0,0.0,0.0,0.0,0.0,0.0,0.0,0.0,0.0,0.0,0.0,0.0,0.0,0.0,0.0,0.0,0.0,0.0,0.0,0.0,0.0,0.0,0.0,0.0,0.0,0.0,0.0,0.0,0.0,0.0,0.0,0.0,0.0,0.0,0.0,0.0,0.0,0.0,0.0,0.0,0.0,0.0,1.8385,2.0857,2.2706,2.3037,2.3201,2.3363,2.3466,2.3566,2.324,2.2389,0.0,0.0,0.0,0.0,0.0,0.0,0.0,0.0,0.0,0.0,0.0,0.0,0.0,0.0,0.0,0.0,0.0,0.0,0.0,0.0,0.0,0.0,0.0,0.0,0.0,0.0,0.0,0.0,0.0,0.0,0.0,0.0,0.0,0.0,0.0,0.0,0.0,0.0,0.0,0.0,0.0,0.0,0.0,0.0,0.0,0.0,0.0,0.0,0.0,0.0,0.0,0.0,0.0,0.0,0.0,0.0,0.0,0.0,0.0,0.0,1.6738,0.0,0.0,0.0,0.0,0.0,0.0,0.0,0.0,0.0,0.0,0.0,0.0,0.0,0.0,0.0,0.0,0.0,0.0,0.0,0.0,0.0,0.0,0.0,0.0,0.0,0.0,0.0,0.0,0.0,0.0,0.0,0.0,0.0,0.0,0.0,0.0,0.0,0.0,0.0,0.0,0.0,1.8299,2.0826,2.2706,2.2947,2.3157,2.3319,2.3319,2.348,2.3139,2.1975,2.1815,0.0,0.0,0.0,0.0,0.0,0.0,0.0,0.0,0.0,0.0,0.0,0.0,0.0,0.0,0.0,0.0,0.0,0.0,0.0,0.0,0.0,0.0,0.0,0.0,0.0,0.0,0.0,0.0,0.0,0.0,0.0,0.0,0.0,0.0,0.0,0.0,0.0,0.0,0.0,0.0,0.0,0.0,0.0,0.0,0.0,0.0,0.0,0.0,0.0,0.0,0.0,0.0,0.0,0.0,0.0,0.0,0.0,0.0,0.0,0.0,1.6085,0.0,0.0,0.0,0.0,0.0,0.0,0.0,0.0,0.0,0.0,0.0,0.0,0.0,0.0,0.0,0.0,0.0,0.0,0.0,0.0,0.0,0.0,0.0,0.0,0.0,0.0,0.0,0.0,0.0,0.0,0.0,0.0,0.0,0.0,0.0,0.0,0.0,0.0,0.0,0.0,1.8553,2.0915,2.2752,2.3068,2.3231,2.3275,2.3127,2.3201,2.2922,2.2085,2.1799,0.0,0.0,0.0,0.0,0.0,0.0,0.0,0.0,0.0,0.0,0.0,0.0,0.0,0.0,0.0,0.0,0.0,0.0,0.0,0.0,0.0,0.0,0.0,0.0,0.0,0.0,0.0,0.0,0.0,0.0,0.0,0.0,0.0,0.0,0.0,0.0,0.0,0.0,0.0,0.0,0.0,0.0,0.0,0.0,0.0,0.0,0.0,0.0,0.0,0.0,0.0,0.0,0.0,1.5248,1.5342,1.5034,1.6256,1.6817,1.6708,1.6387,1.6565,1.6957,1.5448,0.0,0.0,0.0,0.0,0.0,0.0,0.0,0.0,0.0,0.0,0.0,0.0,0.0,0.0,0.0,0.0,0.0,0.0,0.0,0.0,0.0,0.0,0.0,0.0,1.8474,1.9106,1.87,0.0,0.0,0.0,0.0,0.0,0.0,0.0,0.0,0.0,0.0,0.0,1.9277,2.1292,2.2828,2.3275,2.3231,2.3127,2.2889,2.2799,2.2603,2.2235,2.1693,2.1324,0.0,0.0,0.0,0.0,0.0,0.0,0.0,0.0,0.0,0.0,0.0,0.0,0.0,0.0,0.0,0.0,0.0,0.0,0.0,0.0,0.0,0.0,0.0,0.0,0.0,0.0,0.0,0.0,0.0,0.0,0.0,0.0,1.4602,1.4076,0.0,0.0,0.0,0.0,0.0,0.0,0.0,0.0,0.0,0.0,0.0,0.0,0.0,1.2805,1.2913,1.4463,1.5318,1.5589,1.6798,1.7444,1.7607,1.7795,1.7872,1.7861,1.7804,0.0,1.6492,1.6244,0.0,0.0,0.0,0.0,0.0,0.0,0.0,0.0,0.0,0.0,0.0,0.0,0.0,0.0,0.0,0.0,0.0,0.0,0.0,0.0,0.0,0.0,1.9725,2.0152,2.038,2.0419,0.0,1.8808,1.7435,1.6968,1.7262,0.0,0.0,0.0,0.0,0.0,0.0,0.0,2.0729,2.2144,2.3112,2.3275,2.2979,2.2754,2.274,2.242,2.2095,2.1888,2.1771,2.126,2.0227,2.0321,0.0,0.0,0.0,0.0,0.0,0.0,0.0,0.0,0.0,0.0,0.0,0.0,0.0,0.0,0.0,0.0,0.0,0.0,0.0,0.0,0.0,0.0,0.0,0.0,0.0,0.0,0.0,0.0,0.0,1.2615,1.2351,1.2476,1.1494,1.0646,0.0,0.0,0.0,0.0,0.0,0.0,0.0,0.0,0.0,1.2819,1.3197,1.3746,1.4609,1.5527,1.6189,1.6588,1.7147,1.759,1.7877,1.7877,1.7986,1.8084,1.8084,1.7609,1.6809,1.6547,1.6084,1.5595,0.0,0.0,0.0,0.0,1.5039,1.5133,1.5827,1.6029,1.6029,1.6029,0.0,0.0,0.0,0.0,0.0,0.0,0.0,0.0,0.0,0.0,1.8785,1.9748,2.0131,2.0271,2.0131,1.9598,1.8883,0.0,1.7242,1.6559,1.5222,0.0,0.0,0.0,0.0,1.9997,2.0903,2.2036,2.2723,2.2586,2.2388,2.2203,2.1969,2.1827,2.1541,2.118,2.1277,2.1108,2.0576,2.0279,1.9666,0.0,0.0,0.0,0.0,0.0,0.0,0.0,0.0,0.0,0.0,0.0,0.0,0.0,0.0,0.0,0.0,0.0,0.0,0.0,0.0,0.0,0.0,0.0,0.0,0.0,0.0,0.0,0.0,1.1531,1.1374,1.1751,1.1013,1.0284,0.0,0.0,0.0,0.0,0.0,0.0,1.2206,1.1955,1.2357,1.3441,1.378,1.4495,1.5584,1.5921,1.6322,1.6775,1.6775,1.6955,1.7357,1.7357,1.7468,1.7623,1.7623,1.739,1.6946,1.671,1.6504,1.631,1.5454,1.5116,1.5106,1.5266,1.5213,1.5264,1.6439,1.6731,1.6613,1.6785,1.659,1.6256,1.57,0.0,0.0,0.0,0.0,1.614,1.7572,1.7804,1.8054,1.9165,1.9604,1.9798,1.9708,1.9749,1.956,0.0,1.79,1.7023,1.6253,0.0,0.0,0.0,0.0,2.0468,2.1121,2.1861,2.2296,2.2077,2.1935,2.1746,2.1423,2.1277,2.1082,2.0699,2.0848,2.0947,2.0947,2.0364,1.9965,1.9786,0.0,0.0,0.0,0.0,0.0,0.0,0.0,0.0,0.0,0.0,0.0,0.0,0.0,0.0,0.0,0.0,0.0,0.0,0.0,0.0,0.0,0.0,0.0,0.0,0.0,0.0,0.0,0.0,0.0,1.3195,1.2869,0.0,0.0,0.0,0.0,1.0714,1.1673,1.2414,1.2714,1.287,1.3114,1.3485,1.3974,1.4222,1.43,1.4775,1.5225,1.5661,1.5661,1.5901,1.6368,1.6368,1.6368,1.6358,1.6358,1.6358,1.6358,1.6946,1.6824,1.6327,1.6249,1.6239,1.6296,1.6847,1.668,1.6409,1.7578,1.7633,1.7224,1.782,1.72,1.6203,1.6181,1.5309,0.0,0.0,1.617,1.6557,1.8277,1.875,1.8815,1.9303,1.942,1.942,1.942,1.8606,1.8301,0.0,2.0054,1.9699,1.8672,0.0,1.8969,1.9355,1.9564,2.0279,2.1763,2.1969,2.203,2.2081,2.1684,2.1423,2.1423,2.0997,2.0749,2.0699,2.0699,2.0699,2.0699,2.0673,2.0187,1.9179,1.9092,0.0,0.0,0.0,0.0,0.0,0.0,0.0,0.0,0.0,0.0,0.0,0.0,0.0,0.0,0.0,0.0,0.0,0.0,0.0,0.0,0.0,0.0,0.0,0.0,0.0,0.0,0.0,0.0,1.2166,1.2184,0.0,1.0733,1.133,1.1623,1.1383,1.2435,1.3135,1.3263,1.3322,1.339,1.3511,1.3631,1.3881,1.4189,1.4369,1.4815,1.5603,1.5449,1.568,1.6301,1.614,1.614,1.6312,1.6312,1.6083,1.5748,1.5968,1.614,1.6312,1.6312,1.6312,1.6301,1.6528,1.6472,1.6358,1.6765,1.7045,1.7313,1.7909,1.7784,1.7409,1.7409,1.7113,1.684,1.7299,1.7409,1.7562,1.8201,1.8356,1.841,1.8518,1.8786,1.8999,1.8999,1.8883,1.8955,1.9579,1.9255,1.8819,1.8859,1.9334,1.9747,1.9677,2.0241,2.0912,2.1527,2.1616,2.1506,2.1215,2.1033,2.0947,2.0947,2.0799,2.0699,2.0699,2.0699,2.0699,2.0699,2.0699,2.0508,2.0137,2.0137,1.9255,0.0,0.0,0.0,0.0,0.0,0.0,0.0,0.0,0.0,0.0,0.0,0.0,0.0,0.0,0.0,0.0,0.0,0.0,0.0,0.0,0.0,0.0,0.0,0.0,0.0,0.0,1.2414,1.1662,1.2006,1.1889,1.1027,1.1783,1.2273,1.2162,1.2997,1.3511,1.3511,1.3511,1.3511,1.3511,1.3511,1.3631,1.3941,1.3941,1.435,1.504,1.4874,1.5108,1.569,1.5526,1.5526,1.569,1.569,1.5468,1.5069,1.5069,1.5362,1.569,1.569,1.5806,1.6026,1.6197,1.6312,1.6301,1.6528,1.6866,1.7313,1.7909,1.7963,1.7843,1.803,1.8084,1.8084,1.8084,1.8084,1.8084,1.8084,1.8084,1.8084,1.8084,1.8356,1.8583,1.8583,1.8905,1.921,1.921,1.8934,1.8856,1.9196,1.9876,2.0178,1.9571,2.0377,2.0939,2.0594,2.0899,2.1033,2.0749,2.0699,2.0699,2.0699,2.0429,2.0341,2.0686,2.0416,2.0354,2.0699,2.0354,2.015,2.015,2.015,1.9369,1.7836,0.0,0.0,0.0,0.0,0.0,0.0,0.0,0.0,0.0,0.0,0.0,0.0,0.0,0.0,0.0,0.0,0.0,0.0,0.0,0.0,0.0,0.0,0.0,1.1591,1.1615,1.1783,1.1933,1.2595,1.292,1.2544,1.3147,1.339,1.305,1.3338,1.3511,1.3511,1.3511,1.3511,1.3511,1.3511,1.3511,1.3511,1.3511,1.37,1.401,1.401,1.4198,1.4515,1.4515,1.4515,1.4515,1.4515,1.4515,1.4515,1.4515,1.4515,1.4515,1.4515,1.4852,1.5468,1.6026,1.6255,1.6358,1.6978,1.7202,1.7313,1.7909,1.7678,1.7313,1.7909,1.8084,1.8084,1.8084,1.8084,1.8084,1.8084,1.8084,1.8084,1.8084,1.8084,1.8084,1.8084,1.8464,1.8798,1.8798,1.9396,1.9991,1.9991,2.0372,2.0304,1.9145,1.9937,0.0,1.9132,1.9999,2.0699,2.0686,2.0673,2.0673,2.0673,1.9819,1.9693,2.0623,1.9832,1.9767,2.0686,1.9695,1.9143,1.9143,1.913,1.9032,1.8883,0.0,0.0,0.0,0.0,0.0,0.0,0.0,0.0,0.0,0.0,0.0,0.0,0.0,0.0,0.0,0.0,0.0,0.0,0.0,0.0,0.0,1.1448,1.2232,1.2134,1.3316,1.4051,1.3604,1.376,1.37,1.3268,1.339,1.345,1.339,1.345,1.3511,1.3511,1.3511,1.3511,1.3511,1.364,1.364,1.3511,1.3761,1.389,1.401,1.4139,1.4327,1.4515,1.4515,1.4515,1.4515,1.4515,1.4515,1.4515,1.4515,1.4515,1.4515,1.4515,1.4625,1.4793,1.4902,1.5245,1.5748,1.6358,1.681,1.7313,1.7909,1.7963,1.7909,1.803,1.8084,1.8084,1.8084,1.8084,1.8084,1.8084,1.8084,1.8084,1.8084,1.8084,1.8084,1.8084,1.8193,1.8302,1.8302,1.8732,1.9303,1.9888,2.0105,2.0219,2.0178,2.0508,0.0,2.0228,2.0508,2.0442,1.9767,1.968,1.968,1.968,1.9441,1.9693,2.0623,2.0455,2.0429,2.0699,2.0393,2.0252,2.0252,1.9382,1.8933,0.0,0.0,0.0,0.0,0.0,0.0,0.0,0.0,0.0,0.0,0.0,0.0,0.0,0.0,0.0,0.0,0.0,0.0,0.0,0.0,0.0,0.0,1.2381,1.2983,1.3042,1.3892,1.4341,1.407,1.3941,1.3821,1.3511,1.3511,1.3579,1.3742,1.375,1.3827,1.399,1.4053,1.4107,1.4107,1.4311,1.4232,1.3935,1.4118,1.423,1.4139,1.4267,1.4387,1.4515,1.4515,1.4515,1.4515,1.4515,1.4515,1.4515,1.4515,1.4515,0.0,0.0,0.0,0.0,0.0,1.5468,1.5864,1.6539,1.681,1.6978,1.7909,1.8018,1.7788,1.803,1.8084,1.8084,1.8084,1.8084,1.8084,1.8084,1.8084,1.8084,1.8084,1.8084,1.8084,1.8084,1.8084,1.8084,1.8084,1.8302,0.0,1.9604,1.9901,1.9915,1.9712,2.0293,2.0521,2.0012,2.0406,2.0481,1.9933,1.9907,1.9907,1.9907,1.9541,0.0,0.0,0.0,2.0086,2.0023,2.0023,0.0,0.0,0.0,1.9194,1.9634,0.0,0.0,0.0,1.8534,1.8563,0.0,0.0,0.0,0.0,0.0,0.0,0.0,0.0,0.0,0.0,0.0,0.0,0.0,0.0,0.0,0.0,1.3635,1.4387,1.407,1.3795,1.3683,1.3838,1.3735,1.3631,1.3631,1.3674,1.3846,1.4199,1.4225,1.438,1.4732,0.0,0.0,0.0,0.0,1.5076,1.4648,1.4711,1.4604,1.4463,1.4463,1.4523,1.4643,1.4643,1.4643,1.4643,1.4643,1.4643,1.4643,1.4643,1.4643,1.4634,1.4543,1.4843,1.5468,1.6026,1.6312,1.6528,1.7157,0.0,0.0,1.8018,1.7952,1.749,1.7963,1.8139,1.8139,1.8139,1.815,1.8139,1.8139,1.8139,1.8084,1.8084,1.8084,1.8084,1.8084,1.8084,1.8084,1.8084,1.8084,1.8356,1.921,1.9656,1.9623,1.8706,1.9812,2.0317,1.9245,2.0025,2.0686,2.0557,0.0,0.0,2.0557,1.9793,1.9693,2.0623,1.992,1.9379,1.9268,1.9268,1.9268,1.9268,1.9268,1.977,2.0699,2.0699,2.0699,2.0623,1.8437,1.8482,0.0,0.0,0.0,0.0,0.0,0.0,0.0,0.0,0.0,0.0,0.0,0.0,0.0,0.0,0.0,1.2613,1.3567,1.4327,1.4387,1.4398,1.4285,1.3985,1.4215,1.44,1.44,1.47,1.4921,1.5,1.5009,1.5045,1.5124,1.5124,1.5115,1.5115,1.5366,1.5339,1.5074,1.5322,1.5405,1.5269,0.0,0.0,1.546,1.546,1.546,1.546,1.546,1.546,1.546,1.546,1.5532,1.5603,1.4823,1.4843,1.541,1.5517,1.6255,1.7213,1.7324,1.7722,1.8213,1.8452,1.8452,1.8333,1.8452,1.8506,0.0,1.8506,1.841,1.8367,1.8367,1.8205,1.8084,1.8084,1.8084,1.8084,1.8084,1.8084,1.8084,1.8084,1.8084,1.8247,1.8851,1.9263,1.9683,2.0142,2.0471,2.061,2.0393,2.0584,2.0429,1.9667,1.9566,1.9566,1.9566,1.9415,1.9693,2.0623,2.0544,2.0429,2.038,2.038,2.038,2.038,2.038,2.0481,2.0699,2.0699,2.0699,2.0699,2.0215,2.0398,0.0,0.0,0.0,0.0,0.0,0.0,0.0,0.0,0.0,0.0,0.0,1.2136,0.0,0.0,1.3229,1.3588,1.4105,1.4561,1.4772,1.4851,1.4772,1.4452,1.4711,1.4879,1.4879,1.5065,1.526,1.5455,1.5473,1.5562,1.5757,1.5833,1.5891,1.5891,1.6093,1.6078,1.5746,1.5944,1.59,1.5624,1.5689,1.5689,1.5689,1.5689,1.5753,1.5827,1.5827,1.5891,1.5936,1.5936,1.601,1.6036,1.557,1.5515,1.5792,1.5581,1.6137,1.6958,1.7132,1.7611,1.8224,1.8572,1.8667,1.8614,1.8614,1.8614,1.8614,1.8614,1.8572,1.8518,1.8518,1.8356,1.8247,1.8356,1.8302,1.8247,1.8356,1.8356,1.8356,1.8356,1.8356,1.8506,1.8946,1.9408,1.9862,2.0271,2.0736,2.0997,2.0848,2.0997,2.0877,2.0377,2.0205,2.0218,2.0351,2.0205,2.0286,2.0686,2.0699,2.0699,2.0699,2.0699,2.0699,2.0699,2.0699,2.0699,2.0699,2.0699,2.0699,2.0699,2.0699,2.0947,0.0,0.0,0.0,0.0,0.0,0.0,0.0,0.0,1.3706,1.3599,1.3137,1.3058,1.4061,1.399,1.401,1.4771,1.4952,1.507,1.529,1.5348,1.5331,1.5268,1.5368,1.5426,1.5426,1.5498,1.5668,1.5981,1.6008,1.6151,1.6394,1.6542,1.6682,1.6682,1.683,1.6752,1.6431,1.6431,1.6257,1.5927,1.5927,1.6048,1.6169,1.6169,1.6373,1.6706,1.6706,1.6751,1.686,1.687,1.6934,1.6924,1.6934,1.6934,1.6875,1.6181,1.6235,1.6755,1.7156,1.7523,1.7886,1.8625,1.8786,1.8667,1.8667,1.8667,1.8667,1.8667,1.8667,1.8614,1.8614,1.8518,1.8464,1.856,1.8518,1.8464,1.856,1.8614,1.8614,1.8614,1.8667,1.8869,1.9279,1.9837,2.0194,2.0144,2.0858,2.1326,2.1082,2.1277,2.1423,2.1423,2.1229,2.118,2.1375,2.118,2.0997,2.0848,2.0848,2.0848,2.0848,2.0848,2.0799,2.0749,2.0749,2.0749,2.0699,2.0699,2.0699,2.0699,2.0799,2.0997,1.28,1.2714,1.3603,1.4447,1.4705,1.5026,0.0,0.0,1.5064,1.5501,1.5283,1.5042,1.5216,1.5308,1.5392,1.5501,1.5813,1.6069,1.6053,1.6262,1.643,1.643,1.6287,1.6181,1.6181,1.6501,1.672,1.6766,1.6766,1.6784,1.683,1.6839,1.6908,1.6908,1.6908,1.689,1.6844,1.6844,1.6817,1.6771,1.6771,1.7154,1.7927,1.7927,1.8328,1.912,1.912,1.912,1.912,1.9306,1.9371,1.9447,1.9598,1.9673,1.9437,1.7675,1.7225,1.7573,1.8156,1.8193,1.8159,1.8774,1.8999,1.8934,1.8934,1.8934,1.8934,1.8934,1.8893,1.8798,1.8798,1.8679,1.856,1.8614,1.8614,1.856,1.8614,1.8614,1.8614,1.8614,1.8963,1.9423,1.9837,2.0534,2.093,2.061,2.1019,2.1375,2.1375,2.1375,2.1423,2.1423,2.1375,2.1375,2.1423,2.1375,2.1375,2.1326,2.1326,2.1326,2.1326,2.1326,2.1229,2.0997,2.0997,2.0898,2.0699,2.0699,2.0699,2.0699,2.1131,2.1131,1.5303,1.4902,1.512,1.6669,1.6986,1.7068,1.7801,1.727,1.6733,1.7036,1.6769,1.6476,1.6355,1.639,1.6321,0.0,1.6287,1.6424,1.6617,1.6666,1.6873,1.7109,1.6934,1.6788,1.6661,1.6807,1.6908,1.6908,1.7038,1.7097,1.7097,1.7185,1.7185,1.7107,1.7097,1.7038,1.6908,1.7038,1.7097,1.7107,1.7185,1.7647,1.8355,1.8355,1.888,1.9661,1.9814,1.9824,1.989,1.9944,1.9944,1.9955,2.0096,2.0096,1.9955,1.8881,1.8754,1.9153,1.9179,1.9147,1.9105,1.9389,1.9239,1.8987,1.8987,1.8987,1.8987,1.8987,1.8946,1.8946,1.8946,1.8839,1.8732,1.8827,1.8786,1.8732,1.8827,1.8827,1.8934,1.9239,1.9488,1.9798,2.0258,2.0908,2.1251,2.1068,2.1506,2.1793,2.1664,2.1746,2.1793,2.1664,2.1746,2.1746,2.1423,2.1568,2.1568,2.1423,2.1423,2.1423,2.1423,2.1423,2.1375,2.1229,2.1229,2.118,2.1082,2.0947,2.0848,2.0898,2.0947,2.1033,1.6446,1.6384,1.6683,1.8283,1.8689,1.8759,1.8943,1.8583,1.8202,1.8237,1.7883,1.7461,1.7274,1.7249,1.7149,1.6831,1.6938,1.7057,1.7187,1.7159,1.7197,1.7491,1.7382,1.7245,1.7047,1.7047,1.6968,1.6968,1.7176,1.7314,1.7314,1.7392,1.7461,1.7314,1.7442,1.751,1.7373,1.7696,1.7823,1.7833,1.7978,1.8442,1.9156,1.942,1.9879,2.0462,2.0677,2.0741,2.0741,2.0805,2.0805,2.0805,2.0805,2.0805,2.0771,2.0461,2.0172,2.0014,1.9915,1.9808,1.9773,1.9953,1.9648,1.9215,1.9215,1.9107,1.8987,1.8987,1.8987,1.8987,1.8987,1.8946,1.8893,1.8999,1.8946,1.8893,1.8999,1.8987,1.9093,1.95,1.9708,1.9952,2.051,2.1068,2.1471,2.1616,2.1949,2.2137,2.1949,2.2091,2.2137,2.1949,2.2091,2.2044,2.1664,2.1793,2.1841,2.1616,2.1616,2.1616,2.1616,2.1616,2.1616,2.152,2.152,2.1471,2.1423,2.1131,2.0997,2.0997,2.0947,2.1131,1.5142,1.6367,1.793,1.83,1.8991,1.9577,1.9622,1.9572,1.9346,1.9048,1.8434,1.7996,1.7996,1.7924,1.778,1.7585,1.7952,1.8172,1.7988,1.7765,1.7696,1.7706,1.7588,1.747,0.0,1.7314,1.7166,1.7166,1.7392,1.747,1.747,1.747,1.747,1.747,1.8114,1.8442,1.8442,1.9079,1.9399,1.9399,1.9465,1.9933,2.0858,2.1726,2.2123,2.2123,2.2297,2.2359,2.2359,2.2555,2.2616,2.2616,2.2616,2.2616,2.2616,2.2604,2.1237,1.9489,2.0109,2.0033,1.9796,2.0413,2.0213,1.9756,1.9756,1.9396,1.8987,1.8987,1.8987,1.8987,1.8987,1.8987,1.8987,1.8987,1.8987,1.8987,1.8987,1.8987,1.8987,1.904,1.9448,1.9952,2.051,2.1068,2.1568,2.2091,2.2184,2.2184,2.2184,2.2184,2.2184,2.2184,2.2184,2.2184,2.2184,2.2184,2.2184,2.2184,2.2184,2.2184,2.2184,2.2184,2.2044,2.1793,2.1793,2.1664,2.1423,2.1131,2.0997,2.0997,2.1277,2.1636,1.8031,1.8645,1.919,2.0122,2.0266,2.0339,2.076,2.0461,2.0129,2.0375,1.9164,1.7975,1.7667,1.749,1.7233,1.685,1.7728,1.8405,1.8202,1.8134,1.8056,1.793,1.7725,0.0,0.0,0.0,0.0,1.7392,1.752,1.7647,1.7647,1.7735,1.7803,1.7657,1.7842,1.8172,1.8509,1.8834,1.9278,1.9727,2.0268,2.073,2.106,2.1913,2.2297,2.2359,2.2494,2.2616,2.2616,2.2678,2.269,2.269,2.269,2.269,2.269,2.269,2.2237,2.164,2.1836,2.1488,2.0997,2.1362,2.1125,2.0616,2.0491,2.037,2.0096,1.9679,1.9516,1.9432,1.9083,1.8987,1.8987,1.8987,1.8987,1.8987,1.8987,1.9303,1.9656,2.0003,2.051,2.1006,2.1589,2.1793,2.1996,2.2184,2.2184,2.2184,2.2184,2.2184,2.2184,2.2184,2.2184,2.2184,2.2184,2.2184,2.2184,2.2184,2.2184,2.2184,2.2184,2.2184,2.2184,2.2091,2.2091,2.2044,2.1949,2.1664,2.152,2.152,2.1277,2.1589,1.9705,2.0246,2.0734,2.1543,2.1428,2.1299,2.1788,2.1486,2.1152,2.1455,1.9829,1.823,1.7903,1.7616,1.7264,1.6699,1.7815,1.8664,1.8405,1.8337,1.8347,1.8212,1.8203,1.8223,0.0,0.0,0.0,1.7617,1.786,1.8006,1.8006,1.8567,1.8864,1.8706,1.9247,1.9646,1.9984,2.0387,2.0853,2.1303,2.1922,2.2256,2.2256,2.266,2.2774,2.2762,2.2764,2.28,2.28,2.28,2.286,2.286,2.286,2.286,2.286,2.286,2.28,2.2739,2.2739,2.2384,2.203,2.2161,2.1793,2.1362,2.1235,2.1043,2.0811,2.0402,2.0249,2.0164,1.9825,1.974,1.9691,1.9485,1.9585,1.967,1.9485,1.985,2.0346,2.066,2.1006,2.1458,2.1935,2.2231,2.2324,2.2324,2.2324,2.2324,2.2231,2.2184,2.2184,2.2184,2.2184,2.2184,2.2184,2.2184,2.2184,2.2184,2.2184,2.2184,2.2184,2.2184,2.2184,2.2184,2.2184,2.2184,2.2184,2.1949,2.1793,2.1793,2.1375,2.1636,2.0193,2.1197,2.2489,2.2636,2.243,2.2322,2.2797,2.2555,2.2247,2.2259,2.0369,1.8731,1.8643,1.8259,1.7759,1.7264,1.839,1.9121,1.8607,1.8549,1.8559,0.0,0.0,0.0,0.0,0.0,0.0,1.7968,0.0,1.8733,1.8733,1.989,2.0542,2.0552,2.1931,2.2695,2.2695,2.3482,2.3893,2.4013,2.4222,2.43,2.4275,2.3759,2.3538,2.3564,2.317,2.2996,2.2996,2.3105,2.314,2.3175,2.3175,2.3103,2.3078,2.3078,2.3017,2.2909,2.2739,2.2739,2.2678,2.2739,2.2394,2.1975,2.1975,2.1617,2.121,2.1117,2.1117,2.1104,2.1136,2.1067,2.0945,2.0391,2.0611,2.0872,2.0335,2.0675,2.1086,2.1086,2.1109,2.1277,2.1746,2.2278,2.2615,2.2615,2.2615,2.2509,2.2231,2.2231,2.2231,2.2231,2.2231,2.2231,2.2231,2.2231,2.2231,2.2231,2.2231,2.2231,2.2184,2.2184,2.2184,2.2184,2.2184,2.2184,2.2184,2.1949,2.1793,2.1793,2.1568,2.1874,2.3091,2.3499,2.3564,2.3822,2.3606,2.3293,2.31,2.2909,2.2665,2.2616,2.0077,1.8124,1.8885,1.7761,1.6971,1.7636,1.8786,0.0,1.9539,1.9075,0.0,1.9325,0.0,1.9344,1.9656,1.9858,0.0,0.0,2.0372,2.0375,2.0234,2.1231,2.1724,2.1596,2.2069,2.2627,2.3124,2.3815,2.4157,2.4222,2.43,2.43,2.4288,2.4295,2.4298,2.4298,2.4329,2.433,2.433,2.433,2.4155,2.3778,2.3778,2.3514,2.3078,2.3078,2.3078,2.3017,2.3017,2.2909,2.2848,2.2969,2.293,2.2758,2.271,2.2551,2.2365,2.1839,2.1682,2.1584,2.1178,2.1067,2.1043,2.0895,2.0958,2.102,2.0884,2.1637,2.2325,2.2325,2.261,2.2752,2.2441,2.2509,2.2615,2.2615,2.2615,2.2555,2.2509,2.2509,2.2509,2.2509,2.2509,2.2509,2.2509,2.2509,2.2463,2.237,2.237,2.2324,2.2184,2.2184,2.2184,2.2184,2.2184,2.2184,2.2184,2.2137,2.2091,2.2091,2.1793,2.217,2.4539,2.4761,2.4668,2.4614,2.4279,2.38,2.2847,2.241,2.1938,2.1352,1.8913,1.7245,1.8609,1.7726,1.7152,1.808,0.0,0.0,1.9987,1.9709,1.9672,0.0,2.011,0.0,2.0628,2.0687,2.0947,0.0,2.1052,2.0999,2.1193,2.2231,2.2778,2.2648,2.3421,2.3999,2.4434,2.4933,2.5148,2.5148,2.5202,2.5269,2.5324,2.5219,2.5184,2.5302,0.0,2.5,2.5,2.5,2.4811,2.4595,2.4595,2.433,2.4052,2.4052,2.4052,2.4052,2.4052,2.4052,2.3852,2.3301,2.3078,2.3078,2.3017,2.2957,2.2895,2.2536,2.2449,2.2387,2.2076,2.2002,2.194,2.1691,2.1813,2.1908,2.1668,2.2294,2.2963,2.3212,2.3716,2.3942,2.363,2.3573,2.3486,2.3213,2.3169,2.3054,2.2781,2.2661,2.2615,2.2615,2.2615,2.2615,2.2615,2.2615,2.2555,2.2509,2.2509,2.2463,2.237,2.237,2.237,2.237,2.2324,2.2278,2.2278,2.2402,2.2356,2.2184,2.2217,2.2572,2.5299,2.5458,2.5674,2.523,2.4765,2.4089,2.2486,2.1678,2.0915,1.9722,1.7649,1.6602,1.843,1.8159,1.7899,1.8868,0.0,2.0764,2.0302,2.0344,2.0543,2.1016,2.1169,2.1429,2.1859,2.1945,2.2025,2.2101,2.1381,2.1207,2.1962,2.3145,2.3806,2.3952,2.53,2.605,2.605,2.6201,2.6283,2.6283,2.6465,2.6602,2.6701,2.6286,2.6136,2.6268,2.5743,2.5525,2.5525,2.5525,2.5473,2.5409,2.5409,2.5371,2.5294,2.5294,2.5294,2.5294,2.5294,2.5294,2.5077,2.3788,2.3362,2.3311,2.3311,2.3248,2.3198,2.3245,2.3305,2.3305,2.3352,2.3424,2.3297,2.2814,2.3044,2.3253,2.2743,2.2977,2.3416,2.3942,2.4476,2.4838,2.48,2.4785,2.4646,2.4109,2.4022,2.3818,2.3221,2.2853,2.2661,2.2661,2.2661,2.2661,2.2661,2.2661,2.2661,2.2615,2.2615,2.2615,2.2615,2.2615,2.2615,2.2615,2.2509,2.2417,2.2417,2.2586,2.2526,2.2263,2.2572,2.2934,2.6393,2.64,2.6258,2.5729,2.5495,2.4901,2.2828,2.2117,0.0,2.033,1.8365,1.771,2.0416,1.9414,1.8859,2.0827,2.1032,2.0903,2.1031,2.0875,2.107,0.0,2.2002,2.2288,2.2763,2.2809,0.0,0.0,2.3073,2.2933,2.3621,2.4637,2.5557,2.6358,2.6658,2.682,2.682,2.6807,2.6888,2.6888,2.6888,2.6956,2.6943,2.6841,2.6803,2.687,2.6768,0.0,2.6716,2.6716,2.6447,2.6024,2.6024,2.573,2.5294,2.5294,2.5294,2.5294,2.5294,2.5294,2.5268,2.5,2.463,2.4246,2.4246,2.3927,2.3616,2.4118,2.4292,2.4394,2.4894,2.5007,2.498,2.4759,2.4745,2.4774,2.4568,2.4596,2.4668,2.4696,2.4822,2.4873,2.4823,2.4785,2.4805,2.4733,2.4689,2.4583,2.4481,2.354,2.2843,2.2843,2.2843,2.2843,2.2843,2.2843,2.2812,2.2795,2.2749,2.2735,2.2615,2.2615,2.2615,2.2615,2.2555,2.2509,2.2417,2.2463,2.2495,2.2603,2.2649,2.2934,2.744,2.7188,2.6736,2.6258,2.5988,2.5173,2.2362,0.0,0.0,1.844,1.7124,1.6945,1.8739,1.8565,1.8578,2.004,2.0484,2.0705,2.0881,2.126,2.172,2.2366,2.2562,2.301,2.3868,2.361,2.3818,2.4862,2.4313,2.4047,2.4564,2.5264,2.6126,2.6943,2.7024,2.7024,2.7024,2.7024,2.7024,2.7024,2.7024,2.7011,2.7146,2.7146,2.7214,2.7268,2.7268,2.7268,2.7268,2.7268,2.7113,2.6867,2.6867,2.6686,2.644,2.644,2.644,2.644,2.644,2.644,2.644,2.644,2.573,2.4897,2.4897,2.4705,2.4497,2.4489,2.4517,2.4557,2.4875,2.4951,2.5007,2.5231,2.5287,2.5287,2.5231,2.5453,2.5644,2.5618,2.5893,2.6081,2.6031,2.6002,2.585,2.5515,2.5392,2.5226,2.4907,2.4326,2.3949,2.3873,2.3873,2.3873,2.3873,2.3873,2.3887,2.3855,2.3855,2.3793,2.3731,2.3731,2.3745,2.3807,2.3712,2.3493,2.3102,2.3241,2.3146,2.2889,2.3113,2.3377,2.8324,2.7997,2.7479,2.7056,2.6797,2.5701,2.2193,2.1148,0.0,1.6859,1.6008,1.6112,1.7249,1.7733,1.8334,1.9226,1.9947,2.0577,2.084,2.1724,2.2468,2.3045,2.3404,0.0,2.5016,2.4672,0.0,2.5783,2.5542,2.531,2.5217,2.5836,2.6471,2.7079,2.7079,2.7079,2.7079,2.7079,2.7079,2.7079,2.7079,2.7214,2.7335,2.7335,2.7403,2.7523,2.7523,2.7536,2.7603,2.7536,2.7536,2.7603,2.7523,2.7523,2.7523,2.7523,2.7523,2.7523,2.7523,2.7523,2.7523,2.7523,2.6635,2.5614,2.5614,2.5524,2.5331,2.5065,2.4935,2.5001,2.5293,2.5287,2.526,2.573,2.5826,2.5728,2.5618,2.596,2.6283,2.6283,2.6669,2.7063,2.7181,2.7093,2.6865,2.6337,2.6148,2.5923,2.5442,2.5383,2.5383,2.5305,2.5009,2.48,2.4785,2.4785,2.4785,2.48,2.48,2.4785,2.4785,2.4785,2.48,2.4878,2.478,2.4471,2.3904,2.4109,2.3987,2.3507,2.3896,2.407,2.8825,2.9025,2.8779,2.8481,2.8323,2.7204,2.3354,0.0,2.107,1.7697,1.6525,1.6714,1.847,1.878,1.9083,2.0265,2.0574,2.0964,2.1765,2.2468,2.3301,2.4412,0.0,0.0,2.5779,2.6032,2.6227,2.6364,2.7043,2.6989,2.6045,2.6824,2.739,2.7469,2.7469,2.7469,2.7469,2.7469,2.7469,2.7469,2.7469,2.7469,2.7469,2.7469,2.7456,2.7523,2.7523,2.7736,0.0,2.7669,2.7736,2.8013,2.7669,2.7523,2.7523,2.7523,2.7523,2.7523,2.7523,2.7523,2.7523,2.7523,2.7105,2.6595,2.6595,2.6166,2.5874,2.635,2.6519,2.678,2.794,2.7768,2.7281,2.7213,2.7142,2.6893,2.6336,2.6283,2.6283,2.6283,2.6336,2.6563,2.7115,2.7181,2.7167,2.7093,2.7093,2.7063,2.7019,2.7004,2.7004,2.7004,2.5725,2.4878,2.4785,2.4785,2.4849,2.4878,2.4878,2.4863,2.4785,2.4785,2.4785,2.4785,2.4878,2.48,2.4595,2.4644,2.4699,2.4805,2.525,2.5122,2.8469,2.8417,2.8024,2.7747,2.757,2.659,2.3241,0.0,2.1066,1.7998,1.7163,1.7205,1.7798,1.835,1.8873,1.9271,1.9758,2.0519,2.1669,2.2687,2.3726,2.4951,2.5952,2.6705,0.0,0.0,2.7324,2.7683,2.8222,2.8287,2.763,2.7987,2.8197,2.8197,2.8197,2.8197,2.8197,2.8197,2.8197,2.8197,2.8197,2.8197,2.8197,2.8197,2.8197,2.8197,2.8197,2.8262,0.0,2.8262,2.8262,2.8406,2.8197,2.8197,2.8197,2.8197,2.8197,2.8197,2.8197,2.8197,2.8197,2.8197,2.8036,2.7784,2.7328,2.7027,2.6843,2.6731,2.6701,2.6921,2.7834,2.8453,2.8817,2.8733,2.8699,2.8575,2.8331,2.8277,2.8174,2.7777,2.7689,2.7623,2.7497,2.7386,2.7335,2.7335,2.7233,2.7181,2.7181,2.7181,2.7181,2.7181,2.6674,2.6264,2.6249,2.6249,2.6249,2.6264,2.6264,2.6264,2.6249,2.6163,2.6112,2.6112,2.6076,2.5836,2.5379,2.5379,2.5325,2.5269,2.5631,2.5819,2.8337,2.8317,2.7905,2.7689,2.7242,2.6161,0.0,0.0,2.1032,1.8262,1.7629,1.7648,1.7702,1.832,1.8868,1.9008,1.983,2.074,2.1632,2.275,2.3844,2.4667,0.0,2.7013,2.7635,2.8007,2.8481,2.8894,2.9149,2.9212,2.8908,2.8908,2.878,2.8587,2.8587,2.8587,2.8587,2.8587,2.8587,2.8587,2.8587,2.8587,2.8587,2.8587,2.8587,2.8587,2.8587,2.8651,0.0,2.8651,2.8651,2.8716,2.8651,2.8587,2.8587,2.8587,2.8587,2.8587,2.8766,2.8716,2.8651,2.8944,2.883,2.8522,2.817,2.7921,2.7776,2.7366,2.7375,2.7651,2.8052,2.9001,2.9809,2.9739,2.9699,2.9687,2.9687,2.9633,2.9445,2.8981,2.8891,2.8742,2.8248,2.8121,2.7958,2.7765,2.7683,2.7558,2.735,2.7321,2.7321,2.7321,2.7321,2.7284,2.7233,2.7181,2.7181,2.7181,2.7181,2.7181,2.7181,2.7093,2.7041,2.7041,2.6989,2.6703,2.6221,2.6221,2.6138,2.5942,2.65,2.6872,2.8919,2.9333,2.903,2.8921,2.7985,2.647,0.0,2.2609,2.1108,1.8618,1.7827,1.7864,1.8816,1.9054,1.931,2.0039,2.1284,2.2103,2.1809,2.279,2.3464,0.0,2.5124,2.6382,2.6259,2.8257,2.9651,2.9747,2.9808,0.0,2.9602,2.9602,2.9289,2.8587,2.8587,2.8587,2.8587,2.8587,2.8587,2.8587,2.8587,2.8587,2.8587,2.8587,2.8587,2.8587,2.8587,2.878,0.0,2.8716,2.878,2.9035,2.8716,2.8587,2.8587,2.8587,2.8587,2.8651,2.9121,2.9008,2.8766,2.9656,2.9359,2.8716,2.9121,2.8944,2.8587,2.8587,2.9085,2.9526,2.9359,2.9808,3.0226,3.0068,2.9873,2.9818,2.9818,2.9672,2.9579,2.9564,2.9564,2.9564,2.9564,2.9564,2.934,2.8682,2.8592,2.8353,2.7664,2.7575,2.7575,2.7575,2.7575,2.7473,2.7233,2.7181,2.7181,2.7181,2.7181,2.7181,2.7181,2.7181,2.7181,2.7181,2.7181,2.7167,2.7167,2.7167,2.7167,2.7203,2.8061,2.8466,2.6165,2.631,2.6058,2.5863,2.5447,2.4611,2.2879,2.2055,2.1161,1.9405,1.8741,1.8826,1.9893,1.9956,2.0405,2.2152,2.249,2.2729,0.0,0.0,0.0,2.5757,2.7638,2.889,0.0,0.0,2.9988,2.9974,3.0036,2.9974,2.9927,2.9927,2.9741,2.9289,2.9289,2.9338,2.9449,2.9338,2.9338,2.9449,2.9449,2.9449,2.9449,2.954,2.9602,2.9602,2.9602,2.9602,2.9574,2.9449,2.9463,2.9415,2.9289,2.9289,2.9289,2.9289,2.9289,2.9289,2.9463,2.9401,2.9415,2.9993,2.9993,2.9822,3.0297,2.956,2.8587,2.8587,2.9324,3.004,2.9964,3.0734,3.1438,3.1366,3.1328,3.1304,3.1304,3.1248,3.1112,3.0673,3.0582,3.0416,2.9947,2.9856,2.9796,2.9584,2.9554,2.9478,2.9251,2.8843,2.8571,2.8571,2.8178,2.774,2.7473,2.7473,2.7473,2.7473,2.7473,2.7473,2.7473,2.7386,2.735,2.735,2.7233,2.7181,2.7181,2.7181,2.7524,2.8091,2.8367,2.8558,2.503,2.5086,2.4807,2.4567,2.4087,0.0,2.2343,2.1618,2.0872,1.9807,1.9384,1.9531,2.066,2.0613,2.1024,2.2751,2.3421,2.3694,2.3787,0.0,0.0,2.7413,2.8523,0.0,0.0,3.0416,3.0355,3.0355,3.0294,3.0294,3.0158,3.0111,2.9988,2.9803,2.9803,2.9851,2.9898,2.9851,2.9851,2.9884,2.9884,2.9884,2.9898,3.0036,3.0111,3.0111,3.0111,3.0036,0.0,2.9884,2.9837,2.9803,2.9803,2.9803,2.9803,2.9803,2.9803,2.9789,2.9974,3.0083,3.0237,3.0896,3.1116,3.1175,3.1291,3.0343,2.9212,2.9035,2.9637,3.0343,3.0524,3.119,3.1925,3.2094,3.2094,3.2094,3.2094,3.2053,3.1875,3.145,3.1374,3.1238,3.0852,3.0776,3.0684,3.0441,3.0411,3.0304,3.0046,2.9666,2.9371,2.9371,2.8779,2.8334,2.8167,2.7891,2.774,2.7675,2.7675,2.7625,2.7625,2.7539,2.7488,2.7488,2.7372,2.7372,2.7372,2.7372,2.7674,2.8311,2.8311,2.8345,0.0,2.5216,2.489,2.4607,2.3675,2.2744,2.2313,2.1304,0.0,1.9929,1.9726,1.9998,2.1144,2.1097,2.1197,2.2355,2.4197,2.5018,0.0,2.5625,0.0,0.0,2.834,0.0,3.0896,3.0955,3.0821,3.0821,3.0702,3.0568,3.0387,3.0219,3.0172,3.0172,3.0172,3.0172,3.0111,3.0111,3.0111,3.0111,3.0111,3.0111,3.0111,3.0111,3.0111,0.0,3.0111,3.0111,0.0,3.0111,3.0111,3.0111,3.0111,3.0111,3.0111,3.0111,3.0111,3.0172,3.0582,3.0851,3.1102,3.2033,3.2492,3.2586,3.2114,3.1218,3.0251,2.9837,3.0021,3.0433,3.0911,3.1321,3.1853,3.2287,3.2287,3.2191,3.2191,3.2094,3.2053,3.2053,3.2053,3.2053,3.2053,3.2053,3.184,3.1217,3.1125,3.0882,3.0228,3.0107,3.0076,3.0076,2.9514,2.9082,2.9082,2.843,2.7955,2.784,2.779,2.774,2.7625,2.7625,2.7625,2.7625,2.7625,2.7595,2.755,2.755,2.7664,2.7908,2.7908,2.7934,2.4317,0.0,2.3415,2.3106,2.2638,2.2174,0.0,0.0,0.0,0.0,0.0,2.0472,2.162,2.1595,2.2152,2.4321,2.5439,2.5954,2.5797,2.738,0.0,3.0753,3.0687,3.0689,3.1204,3.1132,3.1014,3.1014,3.1014,3.0955,3.0895,3.0895,3.0836,3.0836,3.0836,3.0657,3.0266,3.0158,3.0158,3.0266,3.0266,3.0266,3.0266,3.0387,3.0462,3.0462,3.0462,3.0401,3.0266,3.0266,3.0219,3.0111,3.0111,3.0111,3.0111,3.0111,3.0111,3.0111,3.0233,3.028,3.0507,3.1522,3.2437,3.3065,3.2602,3.1834,3.1028,3.0555,3.0644,3.0851,3.097,3.1321,3.1853,3.2287,3.2398,3.2342,3.2342,3.2342,3.2302,3.2302,3.2302,3.2302,3.2302,3.2302,3.2241,3.2072,3.2057,3.1995,3.1881,3.1405,3.1098,3.1098,3.0462,3.0078,3.0078,2.8789,2.8005,2.7955,2.7955,2.7955,2.7905,2.7905,2.7905,2.7905,2.7905,2.7648,2.7149,2.7037,2.6946,2.6847,2.7111,2.7115,2.4349,2.3787,2.3164,2.2798,2.2527,2.2198,2.1764,0.0,0.0,0.0,0.0,2.1217,2.2161,2.2763,2.3492,2.4713,2.6268,0.0,0.0,0.0,2.9909,3.185,3.1951,3.1739,0.0,3.1409,3.1292,3.1439,3.1249,3.1176,3.1176,3.1132,3.1087,3.1087,3.1087,3.0955,3.0702,3.0522,3.0462,3.0507,3.0447,3.0447,3.0447,3.0568,3.0568,3.0568,3.0568,3.0507,3.0447,3.0447,3.0387,3.0341,3.0341,3.0341,3.0341,3.0341,3.0341,3.0341,3.0628,3.0911,3.1306,3.2114,3.2788,3.3245,3.3298,3.2895,3.2226,3.113,3.1102,3.1306,3.1306,3.1652,3.2176,3.2687,3.2796,3.2796,3.2796,3.2796,3.2796,3.2796,3.2796,3.2796,3.2796,3.2687,3.2648,3.2648,3.2523,3.2398,3.2398,3.2074,3.1844,3.1844,3.1259,3.0859,3.0859,2.9766,2.9068,2.9017,2.9017,2.8829,2.8475,2.8475,2.8323,2.802,2.7716,2.7382,2.7018,2.6605,2.6397,2.6345,2.6556,2.6583,2.4752,2.4318,2.3754,2.3253,2.291,2.2588,2.2181,0.0,0.0,0.0,0.0,2.2058,2.2885,2.3992,0.0,0.0,0.0,0.0,3.1531,3.0779,3.0736,3.2547,3.2602,0.0,3.2206,3.1838,3.1724,3.1898,3.1582,3.1409,3.1409,3.1307,3.1249,3.1249,3.1205,3.1205,3.1205,3.0955,3.0821,3.0821,3.0702,3.0702,3.0702,3.0702,3.0702,3.0702,0.0,0.0,3.0702,3.0702,3.0702,3.0702,3.0642,3.0642,3.0642,3.0628,3.0568,3.0687,3.1321,3.1936,3.2586,3.3039,3.3251,3.3423,3.3933,3.3949,3.3403,3.1819,3.1492,3.1679,3.1679,3.1977,3.2437,3.3011,3.324,3.3309,3.3309,3.3309,3.3309,3.3309,3.3309,3.3309,3.3309,3.3096,3.2951,3.2951,3.2703,3.2563,3.2563,3.2563,3.2563,3.2563,3.2052,3.1696,3.1696,3.1149,3.0772,3.0705,3.04,2.9944,2.924,2.921,2.889,2.8236,2.7567,2.7111,2.6914,2.6183,2.5885,2.5925,2.599,2.6156,2.4986,2.5194,2.5171,2.4034,2.3419,2.3017,2.2608,0.0,0.0,0.0,0.0,0.0,0.0,2.4378,2.5046,0.0,0.0,3.0994,0.0,0.0,3.3173,3.3491,0.0,3.3071,3.3033,3.2547,3.2287,3.2302,3.2038,3.1868,3.1868,3.1868,3.1883,3.1883,3.1784,3.167,3.167,3.1264,3.1073,3.1073,3.1014,3.1014,3.1014,3.1014,3.1014,3.1014,0.0,3.1014,3.1014,3.1014,3.1014,3.1014,3.0821,3.0762,3.0762,3.0642,3.0568,3.0687,3.1321,3.2185,3.3093,3.3182,3.3543,3.3984,3.4101,3.405,3.3882,3.3077,3.2321,3.1679,3.1679,3.1736,3.1921,3.2453,3.2904,3.3309,3.3309,3.3309,3.3309,3.3309,3.3309,3.3309,3.3309,3.3256,3.3256,3.3256,3.3187,3.3134,3.3134,3.3134,3.3134,3.3134,3.3093,3.3029,3.3029,3.2935,3.2835,3.2819,3.1254,3.0314,3.017,3.017,2.9848,2.9223,2.8547,2.7641,2.6488,2.5724,2.5019,2.4513,2.5092,2.5365,2.5283,2.5373,2.5424,2.5186,2.4982,2.4748,0.0,0.0,0.0,0.0,0.0,0.0,0.0,0.0,2.747,2.952,0.0,3.0489,3.2453,3.2798,3.3161,0.0,0.0,3.3662,3.3366,3.3033,3.2765,3.2547,3.2342,3.2135,3.1996,3.1996,3.1996,3.1996,3.1841,3.1841,3.1898,3.1482,3.1307,3.119,3.1132,3.1087,3.1087,3.1087,3.1087,3.1087,0.0,3.1087,3.1087,3.1087,3.1087,3.1087,3.1014,3.0955,3.0955,3.0895,3.1263,3.1792,3.1736,3.2281,3.3039,3.3339,3.3614,3.3901,3.4234,3.43,3.425,3.3951,3.3002,3.2145,3.2446,3.2296,3.2256,3.314,3.3523,3.3745,3.3745,3.3745,3.3745,3.3745,3.3745,3.3745,3.3745,3.3607,3.3503,3.3503,3.3398,3.3309,3.3309,3.3309,3.3309,3.3309,3.3309,3.3309,3.3309,3.3309,3.3309,3.3309,3.2139,3.1332,3.1161,3.0448,2.9871,2.9427,2.8396,2.7565,2.6934,2.5812,2.5319,2.5415,2.539,2.5594,2.5525,2.5505,2.5669,2.6376,2.632,0.0,0.0,0.0,0.0,0.0,0.0,0.0,0.0,2.8066,0.0,3.0497,3.0249,3.0692,3.289,3.2978,3.3313,3.4559,3.4546,3.43,3.3848,3.3575,3.3298,3.2926,3.2765,3.2523,3.2221,3.2221,3.2165,3.2094,3.194,3.194,3.2053,3.1754,3.1582,3.1467,3.1307,3.1205,3.1264,3.1205,3.119,3.119,3.119,3.119,3.119,3.119,3.119,3.119,3.1132,3.1132,3.1146,3.1234,3.1936,3.2734,3.2431,3.2703,3.3266,3.3665,3.3818,3.3869,3.4382,3.4497,3.4497,3.4497,3.3594,3.2803,3.3145,3.2949,3.2857,3.3713,3.4034,3.4151,3.4101,3.4101,3.4101,3.4101,3.4101,3.4101,3.4101,3.3949,3.3797,3.3797,3.3607,3.3503,3.3503,3.3503,3.3503,3.3503,3.3503,3.3503,3.3503,3.3503,3.3503,3.3503,3.2907,3.2321,3.1925,3.0908,3.0105,2.9596,2.8418,2.7736,2.7566,2.6326,2.5994,2.6477,2.6043,2.6109,2.5595,2.5983,2.6594,2.7399,2.6694,0.0,2.6362,2.6312,0.0,2.667,0.0,0.0,0.0,2.9772,3.0352,2.9178,3.1516,3.3434,3.3372,0.0,3.5111,3.5228,3.4994,3.4851,3.4804,3.4349,3.4,3.3797,3.3539,3.324,3.2843,3.2843,3.2718,3.2398,3.2247,3.2206,3.2191,3.2038,3.194,3.194,3.164,3.1539,3.1727,3.1539,3.1482,3.1482,3.1482,3.1482,3.1482,3.1482,3.1482,3.1482,3.1351,3.119,3.1132,3.1637,3.2226,3.2841,3.3339,3.3869,3.4382,3.4431,3.4448,3.4431,3.4497,3.4497,3.4497,3.4497,3.4036,3.3479,3.3391,3.3339,3.3339,3.3287,3.3799,3.425,3.4151,3.4101,3.4101,3.4101,3.4101,3.4101,3.4101,3.4101,3.405,3.405,3.405,3.405,3.405,3.405,3.405,3.405,3.405,3.405,3.405,3.405,3.405,3.405,3.3559,3.2929,3.223,3.2104,3.1426,3.0101,2.9328,2.8697,2.805,2.7336,2.6793,2.643,2.6755,2.6713,2.5609,2.611,2.6832,2.7683,2.7845,0.0,0.0,2.8326,2.8212,2.8333,2.871,0.0,0.0,0.0,3.1531,3.0103,3.2235,3.3922,3.3639,3.4735,3.5594,3.5503,3.5274,3.5088,3.4899,3.4643,3.4349,3.405,3.3848,3.3607,3.3309,3.3203,3.3081,3.2958,3.2617,3.2523,3.2609,3.2221,3.2094,3.2247,3.1981,3.1826,3.194,3.1826,3.1826,3.1826,3.1712,3.167,3.167,3.1539,3.1482,3.1482,3.1409,3.1838,3.2351,3.1823,3.2477,3.3594,3.3407,3.3732,3.43,3.4643,3.4756,3.4756,3.4756,3.4756,3.4756,3.4756,3.4529,3.4251,3.4102,3.3818,3.3598,3.3935,3.4218,3.4399,3.4349,3.4349,3.4349,3.4349,3.43,3.425,3.425,3.4151,3.4101,3.4101,3.4101,3.4101,3.4101,3.4101,3.4101,3.4101,3.4101,3.4101,3.4101,3.4101,3.4101,3.4101,3.3899,3.3374,3.2469,3.2024,3.1275,3.0133,2.9422,2.8995,2.8742,2.8047,2.7886,2.8119,2.7876,2.7661,2.5976,2.6343,2.7003,2.8098,0.0,0.0,2.963,2.9869,2.9942,3.002,3.0338,3.0622,3.0604,0.0,0.0,0.0,3.2746,3.4237,3.3985,3.5103,3.5888,3.5783,3.5532,3.5274,3.5041,3.4899,3.4691,3.43,3.4201,3.4,3.3658,3.3555,3.345,3.3293,3.2904,3.2757,3.2897,3.2388,3.2247,3.2398,3.2191,3.2094,3.2038,3.2053,3.1996,3.1996,3.1898,3.1841,3.1799,3.167,3.1539,3.1524,3.1697,3.216,3.2625,3.2437,3.298,3.3815,3.3732,3.4002,3.4399,3.4804,3.4899,3.4899,3.4899,3.4804,3.4691,3.4851,3.4691,3.4546,3.4594,3.4317,3.4036,3.4431,3.4546,3.4546,3.4497,3.4497,3.4497,3.4497,3.4448,3.4349,3.4349,3.43,3.425,3.425,3.425,3.425,3.425,3.425,3.4201,3.4151,3.4201,3.4201,3.4101,3.4151,3.4151,3.4101,3.4101,3.358,3.2449,3.1951,3.1198,3.0051,2.9589,2.935,2.935,2.8873,2.8898,2.936,2.8903,2.8498,2.6793,2.6796,2.7184,0.0,0.0,0.0,2.9762,3.0614,3.1242,3.1691,3.2115,3.232,3.1975,3.1787,0.0,3.1258,3.3125,3.4581,3.4504,3.5538,3.6241,3.6097,3.5827,3.5549,3.5337,3.5198,3.4994,3.4739,3.4691,3.4448,3.3949,3.3899,3.3694,3.3309,3.3058,3.2912,3.2912,3.2578,3.2398,3.2398,3.2398,3.2342,3.2191,3.2038,3.1981,3.1981,3.1996,3.1955,3.1784,3.1799,3.167,3.1582,3.2176,3.2064,3.1754,3.3455,3.3697,3.3407,3.4513,3.4899,3.4899,3.4899,3.4899,3.4899,3.4899,3.4546,3.4201,3.4739,3.4497,3.425,3.4739,3.4804,3.4643,3.4546,3.4594,3.4643,3.4546,3.4497,3.4497,3.4497,3.4497,3.4497,3.4497,3.4497,3.4497,3.4497,3.4497,3.4497,3.4497,3.4497,3.4448,3.43,3.4399,3.4399,3.4151,3.425,3.425,3.4101,3.4101,3.3469,3.206,3.2012,3.1332,2.9935,2.9918,2.9918,2.9918,2.9918,2.9828,2.9694,2.9694,2.9262,2.5133,2.62,0.0,2.8203,0.0,0.0,0.0,3.0758,0.0,0.0,3.3221,3.3316,3.2374,3.2586,0.0,3.1653,3.2976,3.4235,3.4638,3.5437,3.608,3.6333,3.6216,3.5958,3.5532,3.5396,3.5211,3.4994,3.4899,3.4739,3.4497,3.4349,3.425,3.4,3.3745,3.3555,3.345,3.2989,3.2773,3.2773,3.2523,3.2398,3.2342,3.2287,3.2302,3.2302,3.2191,3.215,3.2094,3.1996,3.2135,3.2422,3.2586,3.3039,3.3547,3.3563,3.3986,3.4513,3.4382,3.4594,3.4899,3.4899,3.4899,3.4899,3.4899,3.4804,3.4707,3.4851,3.4804,3.4691,3.4851,3.4899,3.4851,3.4787,3.4787,3.4851,3.4804,3.4804,3.4804,3.4804,3.4707,3.4643,3.4643,3.4546,3.4497,3.4497,3.4497,3.4497,3.4497,3.4497,3.4497,3.4448,3.4497,3.4448,3.4399,3.4399,3.4448,3.4399,3.4399,3.3665,3.2077,3.2012,3.1332,2.9935,2.9918,2.9902,2.9989,2.9989,3.0227,3.0667,3.0667,3.0483,2.6165,2.7285,0.0,2.8889,2.9389,3.0085,3.1152,0.0,0.0,0.0,3.3985,3.3876,3.3093,3.3286,0.0,3.2457,3.3602,3.4702,3.4995,3.5844,3.652,3.6701,3.6527,3.6216,3.5827,3.5605,3.5424,3.5211,3.5135,3.4994,3.4804,3.4691,3.4546,3.43,3.405,3.3848,3.3694,3.3256,3.3005,3.2897,3.2703,3.2523,3.2398,3.2398,3.2398,3.2398,3.2247,3.2191,3.2191,3.2053,3.2302,3.2841,3.3039,3.3495,3.4119,3.4119,3.4448,3.4818,3.4643,3.4739,3.4994,3.4994,3.4804,3.4594,3.4851,3.4626,3.4415,3.4835,3.4835,3.4771,3.4994,3.5041,3.5041,3.4947,3.4899,3.4899,3.4899,3.4899,3.4899,3.4899,3.4851,3.4804,3.4804,3.4691,3.4643,3.4643,3.4643,3.4643,3.4643,3.4643,3.4643,3.4594,3.4643,3.4611,3.4497,3.4546,3.4546,3.4497,3.4497,3.3941,3.2592,3.2283,3.1599,3.0489,3.0179,3.0033,3.006,3.006,3.041,3.1123,3.1123,3.1001,2.8428,2.906,2.948,3.0203,2.9849,0.0,3.2359,3.2619,3.2826,3.4452,0.0,3.4074,3.3921,3.3842,3.3698,3.3452,3.4661,3.558,3.5426,3.6506,3.7266,3.7129,3.6771,3.6444,3.6139,3.5827,3.5577,3.5424,3.5367,3.5198,3.4947,3.4899,3.4739,3.4349,3.4101,3.3899,3.3761,3.3503,3.3203,3.2951,3.2951,3.2757,3.2453,3.2398,3.2398,3.2398,3.2287,3.2247,3.2302,3.2135,3.2437,3.3039,3.3547,3.3735,3.3903,3.4913,3.4977,3.4593,3.5135,3.5198,3.5105,3.5171,3.479,3.4398,3.4969,3.4496,3.4011,3.5033,3.5017,3.4791,3.5335,3.5442,3.5345,3.5094,3.4996,3.4947,3.4947,3.4947,3.4947,3.4947,3.4947,3.4947,3.4947,3.4947,3.4947,3.4899,3.4899,3.4899,3.4899,3.4899,3.4851,3.4739,3.4851,3.4804,3.4546,3.4643,3.4643,3.4546,3.4546,3.425,3.3578,3.2842,3.2138,3.1401,3.0664,3.0287,3.0346,3.0264,3.051,3.1083,3.1123,3.1093,2.5308,2.7225,0.0,2.9503,2.9888,3.0703,3.2555,3.2787,3.3042,3.4491,3.4464,3.4148,3.3998,3.386,3.3671,3.3577,3.4268,3.4997,3.5436,3.6217,3.688,3.7226,3.7066,3.6788,3.6444,3.6208,3.5949,3.5577,3.5532,3.5412,3.5088,3.5041,3.4899,3.4643,3.4546,3.4399,3.4151,3.3899,3.371,3.3555,3.3293,3.3043,3.2773,3.2523,3.2398,3.2398,3.2342,3.2602,3.2986,3.2933,3.3511,3.4366,3.4512,3.4816,3.5161,3.5383,3.5383,3.5274,3.5291,3.5291,3.5345,3.5944,3.6033,3.6037,3.6734,3.6787,3.6671,3.6901,3.6901,3.6836,3.7015,3.658,3.6128,3.6081,3.5663,3.5198,3.5198,3.5198,3.5198,3.5198,3.5198,3.5198,3.5198,3.5198,3.5198,3.5088,3.4947,3.4899,3.4899,3.4899,3.4899,3.4851,3.4899,3.4899,3.4804,3.4851,3.4835,3.4804,3.4787,3.4721,3.4556,3.3658,3.2859,3.2154,3.1434,3.1101,3.1232,3.0655,3.0568,3.1038,3.1274,3.1493,2.5671,0.0,0.0,2.9766,0.0,3.103,3.2675,3.2928,3.3212,3.4721,3.4615,3.4184,3.4049,3.3868,3.3726,3.3643,3.424,3.4891,3.5465,3.6191,3.6896,3.7377,3.7279,3.7087,3.6788,3.6502,3.6208,3.5905,3.5773,3.5577,3.5367,3.5228,3.5088,3.4787,3.4739,3.4546,3.43,3.4151,3.3949,3.3694,3.3555,3.3346,3.3112,3.2633,3.2398,3.2382,3.2695,3.3137,3.3725,3.3639,3.428,3.533,3.4965,3.5131,3.5577,3.5549,3.5566,3.5566,3.5458,3.5648,3.5971,3.6357,3.6501,3.6638,3.7318,3.7352,3.722,3.7517,3.7648,3.7696,3.7696,3.741,3.7107,3.7107,3.6189,3.5291,3.5291,3.5291,3.5291,3.5291,3.5291,3.5291,3.5291,3.5291,3.5291,3.5198,3.5152,3.5088,3.5088,3.5088,3.5041,3.4994,3.5041,3.5041,3.4994,3.4994,3.4994,3.5105,3.4994,3.4947,3.4994,3.4424,3.3785,3.3077,3.2335,3.2001,3.2045,3.1318,3.1166,3.1537,3.1521,3.1617,2.6712,0.0,2.8903,3.0341,3.069,0.0,3.2542,3.2899,3.3307,3.4759,3.4699,3.4357,3.4179,3.4005,3.3902,3.3815,3.4403,3.5053,3.5589,3.6305,3.7016,3.756,3.7503,3.7317,3.7048,3.6748,3.6461,3.6268,3.5993,3.5773,3.5622,3.5412,3.5198,3.4947,3.4851,3.4643,3.4349,3.4349,3.4201,3.3797,3.3797,3.371,3.345,3.298,3.2695,3.2641,3.3198,3.383,3.443,3.4392,3.4988,3.5856,3.5262,3.5185,3.5379,3.5333,3.5463,3.5672,3.5564,3.6068,3.6835,3.6858,3.6986,3.7184,3.7753,3.7703,3.7452,3.8001,3.8181,3.8278,3.8278,3.8193,3.8091,3.8091,3.6801,3.5585,3.5585,3.5438,3.5337,3.5337,3.5337,3.5337,3.5337,3.5337,3.5337,3.5337,3.5291,3.5291,3.5291,3.5291,3.5245,3.5152,3.5245,3.5245,3.5135,3.5135,3.5198,3.5291,3.5088,3.4994,3.5152,3.5041,3.4695,3.408,3.3305,3.2878,3.2878,3.2166,3.1907,3.2075,3.1827,3.1774,2.5122,0.0,3.0399,0.0,3.0661,3.0845,0.0,0.0,3.3185,0.0,3.4482,3.4794,3.4632,3.4529,3.4442,3.4242,3.4722,3.5331,3.5889,3.6449,3.6998,3.7614,3.7522,3.7354,3.7259,3.6908,3.6602,3.6461,3.6148,3.5844,3.5622,3.552,3.5337,3.5088,3.5058,3.4899,3.4643,3.4643,3.4497,3.4201,3.4201,3.4201,3.4151,3.4119,3.3953,3.363,3.4053,3.4545,3.5124,3.5735,3.578,3.5518,3.5802,3.5396,3.4626,3.435,3.4939,3.5842,3.5282,3.6241,3.7759,3.7886,3.8271,3.8856,3.953,3.9716,3.9665,3.9783,3.9783,3.9783,3.9783,3.9326,3.8853,3.8853,3.7719,3.6591,3.6591,3.605,3.5577,3.5577,3.5577,3.5577,3.5577,3.552,3.5492,3.5492,3.5383,3.5291,3.5291,3.5291,3.5291,3.5291,3.5291,3.5291,3.5291,3.5291,3.5291,3.5291,3.5245,3.5245,3.5291,3.5245,3.5195,3.5094,3.416,3.364,3.364,3.2895,3.239,3.2092,3.2298,3.22,2.455,2.7948,3.0695,0.0,3.0642,3.0806,3.1623,3.2411,3.3203,3.3968,3.4687,3.5086,3.4812,3.4674,3.4551,3.4423,3.4582,3.4999,3.5915,3.6298,3.6808,3.7684,3.7739,3.7577,3.7372,3.7066,3.6806,3.6643,3.6293,3.6036,3.5844,3.5639,3.5475,3.5198,3.5152,3.4994,3.4691,3.4691,3.4546,3.43,3.4546,3.4594,3.4546,3.4958,3.4783,3.4153,3.464,3.5221,3.5874,3.6506,3.6847,3.6966,3.7229,3.6908,3.6222,3.6254,3.6567,3.6851,3.6688,3.75,3.8631,3.8606,3.9042,3.9665,3.9986,4.007,4.007,4.007,4.007,4.007,4.007,3.9834,3.9495,3.9089,3.8193,3.7297,3.6874,3.6163,3.5622,3.5622,3.5622,3.5622,3.5622,3.5594,3.5549,3.5549,3.5503,3.5458,3.5458,3.5458,3.5458,3.5446,3.5475,3.5458,3.5446,3.54,3.5429,3.5458,3.5383,3.5337,3.54,3.5337,3.5291,3.5291,3.4772,3.4559,3.4651,3.381,3.3439,3.3448,3.2992,3.2755,0.0,0.0,2.9718,2.995,3.0134,3.0471,0.0,0.0,3.2918,0.0,3.4545,3.5051,3.498,3.487,3.4754,3.4694,3.4529,3.4867,3.6167,3.6316,3.6728,3.7923,3.8002,3.7845,3.7485,3.7241,3.6987,3.6806,3.6478,3.6208,3.6079,3.58,3.5594,3.5383,3.5245,3.5088,3.4787,3.4818,3.4771,3.4578,3.5038,3.5131,3.4944,3.5677,3.5509,3.464,3.522,3.5768,3.6371,3.6973,3.749,3.7894,3.8069,3.7838,3.7466,3.7694,3.7795,3.7849,3.7834,3.8601,3.9472,3.9259,3.9631,4.0188,4.0188,4.0138,4.0121,4.0138,4.007,4.007,4.007,4.007,3.9884,3.9174,3.8447,3.7652,3.6688,3.6028,3.5622,3.5622,3.5622,3.5622,3.5622,3.5622,3.5622,3.5622,3.5622,3.5622,3.5622,3.5622,3.5594,3.552,3.5594,3.5594,3.552,3.552,3.5566,3.5577,3.5458,3.5429,3.552,3.5429,3.5383,3.5383,3.5245,3.5245,3.5291,3.4631,3.4471,3.467,3.3933,3.3572,0.0,2.4782,0.0,2.7923,2.8762,2.9588,0.0,0.0,3.2,3.2807,3.3615,3.4414,3.5211,3.5324,3.5229,3.5164,3.4889,3.5237,3.6802,3.6789,3.7063,3.8308,3.8378,3.8114,3.7721,3.7429,3.7182,3.6987,3.665,3.6419,3.6208,3.5949,3.5728,3.5577,3.552,3.5337,3.5088,3.527,3.5391,3.5328,3.5994,3.602,3.5504,3.6301,3.6105,3.5224,3.5941,3.6276,3.6362,3.7163,3.7298,3.699,3.7466,3.7433,3.712,3.6868,3.7518,3.8455,3.7892,3.8907,4.0319,3.9766,4.0003,4.0485,4.0355,4.0305,4.0238,4.0138,4.007,4.007,4.007,4.007,3.9884,3.9174,3.8447,3.7499,3.6011,3.5639,3.5622,3.5622,3.5622,3.5622,3.5622,3.5622,3.5622,3.5622,3.5622,3.5622,3.5622,3.5622,3.5622,3.5577,3.5577,3.5622,3.5577,3.5577,3.5577,3.5622,3.5577,3.5577,3.5577,3.5577,3.5577,3.5577,3.552,3.5446,3.5291,3.5258,3.5243,3.5267,3.518,3.4769,0.0,0.0,0.0,2.6944,2.7814,2.8689,2.9492,3.0732,3.1788,3.2062,3.3186,3.4203,3.452,3.496,3.5277,3.5212,3.5073,3.5248,3.6155,3.6597,3.7073,3.7716,3.8081,3.8165,3.7881,3.7521,3.7259,3.7182,3.6829,3.6561,3.6419,3.6122,3.5844,3.5622,3.552,3.5383,3.5088,3.5165,3.5102,3.4961,3.547,3.556,3.527,3.6088,3.6045,3.5362,3.6191,3.6318,3.6053,3.7059,3.743,3.7401,3.8511,3.8707,3.8435,3.9056,3.9428,3.9665,3.9531,3.9966,4.0583,4.0271,4.0303,4.0485,4.0436,4.0436,4.0436,4.0387,4.0387,4.0337,4.0238,3.9931,3.9316,3.798,3.7022,3.6282,3.574,3.5622,3.5622,3.5622,3.5622,3.5622,3.5622,3.5622,3.5622,3.5622,3.5622,3.5622,3.5622,3.5622,3.5622,3.5622,3.5622,3.5622,3.5622,3.5622,3.5622,3.5622,3.5622,3.5622,3.5622,3.5622,3.5622,3.5622,3.5594,3.5549,3.5503,3.5429,3.5548,3.5761,3.5595,3.5197,2.1852,0.0,0.0,0.0,2.6087,2.7089,2.8469,2.9663,3.0693,3.1534,3.2519,3.3426,3.4007,3.4523,3.4936,3.5152,3.5126,3.5286,3.5888,3.6427,3.6864,3.7229,3.7837,3.8126,3.7805,3.7648,3.7559,3.7429,3.7027,0.0,3.6753,3.6318,3.6019,3.5854,3.5639,3.5503,3.5441,3.535,3.5258,3.5055,3.5588,3.5694,3.547,3.6284,3.6241,3.5633,3.6444,3.6402,3.5861,3.6741,3.7249,3.7611,3.8836,3.9336,3.9409,4.0405,4.0631,4.0485,4.0583,4.068,4.0745,4.068,4.0631,4.0631,4.0583,4.0583,4.0534,4.0534,4.0297,4.0109,3.998,3.9231,3.8227,3.716,3.6254,3.5622,3.5622,3.5622,3.5622,3.5622,3.5622,3.5622,3.5622,3.5622,3.5622,3.5622,3.5622,3.5622,3.5622,3.5622,3.5622,3.5622,3.5622,3.5622,3.5622,3.5622,3.5622,3.5622,3.5622,3.5622,3.5622,3.5622,3.5622,3.5622,3.5622,3.5622,3.5622,3.5549,3.5728,3.6088,3.6098,3.5788,0.0,0.0,0.0,0.0,0.0,0.0,2.7341,0.0,2.8689,3.1107,3.1616,3.21,3.3743,3.4029,3.4254,3.5076,3.5126,3.5378,3.6158,3.6217,3.64,3.6892,3.7609,3.7914,3.7521,3.7898,3.8029,3.7721,3.7299,3.7069,3.7226,3.6591,3.6276,3.6416,3.5898,3.5766,3.6097,3.5941,3.581,3.581,3.6539,3.662,3.6139,3.6913,3.6776,3.595,3.6713,3.655,3.5854,3.6174,3.6749,3.7525,3.8284,3.9026,3.9767,4.0578,4.0888,4.0888,4.0888,4.0888,4.0888,4.0888,4.0888,4.0888,4.0745,4.0697,4.0697,4.05,3.9987,3.9375,3.9197,3.7967,3.6818,3.6888,3.6237,3.5622,3.5622,3.5622,3.5622,3.5622,3.5622,3.5622,3.5622,3.5622,3.5622,3.5622,3.5622,3.5622,3.5622,3.5622,3.5622,3.5622,3.5622,3.5622,3.5622,3.5622,3.5622,3.5622,3.5622,3.5622,3.5622,3.5622,3.5622,3.5622,3.5622,3.5622,3.5622,3.5622,3.5827,3.6301,3.6666,3.6469,1.9895,0.0,0.0,0.0,0.0,0.0,0.0,0.0,2.8189,2.9365,3.0674,3.1908,3.2905,3.3582,3.4257,3.5011,3.511,3.5151,3.5324,3.5837,3.6132,3.6007,3.664,3.7143,3.7338,3.7374,3.7644,0.0,3.7861,3.7667,3.7685,3.7248,3.6943,3.6825,3.6666,3.6586,3.6545,3.6481,3.6399,3.6232,3.644,3.6399,3.619,3.6741,3.6678,3.6097,3.6873,3.6834,3.6266,3.6485,3.6624,3.6749,3.8077,3.8715,3.906,4.0388,4.0888,4.0888,4.0888,4.0888,4.0888,4.0888,4.0888,4.0871,4.084,4.084,4.072,4.0087,3.9778,3.9365,3.827,3.749,3.6894,3.6481,3.6146,3.5888,3.5888,3.58,3.5728,3.5622,3.5622,3.5622,3.5622,3.5622,3.5622,3.5622,3.5622,3.5622,3.5622,3.5622,3.5622,3.5622,3.5622,3.5622,3.5622,3.5622,3.5622,3.5622,3.5622,3.5622,3.5622,3.5622,3.5622,3.5622,3.5622,3.5622,3.5622,3.5622,3.5667,3.5793,3.5352,3.5368,0.0,0.0,0.0,0.0,0.0,0.0,2.4463,2.5803,2.7094,0.0,3.0117,3.11,3.1876,3.2716,3.3519,3.4263,3.4699,3.4946,3.5001,3.5363,3.5526,3.5293,3.5895,3.6379,3.6565,3.7051,3.7539,3.7992,3.7983,3.7911,3.779,3.7703,3.756,3.7414,3.721,3.7135,3.7114,3.6865,3.6689,3.6545,3.6643,3.6661,3.658,3.6995,3.7034,3.6759,3.7223,3.7185,3.6776,3.6908,3.6748,3.6582,3.7793,3.8407,3.8732,3.9939,4.0595,4.0888,4.0888,4.0888,4.0888,4.0888,4.0888,4.0888,4.0888,4.0888,4.0716,3.9922,3.9204,3.8446,3.7301,3.6818,3.6583,3.6285,3.6122,3.6019,3.6019,3.5932,3.5844,3.5711,3.5667,3.5667,3.5622,3.5667,3.5667,3.5622,3.5622,3.5622,3.5622,3.5622,3.5622,3.5622,3.5622,3.5622,3.5622,3.5622,3.5622,3.5622,3.5622,3.5622,3.5622,3.5622,3.5622,3.5622,3.5622,3.5622,3.5622,3.5622,3.5783,3.6105,3.5035,3.496,0.0,0.0,0.0,0.0,0.0,0.0,2.3588,2.4423,2.545,0.0,2.9292,2.9635,3.0561,3.1336,3.2052,3.2822,3.3763,3.4502,3.4889,3.4849,3.4768,3.4768,3.5286,3.5623,3.56,3.6731,3.7461,3.7403,3.7825,3.7959,3.7755,3.8016,3.8135,3.8052,3.7667,3.756,3.7774,3.7248,3.6946,3.6865,3.7111,3.7206,3.7185,3.7503,3.7613,3.7631,3.7631,3.7503,3.7334,3.7334,3.7122,3.6812,3.7561,3.8183,3.877,3.9468,4.0245,4.0918,4.0935,4.0888,4.0888,4.0888,4.0888,4.0888,4.0888,4.0819,4.056,3.9698,3.8377,3.7033,3.6431,3.6191,3.6062,3.6165,3.6122,3.6019,3.6019,3.6019,3.5993,3.5861,3.5817,3.5756,3.5667,3.5756,3.5773,3.5667,3.5667,3.5622,3.5622,3.5622,3.5622,3.5622,3.5622,3.5667,3.5667,3.5622,3.5622,3.5622,3.5622,3.5622,3.5622,3.5622,3.5622,3.5622,3.5622,3.5622,3.5622,3.5622,3.6054,3.6865,3.5265,3.496,0.0,0.0,0.0,0.0,0.0,0.0,2.0889,2.1801,2.2943,0.0,2.5837,2.6859,2.8258,2.8649,2.904,2.9956,3.1374,3.2916,3.4459,3.4666,3.4602,3.4495,3.4581,3.4909,3.5454,3.5757,3.6196,3.6819,3.7479,3.8074,3.8535,3.8634,3.8572,3.8415,3.8314,3.8267,3.8252,3.815,3.7998,3.7826,3.7879,3.7845,3.7739,3.7721,3.7721,3.7828,3.7667,3.7613,3.7613,3.7577,3.7279,3.7018,3.7732,3.852,3.9223,3.9834,4.0492,4.1117,4.0965,4.0888,4.0888,4.0888,4.0888,4.0888,4.0888,4.044,3.9646,3.8301,3.7249,3.6448,3.6335,3.6259,3.6259,3.6259,3.6259,3.6259,3.6259,3.6191,3.6165,3.614,3.6036,3.5932,3.5932,3.5932,3.5932,3.5932,3.5932,3.5888,3.5773,3.5861,3.5888,3.5773,3.5861,3.5932,3.5932,3.58,3.5773,3.5773,3.5667,3.5622,3.5622,3.5622,3.5622,3.5622,3.5622,3.5622,3.5622,3.5622,3.6054,3.6865,3.5265,3.496,0.0,0.0,0.0,1.7743,0.0,0.0,0.0,2.0971,2.2027,2.3948,2.488,2.5682,2.6814,2.7383,2.7827,2.829,3.0185,3.1903,3.2831,3.3771,3.4381,3.4293,3.4245,3.434,3.4735,3.5187,3.5806,3.663,3.7367,3.7933,3.8282,3.8659,3.8773,3.8634,3.8652,3.859,3.8446,3.8446,3.8382,3.8252,3.8135,3.8068,3.8002,3.7863,3.7846,3.7899,3.7775,3.7721,3.7703,3.7667,3.7503,3.7332,3.7606,3.835,3.9315,3.9573,4.0429,4.1408,4.1272,4.1152,4.1041,4.1041,4.0689,4.0284,4.0284,3.9491,3.8439,3.7698,3.6904,3.6301,3.6301,3.6301,3.6301,3.6301,3.6301,3.6301,3.6301,3.6259,3.6233,3.6233,3.6191,3.6148,3.6019,3.6079,3.6079,3.6019,3.6019,3.5975,3.5905,3.5975,3.5975,3.5905,3.5975,3.6019,3.6019,3.5932,3.5905,3.5905,3.5844,3.58,3.58,3.58,3.58,3.58,3.5711,3.5711,3.58,3.5667,3.6054,3.6865,3.5265,3.496,0.0,0.0,0.0,0.0,0.0,1.7838,0.0,0.0,0.0,2.3407,2.4075,2.4482,2.5249,0.0,0.0,2.6573,0.0,0.0,0.0,3.1875,0.0,3.4074,3.4074,3.3998,3.3998,3.4703,3.5539,3.6389,3.7023,3.7488,3.7776,3.8376,3.8744,3.8822,3.8822,3.8713,3.8572,3.8541,3.851,3.8415,3.8234,3.8168,3.8119,3.8002,3.7934,3.7952,3.7899,3.7846,3.7774,3.7739,3.7685,3.7613,3.7447,3.8125,3.9236,3.9335,4.0225,4.1438,4.1552,4.1453,4.1237,4.1035,4.0279,3.9457,3.9319,3.8439,3.7456,3.7301,3.6801,3.6301,3.6301,3.6301,3.6301,3.6301,3.6301,3.6301,3.6301,3.6301,3.6301,3.6301,3.6301,3.6259,3.6105,3.6165,3.6165,3.6062,3.6062,3.6062,3.6019,3.6062,3.6062,3.6019,3.6062,3.6062,3.6062,3.6062,3.6019,3.6019,3.6019,3.6019,3.6019,3.6019,3.6019,3.6019,3.5888,3.5905,3.6019,3.58,3.6097,3.6943,3.5265,3.4995,0.0,0.0,0.0,0.0,1.5628,0.0,0.0,0.0,1.8551,2.0489,0.0,2.1545,0.0,0.0,0.0,0.0,0.0,0.0,2.6336,2.7929,3.0283,3.3622,3.3998,3.3998,3.3998,3.4166,3.4624,3.5572,3.5702,3.6356,3.7748,3.7868,3.8229,3.8873,3.8822,3.8792,3.8762,3.8719,3.8609,3.851,3.8478,3.8382,3.8256,3.8119,3.8104,3.8158,3.7969,3.7916,3.7949,3.7881,3.781,3.7667,3.7613,3.8093,3.8907,3.9368,4.0123,4.0972,4.1464,4.1604,4.1393,4.0515,3.9562,3.8594,3.7939,3.7611,3.7335,3.6628,3.637,3.6301,3.6301,3.6301,3.6301,3.6301,3.6301,3.6301,3.6301,3.6301,3.6301,3.6301,3.6301,3.6301,3.6259,3.6259,3.6301,3.6259,3.6259,3.6216,3.6165,3.6233,3.6233,3.6165,3.6233,3.6259,3.6259,3.6191,3.6182,3.6182,3.6079,3.6019,3.6019,3.6019,3.6019,3.6019,3.5975,3.5975,3.6019,3.5975,3.6392,3.7099,3.5322,3.5029,0.0,0.0,0.0,0.0,0.0,0.0,1.6301,0.0,1.7399,0.0,0.0,0.0,0.0,0.0,0.0,0.0,2.4066,0.0,0.0,0.0,2.8838,0.0,0.0,0.0,3.2955,3.367,3.4222,3.4668,3.5175,3.5795,3.643,3.7339,3.7979,3.8247,3.8699,3.8881,3.8792,3.8762,3.8701,3.8609,3.8541,3.8478,3.8401,3.8271,3.8223,3.8241,3.8124,3.8054,3.7984,3.7967,3.7916,3.781,3.7685,3.8113,3.8806,3.905,3.9939,4.093,4.0707,4.0848,4.0898,3.9396,3.8503,3.7862,3.723,3.6945,3.6732,3.6404,3.6301,3.6301,3.6301,3.6301,3.6301,3.6301,3.6301,3.6301,3.6301,3.6301,3.6301,3.6301,3.6301,3.6301,3.6301,3.6301,3.6301,3.6301,3.6301,3.6301,3.6276,3.6259,3.6301,3.6276,3.6259,3.6301,3.6301,3.6259,3.6276,3.6276,3.6191,3.6174,3.6174,3.6174,3.6174,3.6174,3.6165,3.6165,3.6174,3.6062,3.635,3.7002,3.5414,3.5047,1.2867,0.0,0.0,0.0,0.0,0.0,0.0,0.0,0.0,0.0,0.0,0.0,0.0,0.0,0.0,0.0,0.0,2.3847,0.0,2.5555,0.0,0.0,0.0,0.0,0.0,3.2808,3.3589,3.3666,3.4568,3.5237,3.5454,3.6593,3.7421,3.7831,3.8377,3.8728,3.8822,3.8822,3.878,3.8707,3.8609,3.8559,3.851,3.8401,3.8322,3.8307,3.8241,3.8156,3.8036,3.8036,3.8002,3.7916,3.7828,3.8079,3.8524,3.8736,3.9521,4.0414,4.0039,4.0006,3.9969,3.8659,3.7784,3.7205,3.6899,3.6626,3.6402,3.6402,3.6402,3.6402,3.6301,3.6301,3.6301,3.6301,3.6301,3.6301,3.6301,3.6301,3.6301,3.6301,3.6301,3.6301,3.6301,3.6301,3.6301,3.6301,3.6301,3.6301,3.6301,3.6301,3.6301,3.6301,3.6301,3.6301,3.6301,3.6301,3.6301,3.6301,3.6301,3.6301,3.6301,3.6301,3.6301,3.6301,3.6233,3.6233,3.6301,3.6131,3.6284,3.6706,3.5414,3.5047,0.0,0.0,0.0,1.4502,0.0,0.0,0.0,0.0,1.6022,0.0,0.0,0.0,0.0,0.0,0.0,0.0,0.0,0.0,0.0,0.0,0.0,0.0,0.0,0.0,0.0,3.1374,3.2464,0.0,3.3605,3.4581,3.5366,3.5509,3.6278,3.7856,3.7849,3.8173,3.8892,3.8851,3.878,3.8707,3.8707,3.8609,3.851,3.851,3.8433,3.8307,3.8307,3.8241,3.8192,3.8192,3.8122,3.7984,3.7984,3.7898,3.7811,3.8542,3.8843,3.8986,3.9664,3.9334,3.8536,3.85,3.7694,3.676,3.6926,3.6846,3.6702,3.6702,3.6702,3.6643,3.636,3.6301,3.6301,3.6301,3.6301,3.6301,3.6301,3.6301,3.6301,3.6301,3.6301,3.6301,3.6301,3.6301,3.6301,3.6301,3.6301,3.6301,3.6301,3.6301,3.6301,3.6301,3.6301,3.6301,3.6301,3.6301,3.6301,3.6301,3.6301,3.6301,3.6301,3.6301,3.6301,3.6301,3.6301,3.6301,3.6301,3.6301,3.6301,3.6291,3.5265,3.5116,0.0,0.0,1.6323,1.4562,0.0,0.0,0.0,0.0,0.0,0.0,0.0,0.0,0.0,0.0,0.0,0.0,0.0,0.0,0.0,0.0,0.0,0.0,0.0,0.0,0.0,0.0,0.0,0.0,3.3493,0.0,3.4525,3.5157,3.5739,3.6278,3.6809,3.7423,3.8155,3.8116,3.8306,3.878,3.8719,3.8676,3.8609,3.8541,3.8478,3.8433,3.8322,3.8274,3.8274,3.8225,3.8174,3.8122,3.8036,3.7949,3.7916,3.8026,3.8363,3.8843,3.9093,3.8513,3.7742,3.7838,3.7432,3.6965,3.7143,3.7066,3.6908,3.6908,3.6908,3.6829,3.6626,3.6544,3.6502,3.6343,3.6301,3.6301,3.6301,3.6301,3.6301,3.6301,3.6301,3.6301,3.6301,3.6301,3.6301,3.6301,3.6301,3.6301,3.6301,3.6301,3.6301,3.6301,3.6301,3.6301,3.6301,3.6301,3.6301,3.6301,3.6301,3.6301,3.6301,3.6301,3.6301,3.6301,3.6301,3.6301,3.6301,3.6301,3.6451,3.6684,3.6072,3.5633,1.6859,1.7456,0.0,1.5886,1.6015,0.0,1.538,0.0,0.0,0.0,0.0,0.0,0.0,0.0,0.0,0.0,0.0,0.0,0.0,2.1582,0.0,0.0,0.0,0.0,0.0,0.0,3.0704,3.2202,3.3081,3.3684,0.0,3.4643,3.5157,3.5479,3.5999,3.6642,3.735,3.759,3.794,3.8368,3.8591,3.8707,3.8707,3.8609,3.8559,3.8491,3.8368,3.8322,3.8307,3.8225,3.8192,3.8192,3.8088,3.8036,3.7984,3.7774,3.7989,3.838,3.838,3.7948,3.7447,3.7558,3.7372,3.7143,3.7334,3.7259,3.7158,3.7439,3.7316,3.7119,3.7161,3.6934,3.6661,3.6485,3.636,3.6301,3.6301,3.6301,3.6301,3.6301,3.6301,3.6301,3.6301,3.6301,3.6301,3.6301,3.6301,3.6301,3.6301,3.6301,3.6301,3.6301,3.6301,3.6301,3.6301,3.6301,3.6301,3.6301,3.6301,3.6301,3.6301,3.6301,3.6301,3.6301,3.6301,3.6301,3.6301,3.6451,3.6638,3.6882,3.6916,3.652]},{"header":{"parameterUnit":"m.s-1","parameterCategory":1,"la1":30.6,"la2":29.2853,"lo1":-89.7004,"lo2":-87.6739,"dy":0.0162,"dx":0.0183,"nx":112,"ny":82,"refTime":"2023-05-11T12:00:00:Z","depth":0,"parameterNumber":3,"parameterNumberName":"V-component_of_WINDS"},"data":[0.0,0.0,0.0,0.0,0.0,0.0,0.0,0.0,0.0,0.0,0.0,0.0,0.0,0.0,0.0,0.0,0.0,0.0,0.0,0.0,0.0,0.0,0.0,0.0,0.0,0.0,0.0,0.0,0.0,0.0,0.0,0.0,0.0,0.0,0.0,0.0,0.0,0.0,0.0,0.0,0.0,0.0,0.0,0.0,0.0,0.0,0.0,0.0,0.0,0.0,0.0,0.0,0.0,0.0,0.0,0.0,0.0,0.0,0.0,0.0,0.0,0.0,0.0,0.0,0.0,0.0,0.0,0.0,0.0,0.0,0.0,0.0,0.0,0.0,0.0,0.0,0.0,0.0,0.0,0.0,0.0,0.0,0.0,0.0,0.0,0.0,0.0,0.0,0.0,0.0,-1.9341,-1.9554,-1.9866,-2.0029,-1.9862,-1.9565,-1.8953,-1.7968,0.0,0.0,0.0,0.0,0.0,0.0,0.0,0.0,0.0,0.0,0.0,0.0,0.0,0.0,0.0,0.0,0.0,0.0,0.0,0.0,0.0,0.0,0.0,0.0,0.0,0.0,0.0,0.0,0.0,0.0,0.0,0.0,0.0,0.0,0.0,0.0,0.0,0.0,0.0,0.0,0.0,0.0,0.0,0.0,0.0,0.0,0.0,0.0,0.0,0.0,0.0,0.0,0.0,0.0,0.0,0.0,0.0,0.0,0.0,0.0,0.0,0.0,0.0,0.0,0.0,0.0,0.0,0.0,0.0,0.0,0.0,0.0,0.0,0.0,0.0,0.0,0.0,0.0,0.0,0.0,0.0,0.0,0.0,0.0,0.0,0.0,0.0,0.0,0.0,0.0,0.0,0.0,0.0,0.0,0.0,0.0,0.0,0.0,0.0,0.0,0.0,0.0,0.0,0.0,-1.9693,-2.0296,-2.0332,-2.0271,-2.0169,-1.9604,-1.8992,-1.8349,0.0,0.0,0.0,0.0,0.0,0.0,0.0,0.0,0.0,0.0,0.0,0.0,0.0,0.0,0.0,0.0,0.0,0.0,0.0,0.0,0.0,0.0,0.0,0.0,0.0,0.0,0.0,0.0,0.0,0.0,0.0,0.0,0.0,0.0,0.0,0.0,0.0,0.0,0.0,0.0,0.0,0.0,0.0,0.0,0.0,0.0,0.0,0.0,0.0,0.0,0.0,0.0,0.0,0.0,0.0,0.0,0.0,0.0,0.0,0.0,0.0,0.0,0.0,0.0,0.0,0.0,0.0,0.0,0.0,0.0,0.0,0.0,0.0,0.0,0.0,0.0,0.0,0.0,0.0,0.0,0.0,0.0,0.0,0.0,0.0,0.0,0.0,0.0,0.0,0.0,0.0,0.0,0.0,0.0,0.0,0.0,0.0,0.0,0.0,0.0,0.0,0.0,0.0,-1.9628,-1.9935,-2.0873,-2.0772,-2.056,-2.0422,-1.9811,-1.9094,-1.8361,-1.7906,0.0,0.0,0.0,0.0,0.0,0.0,0.0,0.0,0.0,0.0,0.0,0.0,0.0,0.0,0.0,0.0,0.0,0.0,0.0,0.0,0.0,0.0,0.0,0.0,0.0,0.0,0.0,0.0,0.0,0.0,0.0,0.0,0.0,0.0,0.0,0.0,0.0,0.0,0.0,0.0,0.0,0.0,0.0,0.0,0.0,0.0,0.0,0.0,0.0,0.0,0.0,0.0,0.0,0.0,0.0,0.0,0.0,0.0,0.0,0.0,0.0,0.0,0.0,0.0,0.0,0.0,0.0,0.0,0.0,0.0,0.0,0.0,0.0,0.0,0.0,0.0,0.0,0.0,0.0,0.0,0.0,0.0,0.0,0.0,0.0,0.0,0.0,0.0,0.0,0.0,0.0,0.0,0.0,0.0,0.0,0.0,0.0,0.0,0.0,0.0,0.0,0.0,-2.0147,-2.0408,-2.1226,-2.1006,-2.0759,-2.051,-1.9965,-1.9207,-1.8314,-1.8001,0.0,0.0,0.0,0.0,0.0,0.0,0.0,0.0,0.0,0.0,0.0,0.0,0.0,0.0,0.0,0.0,0.0,0.0,0.0,0.0,0.0,0.0,0.0,0.0,0.0,0.0,0.0,0.0,0.0,0.0,0.0,0.0,0.0,0.0,0.0,0.0,0.0,0.0,0.0,0.0,0.0,0.0,0.0,0.0,0.0,0.0,0.0,0.0,0.0,0.0,0.0,0.0,0.0,0.0,0.0,0.0,0.0,0.0,0.0,0.0,0.0,0.0,0.0,0.0,0.0,0.0,0.0,0.0,0.0,0.0,0.0,0.0,0.0,0.0,0.0,0.0,0.0,0.0,0.0,0.0,0.0,0.0,0.0,0.0,0.0,0.0,0.0,0.0,0.0,0.0,0.0,0.0,0.0,0.0,0.0,0.0,0.0,0.0,0.0,0.0,0.0,0.0,-2.0845,-2.1465,-2.1068,-2.1006,-2.0795,-2.0283,-1.9823,-1.9296,-1.8537,-1.8179,0.0,0.0,0.0,0.0,0.0,0.0,0.0,0.0,0.0,0.0,0.0,0.0,0.0,0.0,0.0,0.0,0.0,0.0,0.0,0.0,0.0,0.0,0.0,0.0,0.0,0.0,0.0,0.0,0.0,0.0,0.0,0.0,0.0,0.0,0.0,0.0,0.0,0.0,0.0,0.0,0.0,0.0,0.0,0.0,0.0,0.0,0.0,0.0,0.0,0.0,0.0,0.0,0.0,0.0,0.0,0.0,0.0,0.0,0.0,0.0,0.0,0.0,0.0,0.0,0.0,0.0,0.0,0.0,0.0,0.0,0.0,0.0,0.0,0.0,0.0,0.0,0.0,0.0,0.0,0.0,0.0,0.0,0.0,0.0,0.0,0.0,0.0,0.0,0.0,0.0,0.0,0.0,0.0,0.0,0.0,0.0,0.0,0.0,0.0,0.0,0.0,0.0,-2.0683,-2.0965,-2.1438,-2.1104,-2.0746,-2.0472,-2.0003,-1.9397,-1.8665,0.0,0.0,0.0,0.0,0.0,0.0,0.0,0.0,0.0,0.0,0.0,0.0,0.0,0.0,0.0,0.0,0.0,0.0,0.0,0.0,0.0,0.0,0.0,0.0,0.0,0.0,0.0,0.0,0.0,0.0,0.0,0.0,0.0,0.0,0.0,0.0,0.0,0.0,0.0,0.0,0.0,0.0,0.0,0.0,0.0,0.0,0.0,0.0,0.0,0.0,0.0,0.0,0.0,0.0,0.0,0.0,0.0,0.0,0.0,0.0,0.0,0.0,0.0,0.0,0.0,0.0,0.0,0.0,0.0,0.0,0.0,0.0,0.0,0.0,0.0,0.0,0.0,0.0,0.0,0.0,0.0,0.0,0.0,0.0,0.0,0.0,0.0,0.0,0.0,0.0,0.0,0.0,0.0,0.0,0.0,0.0,0.0,0.0,0.0,0.0,0.0,0.0,-2.0648,-2.0627,-2.085,-2.1472,-2.1055,-2.066,-2.0472,-2.0055,-1.9484,-1.8804,0.0,0.0,0.0,0.0,0.0,0.0,0.0,0.0,0.0,0.0,0.0,0.0,0.0,0.0,0.0,0.0,0.0,0.0,0.0,0.0,0.0,0.0,0.0,0.0,0.0,0.0,0.0,0.0,0.0,0.0,0.0,0.0,0.0,0.0,0.0,0.0,0.0,0.0,0.0,0.0,0.0,0.0,0.0,0.0,0.0,0.0,0.0,0.0,0.0,0.0,0.0,0.0,0.0,0.0,0.0,0.0,0.0,0.0,0.0,0.0,0.0,0.0,0.0,0.0,0.0,0.0,0.0,0.0,0.0,0.0,0.0,0.0,0.0,0.0,0.0,0.0,0.0,0.0,0.0,0.0,0.0,0.0,0.0,0.0,0.0,0.0,0.0,0.0,0.0,0.0,0.0,0.0,0.0,0.0,0.0,0.0,0.0,0.0,0.0,0.0,0.0,0.0,-1.9962,-2.0826,-2.1277,-2.1033,-2.0772,-2.0472,-2.0233,-1.9965,-1.9534,0.0,0.0,0.0,0.0,0.0,0.0,0.0,0.0,0.0,0.0,0.0,0.0,0.0,0.0,0.0,0.0,0.0,0.0,0.0,0.0,0.0,0.0,0.0,0.0,0.0,0.0,0.0,0.0,0.0,0.0,0.0,0.0,0.0,0.0,0.0,0.0,0.0,0.0,0.0,0.0,0.0,0.0,0.0,0.0,0.0,0.0,0.0,0.0,0.0,0.0,0.0,0.0,0.0,0.0,0.0,0.0,0.0,0.0,0.0,0.0,0.0,0.0,0.0,0.0,0.0,0.0,0.0,0.0,0.0,0.0,0.0,0.0,0.0,0.0,0.0,0.0,0.0,0.0,0.0,0.0,0.0,0.0,0.0,0.0,0.0,0.0,0.0,0.0,0.0,0.0,0.0,0.0,0.0,0.0,0.0,0.0,0.0,0.0,0.0,0.0,0.0,0.0,0.0,-1.9962,-2.0782,-2.1277,-2.1033,-2.0586,-2.0271,-2.0233,-1.9965,-1.9584,-1.9094,0.0,0.0,0.0,0.0,0.0,0.0,0.0,0.0,0.0,0.0,0.0,0.0,0.0,0.0,0.0,0.0,0.0,0.0,0.0,0.0,0.0,0.0,0.0,0.0,0.0,0.0,0.0,0.0,0.0,0.0,0.0,0.0,0.0,0.0,0.0,0.0,0.0,0.0,0.0,0.0,0.0,0.0,0.0,0.0,0.0,0.0,0.0,0.0,0.0,0.0,0.0,0.0,0.0,0.0,0.0,0.0,0.0,0.0,0.0,0.0,0.0,0.0,0.0,0.0,0.0,0.0,0.0,0.0,0.0,0.0,0.0,0.0,0.0,0.0,0.0,0.0,0.0,0.0,0.0,0.0,0.0,0.0,0.0,0.0,0.0,0.0,0.0,0.0,0.0,0.0,0.0,0.0,0.0,0.0,0.0,0.0,0.0,0.0,0.0,0.0,0.0,0.0,-1.9789,-2.0633,-2.1131,-2.0848,-2.0435,-2.0182,-2.0131,-1.9914,-1.9636,-1.9282,0.0,0.0,0.0,0.0,0.0,0.0,0.0,0.0,0.0,0.0,0.0,0.0,0.0,0.0,0.0,0.0,0.0,0.0,0.0,0.0,0.0,0.0,0.0,0.0,0.0,0.0,0.0,0.0,0.0,0.0,0.0,0.0,0.0,0.0,0.0,0.0,0.0,0.0,0.0,0.0,0.0,0.0,0.0,0.0,0.0,0.0,0.0,0.0,0.0,0.0,0.0,0.0,0.0,0.0,0.0,0.0,0.0,0.0,0.0,0.0,0.0,0.0,0.0,0.0,0.0,0.0,0.0,0.0,0.0,0.0,0.0,0.0,0.0,0.0,0.0,0.0,0.0,0.0,0.0,0.0,0.0,0.0,0.0,0.0,0.0,0.0,0.0,0.0,0.0,0.0,0.0,0.0,0.0,0.0,0.0,0.0,0.0,0.0,0.0,0.0,0.0,0.0,-1.9629,-2.0407,-2.0898,-2.0562,-2.0347,-2.0131,-2.0042,-1.9862,-1.9674,-1.9377,0.0,0.0,0.0,0.0,0.0,0.0,0.0,0.0,0.0,0.0,0.0,0.0,0.0,0.0,0.0,0.0,0.0,0.0,0.0,0.0,0.0,0.0,0.0,0.0,0.0,0.0,0.0,0.0,0.0,0.0,0.0,0.0,0.0,0.0,0.0,0.0,0.0,0.0,0.0,0.0,0.0,0.0,0.0,0.0,0.0,0.0,0.0,0.0,0.0,0.0,0.0,0.0,0.0,0.0,0.0,0.0,0.0,0.0,0.0,0.0,-2.4354,0.0,0.0,0.0,0.0,0.0,0.0,0.0,0.0,0.0,0.0,0.0,0.0,0.0,0.0,0.0,0.0,0.0,0.0,0.0,0.0,0.0,0.0,0.0,0.0,0.0,0.0,0.0,0.0,0.0,0.0,0.0,0.0,0.0,0.0,0.0,0.0,0.0,0.0,0.0,0.0,0.0,-1.9709,-2.0466,-2.0898,-2.0662,-2.0398,-2.0182,-2.0182,-1.9965,-1.9762,-1.9786,-1.9643,0.0,0.0,0.0,0.0,0.0,0.0,0.0,0.0,0.0,0.0,0.0,0.0,0.0,0.0,0.0,0.0,0.0,0.0,0.0,0.0,0.0,0.0,0.0,0.0,0.0,0.0,0.0,0.0,0.0,0.0,0.0,0.0,0.0,0.0,0.0,0.0,0.0,0.0,0.0,0.0,0.0,0.0,0.0,0.0,0.0,0.0,0.0,0.0,0.0,0.0,0.0,0.0,0.0,0.0,0.0,0.0,0.0,0.0,0.0,0.0,-2.3735,0.0,0.0,0.0,0.0,0.0,0.0,0.0,0.0,0.0,0.0,0.0,0.0,0.0,0.0,0.0,0.0,0.0,0.0,0.0,0.0,0.0,0.0,0.0,0.0,0.0,0.0,0.0,0.0,0.0,0.0,0.0,0.0,0.0,0.0,0.0,0.0,0.0,0.0,0.0,0.0,-1.9551,-2.0375,-2.0848,-2.0498,-2.0283,-2.0233,-2.0372,-2.0258,-2.028,-2.0505,-2.0239,0.0,0.0,0.0,0.0,0.0,0.0,0.0,0.0,0.0,0.0,0.0,0.0,0.0,0.0,0.0,0.0,0.0,0.0,0.0,0.0,0.0,0.0,0.0,0.0,0.0,0.0,0.0,0.0,0.0,0.0,0.0,0.0,0.0,0.0,0.0,0.0,0.0,0.0,0.0,0.0,0.0,0.0,0.0,0.0,0.0,0.0,0.0,0.0,0.0,0.0,0.0,0.0,0.0,-2.4166,-2.4199,-2.4414,-2.456,-2.4583,-2.4539,-2.3955,-2.3879,-2.4106,-2.3339,0.0,0.0,0.0,0.0,0.0,0.0,0.0,0.0,0.0,0.0,0.0,0.0,0.0,0.0,0.0,0.0,0.0,0.0,0.0,0.0,0.0,0.0,0.0,0.0,-2.2612,-2.2569,-2.1992,0.0,0.0,0.0,0.0,0.0,0.0,0.0,0.0,0.0,0.0,0.0,-1.9531,-2.0294,-2.0736,-2.0233,-2.0283,-2.0372,-2.061,-2.0709,-2.0894,-2.1286,-2.0948,-2.0683,0.0,0.0,0.0,0.0,0.0,0.0,0.0,0.0,0.0,0.0,0.0,0.0,0.0,0.0,0.0,0.0,0.0,0.0,0.0,0.0,0.0,0.0,0.0,0.0,0.0,0.0,0.0,0.0,0.0,0.0,0.0,0.0,-2.3946,-2.4259,0.0,0.0,0.0,0.0,0.0,0.0,0.0,0.0,0.0,0.0,0.0,0.0,0.0,-2.4997,-2.5073,-2.505,-2.4996,-2.4828,-2.5021,-2.5029,-2.4914,-2.4948,-2.4941,-2.4925,-2.4846,0.0,-2.445,-2.4311,0.0,0.0,0.0,0.0,0.0,0.0,0.0,0.0,0.0,0.0,0.0,0.0,0.0,0.0,0.0,0.0,0.0,0.0,0.0,0.0,0.0,0.0,-2.3197,-2.2878,-2.2833,-2.2877,0.0,-2.2514,-2.1919,-2.1142,-2.1508,0.0,0.0,0.0,0.0,0.0,0.0,0.0,-2.037,-2.047,-2.0448,-2.0233,-2.051,-2.0759,-2.0746,-2.1091,-2.1431,-2.1698,-2.1677,-2.1634,-2.1597,-2.132,0.0,0.0,0.0,0.0,0.0,0.0,0.0,0.0,0.0,0.0,0.0,0.0,0.0,0.0,0.0,0.0,0.0,0.0,0.0,0.0,0.0,0.0,0.0,0.0,0.0,0.0,0.0,0.0,0.0,-2.4105,-2.4505,-2.4354,-2.4509,-2.4485,0.0,0.0,0.0,0.0,0.0,0.0,0.0,0.0,0.0,-2.5995,-2.5762,-2.5717,-2.5822,-2.5715,-2.5535,-2.5301,-2.5422,-2.5355,-2.5178,-2.5178,-2.51,-2.5005,-2.5005,-2.5032,-2.5037,-2.4648,-2.4416,-2.4246,0.0,0.0,0.0,0.0,-2.3836,-2.3869,-2.4025,-2.4102,-2.4102,-2.4102,0.0,0.0,0.0,0.0,0.0,0.0,0.0,0.0,0.0,0.0,-2.3616,-2.3535,-2.3363,-2.3216,-2.3363,-2.3048,-2.2604,0.0,-2.2368,-2.2175,-2.1242,0.0,0.0,0.0,0.0,-2.0981,-2.0722,-2.0729,-2.0822,-2.097,-2.1153,-2.1348,-2.1589,-2.1732,-2.2016,-2.2417,-2.2324,-2.2243,-2.2259,-2.1842,-2.1556,0.0,0.0,0.0,0.0,0.0,0.0,0.0,0.0,0.0,0.0,0.0,0.0,0.0,0.0,0.0,0.0,0.0,0.0,0.0,0.0,0.0,0.0,0.0,0.0,0.0,0.0,0.0,0.0,-2.4729,-2.5102,-2.4776,-2.5177,-2.5294,0.0,0.0,0.0,0.0,0.0,0.0,-2.5879,-2.6232,-2.6499,-2.6667,-2.6472,-2.6422,-2.659,-2.6367,-2.612,-2.5832,-2.5832,-2.5738,-2.5492,-2.5492,-2.5416,-2.5285,-2.5285,-2.5422,-2.5603,-2.5009,-2.4818,-2.4876,-2.4613,-2.4547,-2.453,-2.4431,-2.4464,-2.4547,-2.4603,-2.4689,-2.4745,-2.4652,-2.4596,-2.4444,-2.4061,0.0,0.0,0.0,0.0,-2.3816,-2.3856,-2.3951,-2.3959,-2.3987,-2.3782,-2.3595,-2.3696,-2.3432,-2.3208,0.0,-2.3118,-2.2901,-2.2473,0.0,0.0,0.0,0.0,-2.1288,-2.1029,-2.1111,-2.1251,-2.1506,-2.165,-2.1841,-2.2184,-2.2324,-2.2509,-2.2888,-2.2752,-2.2661,-2.2661,-2.2321,-2.2077,-2.1975,0.0,0.0,0.0,0.0,0.0,0.0,0.0,0.0,0.0,0.0,0.0,0.0,0.0,0.0,0.0,0.0,0.0,0.0,0.0,0.0,0.0,0.0,0.0,0.0,0.0,0.0,0.0,0.0,0.0,-2.6179,-2.6384,0.0,0.0,0.0,0.0,-2.6026,-2.653,-2.6774,-2.6654,-2.7444,-2.7805,-2.7648,-2.7426,-2.7321,-2.7324,-2.707,-2.6774,-2.6454,-2.6454,-2.6333,-2.6068,-2.6068,-2.6068,-2.6052,-2.6052,-2.6052,-2.6052,-2.5603,-2.566,-2.6002,-2.6005,-2.5988,-2.5952,-2.5575,-2.5684,-2.5881,-2.5221,-2.5182,-2.5416,-2.5098,-2.4794,-2.4596,-2.4563,-2.4381,0.0,0.0,-2.4547,-2.4547,-2.4476,-2.4436,-2.441,-2.4051,-2.3982,-2.3982,-2.3982,-2.3707,-2.3425,0.0,-2.3274,-2.3167,-2.2854,0.0,-2.2506,-2.2071,-2.2016,-2.1842,-2.1574,-2.1589,-2.1554,-2.1417,-2.1874,-2.2184,-2.2184,-2.2615,-2.2843,-2.2888,-2.2888,-2.2888,-2.2888,-2.2859,-2.2717,-2.2456,-2.2453,0.0,0.0,0.0,0.0,0.0,0.0,0.0,0.0,0.0,0.0,0.0,0.0,0.0,0.0,0.0,0.0,0.0,0.0,0.0,0.0,0.0,0.0,0.0,0.0,0.0,0.0,0.0,0.0,-2.5941,-2.6428,0.0,-2.6566,-2.653,-2.6573,-2.6655,-2.713,-2.7384,-2.7344,-2.7619,-2.776,-2.7701,-2.7642,-2.7539,-2.7404,-2.731,-2.7004,-2.6488,-2.6624,-2.6488,-2.6087,-2.621,-2.621,-2.6104,-2.6104,-2.6245,-2.647,-2.6315,-2.621,-2.6104,-2.6104,-2.6104,-2.6087,-2.5944,-2.598,-2.6052,-2.5815,-2.5631,-2.5427,-2.5107,-2.4932,-2.4862,-2.4862,-2.4783,-2.4733,-2.482,-2.4862,-2.485,-2.4823,-2.4806,-2.4766,-2.4686,-2.4482,-2.4317,-2.4317,-2.4061,-2.383,-2.3752,-2.3462,-2.3137,-2.2776,-2.2939,-2.2817,-2.2047,-2.2089,-2.2133,-2.2002,-2.1996,-2.2077,-2.2356,-2.2555,-2.2661,-2.2661,-2.2797,-2.2888,-2.2888,-2.2888,-2.2888,-2.2888,-2.2888,-2.2876,-2.2761,-2.2761,-2.2545,0.0,0.0,0.0,0.0,0.0,0.0,0.0,0.0,0.0,0.0,0.0,0.0,0.0,0.0,0.0,0.0,0.0,0.0,0.0,0.0,0.0,0.0,0.0,0.0,0.0,0.0,-2.6472,-2.6193,-2.6809,-2.7181,-2.6953,-2.71,-2.7246,-2.7317,-2.7558,-2.7701,-2.7701,-2.7701,-2.7701,-2.7701,-2.7701,-2.7642,-2.7509,-2.7509,-2.7276,-2.6856,-2.6971,-2.6841,-2.6505,-2.6624,-2.6624,-2.6505,-2.6505,-2.6657,-2.6908,-2.6908,-2.6742,-2.6505,-2.6505,-2.6436,-2.628,-2.6175,-2.6104,-2.6087,-2.5944,-2.5726,-2.5427,-2.5107,-2.5068,-2.513,-2.5045,-2.5005,-2.5005,-2.5005,-2.5005,-2.5005,-2.5005,-2.5005,-2.5005,-2.5005,-2.4806,-2.4661,-2.4661,-2.4416,-2.4151,-2.4151,-2.3697,-2.3182,-2.2978,-2.3067,-2.2908,-2.2219,-2.2336,-2.2455,-2.2376,-2.2412,-2.2555,-2.2843,-2.2888,-2.2888,-2.2888,-2.2789,-2.279,-2.2873,-2.2774,-2.2804,-2.2888,-2.2804,-2.2776,-2.2776,-2.2776,-2.2678,-2.2424,0.0,0.0,0.0,0.0,0.0,0.0,0.0,0.0,0.0,0.0,0.0,0.0,0.0,0.0,0.0,0.0,0.0,0.0,0.0,0.0,0.0,0.0,0.0,-2.5882,-2.6555,-2.71,-2.712,-2.7636,-2.8025,-2.8174,-2.7876,-2.776,-2.7986,-2.7806,-2.7701,-2.7701,-2.7701,-2.7701,-2.7701,-2.7701,-2.7701,-2.7701,-2.7701,-2.763,-2.7496,-2.7496,-2.7421,-2.7299,-2.7299,-2.7299,-2.7299,-2.7299,-2.7299,-2.7299,-2.7299,-2.7299,-2.7299,-2.7299,-2.7072,-2.6657,-2.628,-2.6139,-2.6052,-2.5652,-2.5503,-2.5427,-2.5107,-2.5246,-2.5427,-2.5107,-2.5005,-2.5005,-2.5005,-2.5005,-2.5005,-2.5005,-2.5005,-2.5005,-2.5005,-2.5005,-2.5005,-2.5005,-2.4726,-2.4498,-2.4498,-2.3952,-2.3406,-2.3406,-2.3127,-2.2849,-2.2715,-2.2834,0.0,-2.27,-2.2805,-2.2888,-2.2873,-2.2859,-2.2859,-2.2859,-2.2599,-2.2554,-2.2904,-2.2614,-2.254,-2.2873,-2.2656,-2.2512,-2.2512,-2.2497,-2.2581,-2.2705,0.0,0.0,0.0,0.0,0.0,0.0,0.0,0.0,0.0,0.0,0.0,0.0,0.0,0.0,0.0,0.0,0.0,0.0,0.0,0.0,0.0,-2.633,-2.6686,-2.6473,-2.6708,-2.6991,-2.7285,-2.7447,-2.763,-2.7818,-2.776,-2.773,-2.776,-2.773,-2.7701,-2.7701,-2.7701,-2.7701,-2.7701,-2.7659,-2.7659,-2.7701,-2.76,-2.7557,-2.7496,-2.7452,-2.7376,-2.7299,-2.7299,-2.7299,-2.7299,-2.7299,-2.7299,-2.7299,-2.7299,-2.7299,-2.7299,-2.7299,-2.7218,-2.7105,-2.7023,-2.6808,-2.647,-2.6052,-2.5762,-2.5427,-2.5107,-2.5068,-2.5107,-2.5045,-2.5005,-2.5005,-2.5005,-2.5005,-2.5005,-2.5005,-2.5005,-2.5005,-2.5005,-2.5005,-2.5005,-2.5005,-2.4926,-2.4846,-2.4846,-2.4523,-2.4051,-2.3493,-2.3334,-2.3157,-2.2908,-2.2876,0.0,-2.2864,-2.2876,-2.2803,-2.254,-2.2539,-2.2539,-2.2539,-2.2463,-2.2554,-2.2904,-2.2818,-2.2789,-2.2888,-2.2848,-2.279,-2.279,-2.2693,-2.2664,0.0,0.0,0.0,0.0,0.0,0.0,0.0,0.0,0.0,0.0,0.0,0.0,0.0,0.0,0.0,0.0,0.0,0.0,0.0,0.0,0.0,0.0,-2.6703,-2.7067,-2.7038,-2.7118,-2.7258,-2.7465,-2.7509,-2.7569,-2.7701,-2.7701,-2.7841,-2.8175,-2.8193,-2.8351,-2.8684,-2.8654,-2.8605,-2.8605,-2.8547,-2.839,-2.8102,-2.801,-2.7778,-2.7452,-2.7407,-2.7345,-2.7299,-2.7299,-2.7299,-2.7299,-2.7299,-2.7299,-2.7299,-2.7299,-2.7299,0.0,0.0,0.0,0.0,0.0,-2.6657,-2.6401,-2.5961,-2.5762,-2.5652,-2.5107,-2.5029,-2.5169,-2.5045,-2.5005,-2.5005,-2.5005,-2.5005,-2.5005,-2.5005,-2.5005,-2.5005,-2.5005,-2.5005,-2.5005,-2.5005,-2.5005,-2.5005,-2.5005,-2.4846,0.0,-2.3782,-2.3508,-2.3317,-2.3079,-2.2937,-2.2891,-2.2819,-2.2863,-2.2847,-2.2629,-2.26,-2.26,-2.26,-2.2479,0.0,0.0,0.0,-2.2703,-2.2732,-2.2732,0.0,0.0,0.0,-2.2673,-2.2786,0.0,0.0,0.0,-2.2284,-2.1928,0.0,0.0,0.0,0.0,0.0,0.0,0.0,0.0,0.0,0.0,0.0,0.0,0.0,0.0,0.0,0.0,-2.7051,-2.7345,-2.7465,-2.7669,-2.7747,-2.7604,-2.77,-2.7794,-2.7794,-2.7882,-2.8233,-2.8952,-2.9004,-2.932,-3.0039,0.0,0.0,0.0,0.0,-2.9429,-2.8749,-2.8717,-2.8355,-2.7636,-2.7636,-2.7604,-2.754,-2.754,-2.754,-2.754,-2.754,-2.754,-2.754,-2.754,-2.754,-2.7523,-2.7351,-2.7055,-2.6657,-2.628,-2.6104,-2.5944,-2.5556,0.0,0.0,-2.5029,-2.5052,-2.5329,-2.5068,-2.4966,-2.4966,-2.4966,-2.4982,-2.4966,-2.4966,-2.4966,-2.5005,-2.5005,-2.5005,-2.5005,-2.5005,-2.5005,-2.5005,-2.5005,-2.5005,-2.4806,-2.4151,-2.3739,-2.3385,-2.3203,-2.2993,-2.2863,-2.2733,-2.2834,-2.2873,-2.2831,0.0,0.0,-2.2831,-2.257,-2.2554,-2.2904,-2.2615,-2.249,-2.256,-2.256,-2.256,-2.256,-2.256,-2.2642,-2.2888,-2.2888,-2.2888,-2.2904,-2.2667,-2.2124,0.0,0.0,0.0,0.0,0.0,0.0,0.0,0.0,0.0,0.0,0.0,0.0,0.0,0.0,0.0,-2.6594,-2.7063,-2.7376,-2.7345,-2.7955,-2.8188,-2.7596,-2.8049,-2.8415,-2.8415,-2.9007,-2.9443,-2.96,-2.9617,-2.9687,-2.9843,-2.9843,-2.9826,-2.9826,-2.9676,-2.9624,-2.9584,-2.9434,-2.9281,-2.9176,0.0,0.0,-2.9075,-2.9075,-2.9075,-2.9075,-2.9075,-2.9075,-2.9075,-2.9075,-2.9059,-2.8887,-2.7732,-2.7055,-2.6691,-2.6607,-2.6139,-2.5519,-2.5443,-2.5192,-2.4839,-2.471,-2.471,-2.4775,-2.471,-2.467,0.0,-2.467,-2.4766,-2.4822,-2.4822,-2.4942,-2.5005,-2.5005,-2.5005,-2.5005,-2.5005,-2.5005,-2.5005,-2.5005,-2.5005,-2.4886,-2.4457,-2.4109,-2.3666,-2.3069,-2.2935,-2.2889,-2.2848,-2.286,-2.2789,-2.2525,-2.2509,-2.2509,-2.2509,-2.2433,-2.2554,-2.2904,-2.2817,-2.2789,-2.2833,-2.2833,-2.2833,-2.2833,-2.2833,-2.2847,-2.2888,-2.2888,-2.2888,-2.2888,-2.2849,-2.2555,0.0,0.0,0.0,0.0,0.0,0.0,0.0,0.0,0.0,0.0,0.0,-2.5588,0.0,0.0,-2.6533,-2.6812,-2.7095,-2.7385,-2.7782,-2.8226,-2.8377,-2.806,-2.8717,-2.9201,-2.9201,-2.9567,-2.995,-3.0332,-3.0367,-3.0541,-3.0924,-3.0907,-3.0855,-3.0855,-3.075,-3.056,-3.0248,-3.0145,-2.9903,-2.954,-2.9506,-2.9506,-2.9506,-2.9506,-2.9472,-2.9455,-2.9455,-2.942,-2.9351,-2.9351,-2.9333,-2.923,-2.8528,-2.8134,-2.7913,-2.7539,-2.6989,-2.6365,-2.5761,-2.5269,-2.4855,-2.4645,-2.4549,-2.4589,-2.4589,-2.4589,-2.4589,-2.4589,-2.4645,-2.4686,-2.4686,-2.4806,-2.4886,-2.4806,-2.4846,-2.4886,-2.4806,-2.4806,-2.4806,-2.4806,-2.4806,-2.467,-2.4359,-2.3967,-2.3566,-2.3216,-2.2828,-2.2615,-2.2752,-2.2615,-2.2486,-2.2336,-2.2439,-2.2454,-2.2307,-2.2439,-2.2629,-2.2873,-2.2888,-2.2888,-2.2888,-2.2888,-2.2888,-2.2888,-2.2888,-2.2888,-2.2888,-2.2888,-2.2888,-2.2888,-2.2888,-2.2661,0.0,0.0,0.0,0.0,0.0,0.0,0.0,0.0,-2.4983,-2.5308,-2.5507,-2.5767,-2.6169,-2.645,-2.677,-2.7206,-2.7396,-2.7755,-2.8457,-2.8714,-2.8834,-2.8867,-2.9521,-2.9952,-2.9952,-3.0091,-3.0421,-3.1029,-3.1081,-3.1359,-3.2002,-3.1948,-3.1875,-3.1875,-3.1819,-3.1507,-3.0903,-3.0903,-3.0575,-2.9955,-2.9955,-2.9868,-2.978,-2.978,-2.9691,-2.9527,-2.9527,-2.9457,-2.935,-2.9367,-2.933,-2.9313,-2.933,-2.933,-2.9228,-2.8455,-2.7838,-2.7208,-2.6167,-2.5496,-2.5075,-2.4605,-2.4482,-2.4549,-2.4549,-2.4549,-2.4549,-2.4549,-2.4549,-2.4589,-2.4589,-2.4686,-2.4726,-2.463,-2.4686,-2.4726,-2.463,-2.4589,-2.4589,-2.4589,-2.4549,-2.4369,-2.4021,-2.3537,-2.3231,-2.3275,-2.2663,-2.2278,-2.2509,-2.2324,-2.2184,-2.2184,-2.237,-2.2417,-2.2231,-2.2417,-2.2615,-2.2752,-2.2752,-2.2752,-2.2752,-2.2752,-2.2797,-2.2843,-2.2843,-2.2843,-2.2888,-2.2888,-2.2888,-2.2888,-2.2797,-2.2615,-2.2739,-2.3055,-2.3562,-2.3926,-2.3997,-2.4281,0.0,0.0,-2.5446,-2.6185,-2.6471,-2.6587,-2.6622,-2.7334,-2.7912,-2.7964,-2.8528,-2.8989,-2.9109,-2.9796,-3.0261,-3.0261,-3.0471,-3.0594,-3.0594,-3.1198,-3.1612,-3.1699,-3.1699,-3.1733,-3.1819,-3.1837,-3.18,-3.18,-3.18,-3.1765,-3.1679,-3.1679,-3.1627,-3.1541,-3.1541,-3.1268,-3.074,-3.074,-3.0503,-3.0013,-3.0013,-3.0013,-3.0013,-2.9871,-2.9828,-2.9802,-2.975,-2.9723,-2.9646,-2.8843,-2.7836,-2.6804,-2.6294,-2.5624,-2.4879,-2.4467,-2.4317,-2.4343,-2.4343,-2.4343,-2.4343,-2.4343,-2.44,-2.4498,-2.4498,-2.4564,-2.463,-2.4589,-2.4589,-2.463,-2.4589,-2.4589,-2.4589,-2.4589,-2.4271,-2.3879,-2.3537,-2.2905,-2.2543,-2.2889,-2.254,-2.2231,-2.2231,-2.2231,-2.2184,-2.2184,-2.2231,-2.2231,-2.2184,-2.2231,-2.2231,-2.2278,-2.2278,-2.2278,-2.2278,-2.2278,-2.237,-2.2615,-2.2615,-2.2706,-2.2888,-2.2888,-2.2888,-2.2888,-2.2463,-2.2463,-2.3341,-2.3391,-2.3506,-2.414,-2.4372,-2.4719,-2.5779,-2.6091,-2.6392,-2.7263,-2.7634,-2.7832,-2.7904,-2.8245,-2.8556,0.0,-2.8934,-2.9327,-2.9824,-3.0221,-3.0597,-3.1025,-3.1188,-3.1244,-3.1334,-3.161,-3.18,-3.18,-3.1709,-3.1654,-3.1654,-3.1651,-3.1651,-3.1671,-3.1654,-3.1709,-3.18,-3.1709,-3.1654,-3.1671,-3.1651,-3.1351,-3.0851,-3.0851,-3.051,-2.9989,-2.9935,-2.9951,-2.9908,-2.9848,-2.9848,-2.9865,-2.9793,-2.9793,-2.9724,-2.8936,-2.82,-2.748,-2.6888,-2.5994,-2.5124,-2.4929,-2.4625,-2.4302,-2.4302,-2.4302,-2.4302,-2.4302,-2.4359,-2.4359,-2.4359,-2.4441,-2.4523,-2.4426,-2.4482,-2.4523,-2.4426,-2.4426,-2.4343,-2.4078,-2.3852,-2.3595,-2.3201,-2.2618,-2.2296,-2.2495,-2.2077,-2.1793,-2.1949,-2.1841,-2.1793,-2.1949,-2.1841,-2.1841,-2.2184,-2.2044,-2.2044,-2.2184,-2.2184,-2.2184,-2.2184,-2.2184,-2.2231,-2.237,-2.237,-2.2417,-2.2509,-2.2661,-2.2752,-2.2706,-2.2661,-2.2555,-2.3056,-2.3291,-2.3606,-2.4373,-2.4801,-2.5237,-2.6192,-2.6663,-2.7113,-2.7816,-2.8207,-2.8493,-2.8607,-2.885,-2.9114,-2.9299,-2.9485,-2.9844,-3.0534,-3.064,-3.0865,-3.1393,-3.1521,-3.1596,-3.1726,-3.1726,-3.1746,-3.1746,-3.1634,-3.1559,-3.1559,-3.1538,-3.15,-3.1559,-3.1466,-3.1428,-3.1504,-3.1278,-3.1184,-3.1201,-3.114,-3.0845,-3.036,-3.0192,-2.9892,-2.9496,-2.9393,-2.9348,-2.9348,-2.9303,-2.9303,-2.9303,-2.9303,-2.9303,-2.9255,-2.8685,-2.8411,-2.8188,-2.7537,-2.6647,-2.5768,-2.5654,-2.5149,-2.4594,-2.4594,-2.4456,-2.4302,-2.4302,-2.4302,-2.4302,-2.4302,-2.4359,-2.44,-2.4317,-2.4359,-2.44,-2.4317,-2.4302,-2.4219,-2.3867,-2.3696,-2.3465,-2.2979,-2.2495,-2.2137,-2.1996,-2.1664,-2.1471,-2.1664,-2.152,-2.1471,-2.1664,-2.152,-2.1568,-2.1949,-2.1793,-2.1746,-2.1996,-2.1996,-2.1996,-2.1996,-2.1996,-2.1996,-2.2091,-2.2091,-2.2137,-2.2184,-2.2463,-2.2615,-2.2615,-2.2661,-2.2463,-2.1131,-2.222,-2.3686,-2.4507,-2.5088,-2.5746,-2.6761,-2.7063,-2.7248,-2.7458,-2.785,-2.8112,-2.8112,-2.8965,-2.9738,-2.9854,-3.0477,-3.1004,-3.1157,-3.124,-3.1278,-3.1295,-3.1406,-3.1517,0.0,-3.1559,-3.1617,-3.1617,-3.1538,-3.1517,-3.1517,-3.1517,-3.1517,-3.1517,-3.1061,-3.0845,-3.0845,-3.0385,-3.0159,-3.0159,-3.0117,-2.9832,-2.9241,-2.87,-2.8444,-2.8444,-2.8284,-2.8235,-2.8235,-2.8103,-2.8054,-2.8054,-2.8054,-2.8054,-2.8054,-2.8039,-2.8311,-2.8624,-2.8192,-2.7573,-2.6875,-2.6483,-2.5872,-2.5287,-2.5287,-2.4825,-2.4302,-2.4302,-2.4302,-2.4302,-2.4302,-2.4302,-2.4302,-2.4302,-2.4302,-2.4302,-2.4302,-2.4302,-2.4302,-2.4261,-2.3909,-2.3465,-2.2979,-2.2495,-2.2044,-2.152,-2.1423,-2.1423,-2.1423,-2.1423,-2.1423,-2.1423,-2.1423,-2.1423,-2.1423,-2.1423,-2.1423,-2.1423,-2.1423,-2.1423,-2.1423,-2.1423,-2.1568,-2.1793,-2.1793,-2.1949,-2.2184,-2.2463,-2.2615,-2.2615,-2.2324,-2.1921,-2.2267,-2.3127,-2.4017,-2.5072,-2.5707,-2.6269,-2.7055,-2.7525,-2.7961,-2.8434,-2.8278,-2.8079,-2.8274,-2.8682,-2.911,-2.9333,-3.0246,-3.0935,-3.1055,-3.1095,-3.1117,-3.1213,-3.1329,0.0,0.0,0.0,0.0,-3.1538,-3.1445,-3.1351,-3.1351,-3.1346,-3.1308,-3.1368,-3.1218,-3.1004,-3.0804,-3.0584,-3.026,-2.9946,-2.9629,-2.9332,-2.912,-2.8558,-2.8284,-2.8235,-2.8152,-2.8054,-2.8054,-2.8005,-2.802,-2.802,-2.802,-2.802,-2.802,-2.802,-2.8082,-2.8201,-2.8074,-2.7627,-2.7118,-2.6856,-2.6321,-2.5802,-2.5877,-2.5724,-2.5492,-2.5075,-2.4979,-2.4872,-2.4425,-2.4302,-2.4302,-2.4302,-2.4302,-2.4302,-2.4302,-2.4051,-2.3739,-2.3421,-2.2979,-2.2526,-2.1969,-2.1793,-2.1616,-2.1423,-2.1423,-2.1423,-2.1423,-2.1423,-2.1423,-2.1423,-2.1423,-2.1423,-2.1423,-2.1423,-2.1423,-2.1423,-2.1423,-2.1423,-2.1423,-2.1423,-2.1423,-2.152,-2.152,-2.1568,-2.1664,-2.1949,-2.2091,-2.2091,-2.2324,-2.1969,-2.2569,-2.3496,-2.4492,-2.5674,-2.6226,-2.6657,-2.7391,-2.7875,-2.8326,-2.8732,-2.8318,-2.7938,-2.8102,-2.8329,-2.859,-2.8924,-2.9945,-3.0757,-3.0935,-3.0975,-3.0992,-3.1072,-3.1371,-3.1562,0.0,0.0,0.0,-3.1457,-3.1567,-3.1664,-3.1664,-3.1678,-3.1707,-3.1756,-3.1408,-3.1137,-3.092,-3.0656,-3.0341,-3.0003,-2.9626,-2.9401,-2.9401,-2.8744,-2.8503,-2.8488,-2.8111,-2.7905,-2.7905,-2.7905,-2.7855,-2.7855,-2.7855,-2.7855,-2.7855,-2.7855,-2.7905,-2.7955,-2.7955,-2.7765,-2.7448,-2.7367,-2.6912,-2.638,-2.6458,-2.6337,-2.6047,-2.5649,-2.5571,-2.5463,-2.5035,-2.4928,-2.4866,-2.4606,-2.4402,-2.4182,-2.3955,-2.3551,-2.3098,-2.2844,-2.2526,-2.2123,-2.165,-2.1375,-2.1277,-2.1277,-2.1277,-2.1277,-2.1375,-2.1423,-2.1423,-2.1423,-2.1423,-2.1423,-2.1423,-2.1423,-2.1423,-2.1423,-2.1423,-2.1423,-2.1423,-2.1423,-2.1423,-2.1423,-2.1423,-2.1423,-2.1423,-2.1664,-2.1793,-2.1793,-2.2231,-2.1921,-2.2134,-2.3438,-2.5087,-2.6155,-2.6613,-2.6958,-2.7655,-2.8103,-2.8348,-2.8363,-2.7908,-2.751,-2.764,-2.7849,-2.8147,-2.859,-2.9573,-3.0452,-3.0814,-3.0871,-3.0888,0.0,0.0,0.0,0.0,0.0,0.0,-3.1438,0.0,-3.2283,-3.2283,-3.2457,-3.2557,-3.2574,-3.1614,-3.1094,-3.1094,-3.0603,-3.0308,-3.0188,-3.0046,-3.0008,-2.9978,-2.934,-2.9067,-2.897,-2.8233,-2.7896,-2.7896,-2.778,-2.77,-2.7619,-2.7619,-2.7655,-2.7625,-2.7625,-2.7675,-2.779,-2.7955,-2.7955,-2.8005,-2.7955,-2.7531,-2.7016,-2.7016,-2.6576,-2.6076,-2.6077,-2.6077,-2.6062,-2.5985,-2.6016,-2.5864,-2.5181,-2.4672,-2.4117,-2.3496,-2.2962,-2.2612,-2.2612,-2.2537,-2.2324,-2.1841,-2.1326,-2.0997,-2.0997,-2.0997,-2.1082,-2.1375,-2.1375,-2.1375,-2.1375,-2.1375,-2.1375,-2.1375,-2.1375,-2.1375,-2.1375,-2.1375,-2.1375,-2.1423,-2.1423,-2.1423,-2.1423,-2.1423,-2.1423,-2.1423,-2.1664,-2.1793,-2.1793,-2.2044,-2.1684,-2.3395,-2.4334,-2.5269,-2.6226,-2.6681,-2.7033,-2.753,-2.779,-2.7989,-2.8054,-2.6886,-2.6126,-2.7096,-2.6961,-2.7028,-2.8086,-2.9346,0.0,-3.0231,-3.0526,0.0,-3.1382,0.0,-3.2194,-3.2713,-3.2887,0.0,0.0,-3.2133,-3.2293,-3.2381,-3.1925,-3.1757,-3.1868,-3.1518,-3.1144,-3.0826,-3.0345,-3.0099,-3.0046,-3.0008,-3.0008,-2.9993,-2.9735,-2.9607,-2.9607,-2.9252,-2.9124,-2.9124,-2.9124,-2.8786,-2.8338,-2.8338,-2.8023,-2.7625,-2.7625,-2.7625,-2.7675,-2.7675,-2.779,-2.784,-2.774,-2.757,-2.7485,-2.7549,-2.7478,-2.7252,-2.6849,-2.6775,-2.6654,-2.6153,-2.6016,-2.5986,-2.5804,-2.5652,-2.55,-2.5334,-2.4564,-2.394,-2.394,-2.2908,-2.1876,-2.1296,-2.1082,-2.0997,-2.0997,-2.0997,-2.1033,-2.1082,-2.1082,-2.1082,-2.1082,-2.1082,-2.1082,-2.1082,-2.1082,-2.1131,-2.1229,-2.1229,-2.1277,-2.1423,-2.1423,-2.1423,-2.1423,-2.1423,-2.1423,-2.1423,-2.1471,-2.152,-2.152,-2.1793,-2.141,-2.3905,-2.4653,-2.5322,-2.6051,-2.6496,-2.6666,-2.6515,-2.6707,-2.697,-2.6964,-2.556,-2.4858,-2.6454,-2.628,-2.6286,-2.7709,0.0,0.0,-2.9913,-3.0494,-3.1028,0.0,-3.2183,0.0,-3.3172,-3.3594,-3.3686,0.0,-3.3205,-3.2961,-3.279,-3.2498,-3.238,-3.2496,-3.1943,-3.156,-3.1274,-3.0928,-3.0779,-3.0779,-3.0709,-3.0654,-3.0584,-3.0188,-3.0013,-2.9888,0.0,-2.9401,-2.9401,-2.9401,-2.9178,-2.8797,-2.8797,-2.8613,-2.8286,-2.8286,-2.8286,-2.8286,-2.8286,-2.8286,-2.8301,-2.7769,-2.7625,-2.7625,-2.7675,-2.7725,-2.765,-2.7338,-2.7233,-2.7158,-2.6781,-2.669,-2.6615,-2.6314,-2.6111,-2.5878,-2.5595,-2.4869,-2.4198,-2.3932,-2.2902,-2.2035,-2.1653,-2.16,-2.1521,-2.127,-2.1231,-2.1125,-2.0875,-2.0947,-2.0997,-2.0997,-2.0997,-2.0997,-2.0997,-2.0997,-2.1033,-2.1082,-2.1082,-2.1131,-2.1229,-2.1229,-2.1229,-2.1229,-2.1277,-2.1326,-2.1326,-2.1166,-2.1215,-2.1423,-2.1361,-2.0957,-2.3903,-2.4584,-2.523,-2.5674,-2.6096,-2.606,-2.5194,-2.5381,-2.5713,-2.5586,-2.4404,-2.4044,-2.6078,-2.5934,-2.6044,-2.7582,0.0,-2.938,-2.9677,-3.0591,-3.1185,-3.1011,-3.2597,-3.3637,-3.3499,-3.4281,-3.4739,-3.4691,-3.4383,-3.3938,-3.3338,-3.3363,-3.3375,-3.3271,-3.2382,-3.1883,-3.1883,-3.1784,-3.1742,-3.1742,-3.1539,-3.1424,-3.1263,-3.0641,-3.0332,-3.0218,-2.9613,-2.9363,-2.9363,-2.9363,-2.9304,-2.923,-2.923,-2.9186,-2.9098,-2.9098,-2.9098,-2.9098,-2.9098,-2.9098,-2.8975,-2.8099,-2.7718,-2.7658,-2.7658,-2.7584,-2.7524,-2.7458,-2.7408,-2.7408,-2.7342,-2.7306,-2.7157,-2.6594,-2.6161,-2.5713,-2.5148,-2.464,-2.4142,-2.3425,-2.2924,-2.2561,-2.2428,-2.2415,-2.2191,-2.1707,-2.1629,-2.1446,-2.1,-2.0941,-2.0947,-2.0947,-2.0947,-2.0947,-2.0947,-2.0947,-2.0947,-2.0997,-2.0997,-2.0997,-2.0997,-2.0997,-2.0997,-2.0997,-2.1082,-2.118,-2.118,-2.097,-2.1006,-2.1313,-2.0957,-2.056,-2.3869,-2.4297,-2.4593,-2.5174,-2.5384,-2.534,-2.4912,-2.4999,0.0,-2.5105,-2.4483,-2.4601,-2.6727,-2.6598,-2.6684,-2.8275,-2.8948,-2.9305,-2.9213,-3.0231,-3.1092,0.0,-3.2466,-3.3356,-3.3907,-3.4136,0.0,0.0,-3.3887,-3.384,-3.3268,-3.2694,-3.213,-3.1552,-3.1351,-3.1264,-3.1264,-3.1249,-3.1205,-3.1205,-3.1205,-3.1146,-3.1132,-3.1013,-3.0969,-3.0911,-3.0793,0.0,-3.0734,-3.0734,-3.0424,-2.9938,-2.9938,-2.9599,-2.9098,-2.9098,-2.9098,-2.9098,-2.9098,-2.9098,-2.9068,-2.8887,-2.8459,-2.8015,-2.8015,-2.7646,-2.7167,-2.6669,-2.651,-2.639,-2.5892,-2.5783,-2.5755,-2.5751,-2.5737,-2.5655,-2.5664,-2.5582,-2.5213,-2.4163,-2.3865,-2.35,-2.2548,-2.2415,-2.2335,-2.2269,-2.223,-2.2232,-2.214,-2.1288,-2.0749,-2.0749,-2.0749,-2.0749,-2.0749,-2.0749,-2.0812,-2.0888,-2.0938,-2.0924,-2.0997,-2.0997,-2.0997,-2.0997,-2.1033,-2.1082,-2.118,-2.1131,-2.1068,-2.0894,-2.0845,-2.056,-2.3025,-2.3531,-2.4073,-2.4593,-2.4878,-2.4737,-2.3772,0.0,0.0,-2.3391,-2.3142,-2.3539,-2.5325,-2.567,-2.6045,-2.7083,-2.8065,-2.8629,-2.8478,-3.0082,-3.1309,-3.1356,-3.2674,-3.348,-3.3308,-3.3563,-3.3391,-3.2548,-3.3008,-3.3251,-3.2895,-3.2336,-3.1694,-3.1132,-3.1087,-3.1087,-3.1087,-3.1087,-3.1087,-3.1087,-3.1087,-3.1073,-3.0955,-3.0955,-3.0895,-3.0821,-3.0821,-3.0821,-3.0821,-3.0821,-3.0646,-3.0368,-3.0368,-3.0163,-2.9885,-2.9885,-2.9885,-2.9885,-2.9885,-2.9885,-2.9885,-2.9885,-2.9339,-2.8641,-2.8641,-2.8419,-2.8057,-2.7438,-2.7229,-2.7035,-2.6099,-2.5837,-2.5783,-2.5563,-2.5508,-2.5508,-2.5563,-2.5342,-2.4981,-2.4417,-2.404,-2.369,-2.3132,-2.3106,-2.3072,-2.2773,-2.2763,-2.2714,-2.2426,-2.1904,-2.1564,-2.159,-2.159,-2.159,-2.159,-2.159,-2.1603,-2.1668,-2.1668,-2.1707,-2.1746,-2.1746,-2.1759,-2.172,-2.1824,-2.1716,-2.1449,-2.1297,-2.1025,-2.061,-2.0359,-2.0055,-2.1832,-2.247,-2.316,-2.3623,-2.3917,-2.3758,-2.2387,-2.2285,0.0,-2.1676,-2.1733,-2.2382,-2.385,-2.4632,-2.5234,-2.5864,-2.6957,-2.7682,-2.7656,-2.9627,-3.1067,-3.0861,-3.251,0.0,-3.2454,-3.2741,0.0,-3.1697,-3.1967,-3.225,-3.2422,-3.1905,-3.1407,-3.1014,-3.1014,-3.1014,-3.1014,-3.1014,-3.1014,-3.1014,-3.1014,-3.0895,-3.0762,-3.0762,-3.0702,-3.0568,-3.0568,-3.0582,-3.0522,-3.0582,-3.0582,-3.0522,-3.0568,-3.0568,-3.0568,-3.0568,-3.0568,-3.0568,-3.0568,-3.0568,-3.0568,-3.0568,-2.9973,-2.9207,-2.9207,-2.9104,-2.8884,-2.8207,-2.8061,-2.7766,-2.6537,-2.63,-2.6272,-2.5507,-2.5159,-2.5063,-2.5175,-2.4851,-2.4509,-2.4509,-2.4118,-2.3734,-2.3628,-2.376,-2.3664,-2.3199,-2.3236,-2.3137,-2.2708,-2.2656,-2.2656,-2.2685,-2.2518,-2.2428,-2.2415,-2.2415,-2.2415,-2.2428,-2.2428,-2.2415,-2.2415,-2.2415,-2.2428,-2.24,-2.2508,-2.2326,-2.1904,-2.1707,-2.1316,-2.0797,-2.0319,-1.993,-2.0466,-2.0991,-2.1393,-2.1756,-2.193,-2.1834,-2.1028,0.0,-2.1162,-2.0998,-2.1342,-2.2181,-2.3962,-2.4364,-2.487,-2.6055,-2.6334,-2.6474,-2.6758,-2.8373,-2.9557,-2.9614,0.0,0.0,-3.1977,-3.1721,-3.1534,-3.142,-3.0837,-3.0911,-3.1736,-3.1131,-3.0687,-3.0642,-3.0642,-3.0642,-3.0642,-3.0642,-3.0642,-3.0642,-3.0642,-3.0642,-3.0642,-3.0642,-3.0628,-3.0568,-3.0568,-3.0401,0.0,-3.0462,-3.0401,-3.0172,-3.0462,-3.0568,-3.0568,-3.0568,-3.0568,-3.0568,-3.0568,-3.0568,-3.0568,-3.0568,-3.0103,-2.9537,-2.9537,-2.9188,-2.861,-2.8011,-2.7824,-2.7491,-2.6169,-2.6351,-2.6576,-2.5488,-2.4439,-2.3897,-2.4452,-2.4509,-2.4509,-2.4509,-2.4452,-2.4234,-2.3675,-2.3628,-2.3616,-2.3551,-2.3551,-2.3526,-2.3487,-2.3475,-2.3475,-2.3475,-2.286,-2.24,-2.2415,-2.2415,-2.2374,-2.24,-2.24,-2.2387,-2.2415,-2.2415,-2.2415,-2.2415,-2.24,-2.2428,-2.2537,-2.2484,-2.2336,-2.2042,-2.1471,-2.0986,-1.8488,-1.9168,-1.9806,-2.0159,-2.0401,-2.0403,-1.9763,0.0,-2.0078,-1.9641,-2.0273,-2.1152,-2.1979,-2.2863,-2.362,-2.4227,-2.5063,-2.568,-2.5824,-2.7644,-2.904,-2.9085,-3.0386,-3.113,0.0,0.0,-3.0615,-3.0343,-2.987,-2.9808,-3.0418,-3.0144,-2.9974,-2.9974,-2.9974,-2.9974,-2.9974,-2.9974,-2.9974,-2.9974,-2.9974,-2.9974,-2.9974,-2.9974,-2.9974,-2.9974,-2.9974,-2.9913,0.0,-2.9913,-2.9913,-2.9803,-2.9974,-2.9974,-2.9974,-2.9974,-2.9974,-2.9974,-2.9974,-2.9974,-2.9974,-2.9974,-2.9803,-2.9665,-3.0086,-3.0016,-2.9682,-2.9044,-2.8885,-2.8493,-2.6762,-2.5959,-2.5495,-2.5088,-2.462,-2.4405,-2.4628,-2.469,-2.46,-2.4253,-2.4176,-2.4013,-2.3381,-2.339,-2.345,-2.345,-2.3569,-2.3628,-2.3628,-2.3628,-2.3628,-2.3628,-2.3289,-2.3134,-2.3121,-2.3121,-2.3121,-2.3134,-2.3134,-2.3134,-2.3121,-2.3249,-2.3306,-2.3306,-2.3376,-2.3263,-2.2952,-2.2952,-2.2604,-2.1869,-2.1412,-2.0908,-1.6775,-1.7523,-1.8208,-1.8501,-1.8811,-1.892,0.0,0.0,-1.8937,-1.8583,-1.9238,-2.0035,-2.0635,-2.1545,-2.2387,-2.2957,-2.3949,-2.4717,-2.4776,-2.652,-2.7795,-2.7881,0.0,-2.987,-2.9377,-2.9643,-2.9623,-2.9275,-2.9022,-2.8958,-2.9289,-2.9289,-2.9415,-2.9602,-2.9602,-2.9602,-2.9602,-2.9602,-2.9602,-2.9602,-2.9602,-2.9602,-2.9602,-2.9602,-2.9602,-2.9602,-2.9602,-2.954,0.0,-2.954,-2.954,-2.9477,-2.954,-2.9602,-2.9602,-2.9602,-2.9602,-2.9602,-2.9401,-2.9477,-2.954,-2.9198,-2.9338,-2.9665,-2.9946,-3.0205,-3.0179,-2.9734,-2.9485,-2.9011,-2.7687,-2.6227,-2.5124,-2.5176,-2.4921,-2.4691,-2.4691,-2.4755,-2.4707,-2.4318,-2.4243,-2.4117,-2.3703,-2.3701,-2.3773,-2.3609,-2.3644,-2.3641,-2.3463,-2.3437,-2.3437,-2.3437,-2.3437,-2.3509,-2.3569,-2.3628,-2.3628,-2.3628,-2.3628,-2.3628,-2.3628,-2.376,-2.3819,-2.3819,-2.3878,-2.3729,-2.3301,-2.3301,-2.2923,-2.2255,-2.1555,-2.09,-1.5296,-1.601,-1.6592,-1.6782,-1.6982,-1.719,0.0,-1.7664,-1.7869,-1.8058,-1.838,-1.9073,-2.0534,-2.0793,-2.1352,-2.2951,-2.3227,-2.3291,-2.3593,-2.4654,-2.5494,0.0,-2.7178,-2.8168,-2.8283,-2.8504,-2.8509,-2.8352,-2.8287,0.0,-2.8587,-2.8587,-2.8908,-2.9602,-2.9602,-2.9602,-2.9602,-2.9602,-2.9602,-2.9602,-2.9602,-2.9602,-2.9602,-2.9602,-2.9602,-2.9602,-2.9602,-2.9415,0.0,-2.9477,-2.9415,-2.9162,-2.9477,-2.9602,-2.9602,-2.9602,-2.9602,-2.954,-2.8994,-2.9135,-2.9401,-2.839,-2.8725,-2.9477,-2.8994,-2.9198,-2.9602,-2.9602,-2.9085,-2.8638,-2.8725,-2.7314,-2.593,-2.6023,-2.529,-2.4471,-2.4471,-2.4678,-2.482,-2.4808,-2.4808,-2.4808,-2.4808,-2.4808,-2.4619,-2.4067,-2.3991,-2.3791,-2.3213,-2.3138,-2.3138,-2.3138,-2.3138,-2.3258,-2.3569,-2.3628,-2.3628,-2.3628,-2.3628,-2.3628,-2.3628,-2.3628,-2.3628,-2.3628,-2.3628,-2.3616,-2.3616,-2.3616,-2.3616,-2.3543,-2.2421,-2.116,-1.3693,-1.4211,-1.4668,-1.5008,-1.529,-1.5604,-1.602,-1.6394,-1.6757,-1.7093,-1.7476,-1.818,-1.9549,-1.9956,-2.0584,-2.1959,-2.2588,-2.2928,0.0,0.0,0.0,-2.5757,-2.716,-2.8143,0.0,0.0,-2.821,-2.8197,-2.8131,-2.8197,-2.8276,-2.8276,-2.8471,-2.8908,-2.8908,-2.883,-2.8688,-2.883,-2.883,-2.8688,-2.8688,-2.8688,-2.8688,-2.8651,-2.8587,-2.8587,-2.8587,-2.8587,-2.856,-2.8688,-2.8702,-2.878,-2.8908,-2.8908,-2.8908,-2.8908,-2.8908,-2.8908,-2.8702,-2.8766,-2.878,-2.8091,-2.8091,-2.83,-2.7762,-2.8546,-2.9602,-2.9602,-2.8817,-2.8012,-2.8065,-2.6953,-2.5915,-2.5971,-2.571,-2.5462,-2.5462,-2.5531,-2.5419,-2.5061,-2.4987,-2.4851,-2.4468,-2.4394,-2.4344,-2.4171,-2.4147,-2.4085,-2.3899,-2.3566,-2.3343,-2.3343,-2.3022,-2.2969,-2.3258,-2.3258,-2.3258,-2.3258,-2.3258,-2.3258,-2.3258,-2.339,-2.3463,-2.3463,-2.3569,-2.3628,-2.3628,-2.3628,-2.3198,-2.2445,-2.2063,-2.1035,-1.248,-1.3059,-1.3539,-1.397,-1.433,0.0,-1.5284,-1.5635,-1.6016,-1.6473,-1.685,-1.7509,-1.8766,-1.9306,-1.9951,-2.1309,-2.1936,-2.2387,-2.2573,0.0,0.0,-2.5788,-2.6832,0.0,0.0,-2.7749,-2.7815,-2.7815,-2.7881,-2.7881,-2.8,-2.8079,-2.821,-2.8406,-2.8406,-2.8327,-2.8249,-2.8327,-2.8327,-2.8235,-2.8235,-2.8235,-2.8249,-2.8131,-2.8079,-2.8079,-2.8079,-2.8131,0.0,-2.8235,-2.8314,-2.8406,-2.8406,-2.8406,-2.8406,-2.8406,-2.8406,-2.8392,-2.8197,-2.8052,-2.7829,-2.7095,-2.6812,-2.6744,-2.6607,-2.7683,-2.8958,-2.9162,-2.8495,-2.7683,-2.7484,-2.6756,-2.5968,-2.5758,-2.5758,-2.5758,-2.5758,-2.584,-2.5812,-2.5468,-2.5406,-2.5296,-2.4872,-2.4811,-2.4737,-2.4541,-2.4516,-2.4431,-2.4222,-2.3916,-2.3784,-2.3784,-2.3304,-2.3047,-2.3219,-2.3094,-2.2969,-2.3017,-2.3017,-2.3078,-2.3078,-2.321,-2.3271,-2.3271,-2.3378,-2.3378,-2.3378,-2.3378,-2.2712,-2.1334,-2.1334,-2.0499,0.0,-1.2367,-1.3095,-1.35,-1.3876,-1.4281,-1.498,-1.5337,0.0,-1.6139,-1.6479,-1.7004,-1.8219,-1.8747,-1.9509,-2.0846,-2.1314,-2.1652,0.0,-2.2972,0.0,0.0,-2.6312,0.0,-2.6976,-2.7146,-2.7268,-2.7268,-2.7403,-2.7523,-2.7723,-2.7934,-2.8013,-2.8013,-2.8013,-2.8013,-2.8079,-2.8079,-2.8079,-2.8079,-2.8079,-2.8079,-2.8079,-2.8079,-2.8079,0.0,-2.8079,-2.8079,0.0,-2.8079,-2.8079,-2.8079,-2.8079,-2.8079,-2.8079,-2.8079,-2.8079,-2.8013,-2.7536,-2.7175,-2.6799,-2.5709,-2.5158,-2.5004,-2.5545,-2.6663,-2.7842,-2.8314,-2.8118,-2.7643,-2.7108,-2.6633,-2.6025,-2.5453,-2.5453,-2.5606,-2.5606,-2.5758,-2.584,-2.584,-2.584,-2.584,-2.584,-2.584,-2.5669,-2.5166,-2.5093,-2.4896,-2.4369,-2.4271,-2.4247,-2.4247,-2.3793,-2.355,-2.355,-2.3022,-2.2739,-2.2848,-2.2909,-2.2969,-2.3078,-2.3078,-2.3078,-2.3078,-2.3078,-2.3053,-2.3015,-2.3015,-2.2104,-2.0369,-2.0369,-1.956,-0.9517,0.0,-1.1995,-1.2415,-1.2938,-1.3456,0.0,0.0,0.0,0.0,0.0,-1.643,-1.7743,-1.8201,-1.8753,-1.9871,-2.0508,-2.1205,-2.2033,-2.3697,0.0,-2.6034,-2.6442,-2.6678,-2.6769,-2.6943,-2.7079,-2.7079,-2.7079,-2.7146,-2.7214,-2.7214,-2.7281,-2.7281,-2.7281,-2.7482,-2.7855,-2.8,-2.8,-2.7855,-2.7855,-2.7855,-2.7855,-2.7723,-2.7669,-2.7669,-2.7669,-2.7736,-2.7855,-2.7855,-2.7934,-2.8079,-2.8079,-2.8079,-2.8079,-2.8079,-2.8079,-2.8079,-2.7947,-2.7868,-2.759,-2.6333,-2.5229,-2.4467,-2.5016,-2.5894,-2.6854,-2.7391,-2.7351,-2.7175,-2.704,-2.6633,-2.6025,-2.5453,-2.5312,-2.5382,-2.5382,-2.5382,-2.5465,-2.5465,-2.5465,-2.5465,-2.5465,-2.5465,-2.5417,-2.5284,-2.5272,-2.5223,-2.5021,-2.4647,-2.4406,-2.4406,-2.4014,-2.3712,-2.3712,-2.3105,-2.2678,-2.2739,-2.2739,-2.2739,-2.28,-2.28,-2.28,-2.28,-2.28,-2.259,-2.2182,-2.2288,-2.1626,-2.0323,-1.997,-1.9163,-0.7794,-0.937,-1.1049,-1.1742,-1.2295,-1.288,-1.36,0.0,0.0,0.0,0.0,-1.6207,-1.7159,-1.7784,-1.8437,-1.9222,-1.9794,0.0,0.0,0.0,-2.4546,-2.5563,-2.5873,-2.6164,0.0,-2.6589,-2.6726,-2.6615,-2.6807,-2.6863,-2.6863,-2.6943,-2.7024,-2.7024,-2.7024,-2.7146,-2.7403,-2.7603,-2.7669,-2.759,-2.7656,-2.7656,-2.7656,-2.7523,-2.7523,-2.7523,-2.7523,-2.759,-2.7656,-2.7656,-2.7723,-2.7802,-2.7802,-2.7802,-2.7802,-2.7802,-2.7802,-2.7802,-2.7456,-2.7108,-2.662,-2.5545,-2.4707,-2.4154,-2.4082,-2.4564,-2.5405,-2.6705,-2.6799,-2.662,-2.662,-2.6208,-2.5594,-2.4969,-2.4826,-2.4826,-2.4826,-2.4826,-2.4826,-2.4826,-2.4826,-2.4826,-2.4826,-2.4969,-2.5052,-2.5052,-2.5182,-2.5312,-2.5312,-2.5059,-2.4879,-2.4879,-2.4422,-2.4109,-2.4109,-2.3571,-2.3225,-2.3289,-2.3289,-2.3242,-2.3059,-2.3059,-2.2936,-2.269,-2.2444,-2.2174,-2.1879,-2.1737,-2.0904,-1.9494,-1.9206,-1.8356,-0.6401,-0.8078,-1.0022,-1.0905,-1.161,-1.2264,-1.2871,0.0,0.0,0.0,0.0,-1.6026,-1.655,-1.7352,0.0,0.0,0.0,0.0,-2.157,-2.2465,-2.3372,-2.4637,-2.5016,0.0,-2.5618,-2.6013,-2.6151,-2.6062,-2.6383,-2.6589,-2.6589,-2.6739,-2.6807,-2.6807,-2.6888,-2.6888,-2.6888,-2.7146,-2.7268,-2.7268,-2.7403,-2.7403,-2.7403,-2.7403,-2.7403,-2.7403,0.0,0.0,-2.7403,-2.7403,-2.7403,-2.7403,-2.7469,-2.7469,-2.7469,-2.7456,-2.7523,-2.739,-2.6633,-2.5861,-2.5004,-2.4337,-2.4047,-2.3841,-2.3213,-2.3224,-2.3936,-2.5881,-2.6308,-2.6114,-2.6114,-2.5779,-2.5229,-2.4539,-2.4261,-2.42,-2.42,-2.42,-2.42,-2.42,-2.42,-2.42,-2.42,-2.449,-2.4718,-2.4718,-2.4981,-2.5099,-2.5099,-2.5099,-2.5099,-2.5099,-2.4706,-2.4431,-2.4431,-2.4118,-2.3934,-2.3989,-2.3966,-2.3818,-2.3573,-2.3548,-2.3291,-2.2764,-2.2224,-2.1856,-2.1697,-2.1203,-2.0133,-1.8578,-1.8453,-1.756,-0.5597,-0.6869,-0.83,-0.9166,-1.0305,-1.1351,-1.2021,0.0,0.0,0.0,0.0,0.0,0.0,-1.6598,-1.7213,0.0,0.0,-2.0514,0.0,0.0,-2.3553,-2.3779,0.0,-2.436,-2.4443,-2.5087,-2.5453,-2.5465,-2.5828,-2.6037,-2.6037,-2.6037,-2.605,-2.605,-2.6201,-2.6339,-2.6339,-2.682,-2.7011,-2.7011,-2.7079,-2.7079,-2.7079,-2.7079,-2.7079,-2.7079,0.0,-2.7079,-2.7079,-2.7079,-2.7079,-2.7079,-2.7268,-2.7335,-2.7335,-2.7469,-2.7523,-2.739,-2.6633,-2.5487,-2.4264,-2.4108,-2.3706,-2.3139,-2.3001,-2.3075,-2.3287,-2.4253,-2.5252,-2.6114,-2.6114,-2.6045,-2.5849,-2.5241,-2.4683,-2.42,-2.42,-2.42,-2.42,-2.42,-2.42,-2.42,-2.42,-2.4273,-2.4273,-2.4273,-2.4334,-2.4406,-2.4406,-2.4406,-2.4406,-2.4406,-2.4264,-2.4218,-2.4218,-2.4149,-2.4186,-2.4174,-2.3982,-2.3791,-2.3784,-2.3784,-2.353,-2.2935,-2.2404,-2.1693,-2.0788,-2.037,-1.9812,-1.9066,-1.823,-1.7678,-0.4174,-0.499,-0.6045,-0.7044,-0.8969,-1.0825,0.0,0.0,0.0,0.0,0.0,0.0,0.0,0.0,-1.6999,-1.765,0.0,-1.9895,-2.0377,-2.1503,-2.2473,0.0,0.0,-2.357,-2.402,-2.4443,-2.4802,-2.5087,-2.5382,-2.5676,-2.591,-2.591,-2.591,-2.591,-2.6131,-2.6131,-2.6062,-2.6533,-2.6739,-2.6875,-2.6943,-2.7024,-2.7024,-2.7024,-2.7024,-2.7024,0.0,-2.7024,-2.7024,-2.7024,-2.7024,-2.7024,-2.7079,-2.7146,-2.7146,-2.7214,-2.6701,-2.5975,-2.6045,-2.5334,-2.4337,-2.3891,-2.3537,-2.3191,-2.2767,-2.2703,-2.2777,-2.3117,-2.442,-2.5569,-2.5122,-2.5346,-2.5429,-2.4299,-2.3801,-2.3519,-2.3519,-2.3519,-2.3519,-2.3519,-2.3519,-2.3519,-2.3519,-2.3751,-2.3897,-2.3897,-2.4043,-2.42,-2.42,-2.42,-2.42,-2.42,-2.42,-2.42,-2.42,-2.42,-2.42,-2.42,-2.3781,-2.3718,-2.391,-2.3364,-2.3025,-2.2991,-2.2185,-2.1536,-2.1043,-2.0258,-1.9428,-1.855,-1.7779,-1.7101,-0.3021,-0.3188,-0.3722,-0.4948,-0.7485,0.0,0.0,0.0,0.0,0.0,0.0,0.0,0.0,-1.5557,0.0,-1.7607,-1.8446,-1.9178,-1.9665,-2.0607,-2.1428,-2.2017,-2.2327,-2.2703,-2.3372,-2.3728,-2.4082,-2.4587,-2.4802,-2.5182,-2.563,-2.563,-2.57,-2.5758,-2.598,-2.598,-2.584,-2.6176,-2.6383,-2.6521,-2.6739,-2.6888,-2.682,-2.6888,-2.6875,-2.6875,-2.6875,-2.6875,-2.6875,-2.6875,-2.6875,-2.6875,-2.6943,-2.6943,-2.6956,-2.6794,-2.5861,-2.4779,-2.511,-2.4755,-2.4059,-2.3463,-2.3243,-2.3169,-2.2542,-2.2402,-2.2402,-2.2402,-2.3632,-2.4719,-2.4192,-2.4492,-2.4647,-2.3497,-2.3065,-2.2927,-2.3001,-2.3001,-2.3001,-2.3001,-2.3001,-2.3001,-2.3001,-2.3224,-2.3446,-2.3446,-2.3751,-2.3897,-2.3897,-2.3897,-2.3897,-2.3897,-2.3897,-2.3897,-2.3897,-2.3897,-2.3897,-2.3897,-2.3689,-2.3699,-2.3839,-2.308,-2.2686,-2.271,-2.1806,-2.1283,-2.1152,-2.0201,-1.9147,-1.8027,-1.7483,-1.6633,-0.2747,-0.1931,-0.1568,-0.3304,-0.5552,0.0,-0.94,-1.01,0.0,-1.1596,0.0,0.0,0.0,-1.5006,-1.6054,-1.6846,-1.7831,-1.8724,-1.9268,0.0,-2.1201,-2.1272,-2.1655,-2.1883,-2.1959,-2.2628,-2.315,-2.3446,-2.3813,-2.4261,-2.4861,-2.4861,-2.4992,-2.5312,-2.5535,-2.5618,-2.5606,-2.5828,-2.598,-2.598,-2.6314,-2.6465,-2.627,-2.6465,-2.6533,-2.6533,-2.6533,-2.6533,-2.6533,-2.6533,-2.6533,-2.6533,-2.6658,-2.6875,-2.6943,-2.6195,-2.5405,-2.4636,-2.3891,-2.3169,-2.2542,-2.2467,-2.2478,-2.2467,-2.2402,-2.2402,-2.2402,-2.2402,-2.2957,-2.3661,-2.3818,-2.3891,-2.3891,-2.3963,-2.3338,-2.2777,-2.2927,-2.3001,-2.3001,-2.3001,-2.3001,-2.3001,-2.3001,-2.3001,-2.3075,-2.3075,-2.3075,-2.3075,-2.3075,-2.3075,-2.3075,-2.3075,-2.3075,-2.3075,-2.3075,-2.3075,-2.3075,-2.3075,-2.3717,-2.3925,-2.3524,-2.3432,-2.2937,-2.197,-2.1504,-2.0945,-2.0473,-1.9861,-1.9111,-1.8165,-1.7541,-1.6774,-0.0894,-0.1083,-0.1524,-0.2239,-0.4224,0.0,0.0,-0.9272,-0.9852,-1.0383,-1.1527,0.0,0.0,0.0,-1.5549,-1.6515,-1.7502,-1.8323,-1.8839,-1.9954,-2.0654,-2.0809,-2.1195,-2.1502,-2.1807,-2.2176,-2.2628,-2.3075,-2.3372,-2.3751,-2.42,-2.4345,-2.4478,-2.4611,-2.5028,-2.5182,-2.5135,-2.563,-2.5758,-2.5535,-2.5898,-2.6119,-2.598,-2.6119,-2.6119,-2.6119,-2.6258,-2.6339,-2.6339,-2.6465,-2.6533,-2.6533,-2.6589,-2.6013,-2.5276,-2.6,-2.5146,-2.3632,-2.3829,-2.3401,-2.2703,-2.2176,-2.2035,-2.2035,-2.2035,-2.2035,-2.2035,-2.2035,-2.2317,-2.267,-2.2894,-2.3243,-2.3526,-2.3106,-2.2756,-2.2553,-2.2628,-2.2628,-2.2628,-2.2628,-2.2703,-2.2777,-2.2777,-2.2927,-2.3001,-2.3001,-2.3001,-2.3001,-2.3001,-2.3001,-2.3001,-2.3001,-2.3001,-2.3001,-2.3001,-2.3001,-2.3001,-2.3001,-2.3298,-2.3369,-2.316,-2.2842,-2.2412,-2.1893,-2.1475,-2.1066,-2.0882,-2.0377,-1.9526,-1.8523,-1.793,-1.6951,-0.0227,-0.0517,-0.1238,-0.2644,0.0,0.0,-0.7182,-0.8354,-0.9083,-0.9682,-1.1042,-1.2528,-1.3947,0.0,0.0,0.0,-1.6956,-1.7728,-1.8165,-1.9258,-2.0098,-2.0245,-2.0722,-2.1195,-2.1578,-2.1807,-2.2101,-2.2703,-2.2852,-2.315,-2.3677,-2.3824,-2.397,-2.4189,-2.4683,-2.4909,-2.479,-2.5419,-2.5535,-2.5312,-2.5606,-2.5758,-2.5828,-2.584,-2.591,-2.591,-2.6062,-2.6131,-2.6213,-2.6339,-2.6465,-2.6452,-2.6245,-2.5581,-2.4921,-2.5229,-2.4515,-2.335,-2.3401,-2.3043,-2.2553,-2.1959,-2.1807,-2.1807,-2.1807,-2.1959,-2.2101,-2.1883,-2.2101,-2.2327,-2.2252,-2.2606,-2.2957,-2.2467,-2.2327,-2.2327,-2.2402,-2.2402,-2.2402,-2.2402,-2.2478,-2.2628,-2.2628,-2.2703,-2.2777,-2.2777,-2.2777,-2.2777,-2.2777,-2.2777,-2.2852,-2.2927,-2.2852,-2.2852,-2.3001,-2.2927,-2.2927,-2.3001,-2.3001,-2.2864,-2.251,-2.2165,-2.1744,-2.1337,-2.1009,-2.0839,-2.0839,-2.05,-1.9676,-1.8435,-1.8061,-1.7039,-0.1111,-0.0175,-0.0415,0.0,0.0,0.0,-0.5853,-0.735,-0.8371,-0.984,-1.1294,-1.2487,-1.3244,-1.3739,0.0,-1.4993,-1.6067,-1.696,-1.7203,-1.8401,-1.9371,-1.9599,-2.0167,-2.0731,-2.1128,-2.1359,-2.1655,-2.2025,-2.2101,-2.2478,-2.3224,-2.3298,-2.3593,-2.42,-2.4574,-2.4801,-2.4801,-2.5111,-2.5312,-2.5312,-2.5312,-2.5382,-2.5606,-2.5828,-2.5898,-2.5898,-2.591,-2.5992,-2.6201,-2.6213,-2.6339,-2.6383,-2.5594,-2.5734,-2.6176,-2.3863,-2.3486,-2.3829,-2.2306,-2.1807,-2.1807,-2.1807,-2.1807,-2.1807,-2.1807,-2.2327,-2.2852,-2.2025,-2.2402,-2.2777,-2.2025,-2.1959,-2.2176,-2.2327,-2.2252,-2.2176,-2.2327,-2.2402,-2.2402,-2.2402,-2.2402,-2.2402,-2.2402,-2.2402,-2.2402,-2.2402,-2.2402,-2.2402,-2.2402,-2.2402,-2.2478,-2.2703,-2.2553,-2.2553,-2.2927,-2.2777,-2.2777,-2.3001,-2.3001,-2.2575,-2.1625,-2.1592,-2.1134,-2.0096,-2.0085,-2.0085,-2.0085,-2.0085,-1.9371,-1.793,-1.793,-1.6894,0.2033,0.0743,0.0,-0.1478,0.0,0.0,0.0,-0.6538,0.0,0.0,-1.0955,-1.188,-1.2671,-1.3248,0.0,-1.4425,-1.5289,-1.6146,-1.6707,-1.7476,-1.8285,-1.9116,-1.946,-1.9932,-2.0722,-2.0954,-2.1262,-2.1655,-2.1807,-2.2025,-2.2402,-2.2628,-2.2777,-2.315,-2.3519,-2.3824,-2.397,-2.4634,-2.4921,-2.4921,-2.5182,-2.5312,-2.5382,-2.5453,-2.5465,-2.5465,-2.5606,-2.5688,-2.5758,-2.591,-2.5676,-2.5217,-2.5004,-2.4337,-2.3599,-2.361,-2.3032,-2.2306,-2.2542,-2.2252,-2.1807,-2.1807,-2.1807,-2.1807,-2.1807,-2.1959,-2.2111,-2.1883,-2.1959,-2.2101,-2.1883,-2.1807,-2.1883,-2.1949,-2.1949,-2.1883,-2.1959,-2.1959,-2.1959,-2.1959,-2.2111,-2.2176,-2.2176,-2.2327,-2.2402,-2.2402,-2.2402,-2.2402,-2.2402,-2.2402,-2.2402,-2.2478,-2.2402,-2.2478,-2.2553,-2.2553,-2.2478,-2.2553,-2.2553,-2.2282,-2.1636,-2.1592,-2.1134,-2.0096,-2.0085,-2.0074,-1.9944,-1.9944,-1.9257,-1.7974,-1.7974,-1.7159,0.1543,0.0119,0.0,-0.1451,-0.3089,-0.4698,-0.5073,0.0,0.0,0.0,-1.0553,-1.1582,-1.2209,-1.2694,0.0,-1.3861,-1.461,-1.536,-1.604,-1.681,-1.7615,-1.8399,-1.8913,-1.946,-2.0167,-2.0557,-2.0867,-2.1262,-2.1425,-2.1655,-2.1959,-2.2101,-2.2327,-2.2703,-2.3075,-2.3372,-2.3593,-2.4273,-2.4646,-2.479,-2.4981,-2.5182,-2.5312,-2.5312,-2.5312,-2.5312,-2.5535,-2.5606,-2.5606,-2.584,-2.5465,-2.4636,-2.4337,-2.3672,-2.2798,-2.2798,-2.2371,-2.1863,-2.2176,-2.2025,-2.1655,-2.1655,-2.1959,-2.2252,-2.1883,-2.2166,-2.2456,-2.1873,-2.1873,-2.1939,-2.1655,-2.1578,-2.1578,-2.1731,-2.1807,-2.1807,-2.1807,-2.1807,-2.1807,-2.1807,-2.1883,-2.1959,-2.1959,-2.2101,-2.2176,-2.2176,-2.2176,-2.2176,-2.2176,-2.2176,-2.2176,-2.2252,-2.2176,-2.2262,-2.2402,-2.2327,-2.2327,-2.2402,-2.2402,-2.2147,-2.1674,-2.1469,-2.1015,-2.018,-1.9975,-1.9878,-1.9802,-1.9802,-1.9187,-1.7969,-1.7969,-1.7273,-0.0744,-0.1142,-0.1739,-0.3374,-0.3006,0.0,-0.5197,-0.7082,-0.8413,-0.891,0.0,-1.1484,-1.1929,-1.215,-1.2599,-1.3346,-1.4004,-1.4647,-1.5312,-1.6349,-1.718,-1.761,-1.8434,-1.9073,-1.952,-2.0167,-2.0644,-2.0867,-2.1041,-2.1359,-2.1731,-2.1807,-2.2025,-2.2628,-2.3001,-2.3298,-2.353,-2.3897,-2.4345,-2.4718,-2.4718,-2.4909,-2.5241,-2.5312,-2.5312,-2.5312,-2.5453,-2.5535,-2.5465,-2.5676,-2.5229,-2.4337,-2.3599,-2.3294,-2.3084,-2.1711,-2.1645,-2.2145,-2.1425,-2.1359,-2.1512,-2.1553,-2.2164,-2.2767,-2.2064,-2.2724,-2.3375,-2.1998,-2.1987,-2.2271,-2.1547,-2.1296,-2.1343,-2.1717,-2.1762,-2.1731,-2.1731,-2.1731,-2.1731,-2.1731,-2.1731,-2.1731,-2.1731,-2.1731,-2.1731,-2.1807,-2.1807,-2.1807,-2.1807,-2.1807,-2.1883,-2.2025,-2.1883,-2.1959,-2.2327,-2.2176,-2.2176,-2.2327,-2.2327,-2.2136,-2.1702,-2.1328,-2.0871,-2.0392,-1.9913,-1.9669,-1.9613,-1.956,-1.9065,-1.8037,-1.7969,-1.7147,0.2047,0.0297,0.0,-0.1998,-0.301,-0.411,-0.5083,-0.6151,-0.725,-0.852,-1.0045,-1.126,-1.1706,-1.2157,-1.2673,-1.2973,-1.3672,-1.4318,-1.5042,-1.5747,-1.6517,-1.7359,-1.7878,-1.8442,-1.9073,-1.9557,-2.0029,-2.0644,-2.0722,-2.0964,-2.1502,-2.1578,-2.1807,-2.2176,-2.2327,-2.2553,-2.2927,-2.3298,-2.3604,-2.3824,-2.4189,-2.4562,-2.4921,-2.5182,-2.5312,-2.5312,-2.5382,-2.5016,-2.4409,-2.448,-2.3683,-2.2424,-2.2199,-2.1756,-2.1231,-2.1051,-2.1051,-2.1195,-2.1205,-2.1205,-2.1343,-2.1597,-2.1865,-2.2084,-2.2291,-2.2543,-2.2693,-2.2392,-2.2392,-2.2463,-2.2241,-2.198,-2.1708,-2.1787,-2.1534,-2.1359,-2.1359,-2.1359,-2.1359,-2.1359,-2.1359,-2.1359,-2.1359,-2.1359,-2.1359,-2.1502,-2.1731,-2.1807,-2.1807,-2.1807,-2.1807,-2.1883,-2.1807,-2.1807,-2.1959,-2.1883,-2.1873,-2.1959,-2.1949,-2.1907,-2.1803,-2.1649,-2.1339,-2.0881,-2.0413,-2.0101,-1.9897,-1.953,-1.9008,-1.8192,-1.7784,-1.7189,0.1626,0.0,0.0,-0.2147,0.0,-0.4016,-0.481,-0.5584,-0.6531,-0.7618,-0.9437,-1.1025,-1.1558,-1.2077,-1.2526,-1.2746,-1.3315,-1.4008,-1.4872,-1.5362,-1.5947,-1.6935,-1.7383,-1.7789,-1.8442,-1.9002,-1.9557,-2.0108,-2.0342,-2.0644,-2.1041,-2.1272,-2.1502,-2.1949,-2.2025,-2.2327,-2.2703,-2.2927,-2.3224,-2.3593,-2.3824,-2.4116,-2.4502,-2.504,-2.5312,-2.53,-2.4862,-2.4632,-2.4391,-2.3773,-2.3014,-2.2076,-2.1849,-2.1318,-2.0644,-2.0731,-2.0741,-2.0741,-2.0886,-2.1103,-2.14,-2.163,-2.2149,-2.2672,-2.2534,-2.2666,-2.2808,-2.2431,-2.2287,-2.2205,-2.2205,-2.2036,-2.1858,-2.1858,-2.153,-2.1205,-2.1205,-2.1205,-2.1205,-2.1205,-2.1205,-2.1205,-2.1205,-2.1205,-2.1205,-2.1359,-2.1436,-2.1502,-2.1502,-2.1502,-2.1578,-2.1655,-2.1578,-2.1578,-2.1655,-2.1655,-2.1655,-2.1512,-2.1655,-2.1731,-2.1655,-2.172,-2.1523,-2.1072,-2.06,-2.0289,-2.0219,-1.976,-1.9192,-1.8577,-1.7743,-1.7166,0.0583,0.0,-0.1136,-0.2788,-0.3226,0.0,-0.4501,-0.5284,-0.6023,-0.6757,-0.8652,-1.034,-1.1105,-1.1626,-1.1922,-1.2224,-1.2777,-1.3543,-1.4469,-1.5038,-1.5617,-1.6527,-1.6894,-1.7302,-1.787,-1.8523,-1.9082,-1.9487,-1.9951,-2.0342,-2.0566,-2.0964,-2.1359,-2.1731,-2.1883,-2.2176,-2.2628,-2.2628,-2.2852,-2.3446,-2.3446,-2.3604,-2.397,-2.4515,-2.4862,-2.4933,-2.412,-2.3909,-2.4108,-2.3198,-2.2505,-2.208,-2.1927,-2.1456,-2.0944,-2.1021,-2.0994,-2.0908,-2.1053,-2.1352,-2.1589,-2.1819,-2.2554,-2.3348,-2.2796,-2.2879,-2.3176,-2.2496,-2.2266,-2.21,-2.21,-2.2051,-2.1992,-2.1992,-2.1569,-2.1171,-2.1171,-2.1188,-2.1128,-2.1128,-2.1128,-2.1128,-2.1128,-2.1128,-2.1128,-2.1128,-2.1205,-2.1205,-2.1205,-2.1205,-2.1282,-2.1436,-2.1282,-2.1282,-2.1425,-2.1425,-2.1359,-2.1205,-2.1502,-2.1655,-2.1436,-2.1578,-2.147,-2.109,-2.071,-2.0545,-2.0545,-2.01,-1.9553,-1.8894,-1.7916,-1.7162,0.1922,0.0,-0.2326,0.0,-0.3493,-0.3924,0.0,0.0,-0.5702,0.0,-0.7882,-0.8836,-0.9523,-0.982,-1.0121,-1.0714,-1.1702,-1.2685,-1.3597,-1.4634,-1.561,-1.6355,-1.6804,-1.7221,-1.7473,-1.8201,-1.8851,-1.9082,-1.9627,-2.0177,-2.0566,-2.0819,-2.1128,-2.1502,-2.1589,-2.1807,-2.2176,-2.2176,-2.2402,-2.2852,-2.2852,-2.2852,-2.2927,-2.2798,-2.301,-2.3548,-2.2861,-2.222,-2.163,-2.1791,-2.1605,-2.1131,-2.1832,-2.2118,-2.2166,-2.2521,-2.2474,-2.2288,-2.3022,-2.2646,-2.202,-2.3103,-2.3109,-2.266,-2.2938,-2.3046,-2.3132,-2.2969,-2.2969,-2.2969,-2.2969,-2.2705,-2.2432,-2.2432,-2.1777,-2.1232,-2.1232,-2.0918,-2.0644,-2.0644,-2.0644,-2.0644,-2.0644,-2.0819,-2.0906,-2.0906,-2.1051,-2.1205,-2.1205,-2.1205,-2.1205,-2.1205,-2.1205,-2.1205,-2.1205,-2.1205,-2.1205,-2.1205,-2.1282,-2.1282,-2.1205,-2.1282,-2.1252,-2.1191,-2.1036,-2.1021,-2.1021,-2.0555,-1.9849,-1.8904,-1.8273,-1.7483,0.2202,-0.0244,-0.2551,0.0,-0.3491,-0.3919,-0.4444,-0.4989,-0.5482,-0.5989,-0.6821,-0.7778,-0.8922,-0.9372,-0.9744,-1.0115,-1.0738,-1.1796,-1.325,-1.3843,-1.4685,-1.6093,-1.6409,-1.673,-1.7229,-1.7878,-1.8451,-1.8772,-1.9399,-1.9872,-2.0177,-2.0576,-2.0896,-2.1359,-2.1436,-2.1655,-2.2101,-2.2101,-2.2327,-2.2703,-2.2327,-2.2252,-2.2327,-2.1527,-2.1735,-2.2713,-2.1962,-2.1584,-2.1449,-2.1183,-2.106,-2.1128,-2.1494,-2.1849,-2.2306,-2.2216,-2.219,-2.2362,-2.2592,-2.2421,-2.2191,-2.2854,-2.2998,-2.29,-2.3086,-2.3135,-2.3135,-2.3135,-2.3135,-2.3135,-2.3135,-2.2998,-2.2803,-2.2568,-2.2051,-2.1533,-2.1289,-2.0879,-2.0566,-2.0566,-2.0566,-2.0566,-2.0566,-2.0654,-2.0731,-2.0731,-2.0809,-2.0886,-2.0886,-2.0886,-2.0886,-2.0984,-2.0896,-2.0886,-2.0984,-2.1061,-2.0974,-2.0886,-2.1051,-2.1128,-2.1061,-2.1128,-2.1205,-2.1205,-2.1308,-2.1281,-2.113,-2.0821,-2.0192,-1.9409,-1.8194,-1.7233,0.0,0.0,-0.1687,-0.2554,-0.3101,-0.3606,0.0,0.0,-0.5287,0.0,-0.6091,-0.6893,-0.8156,-0.8694,-0.9069,-0.9296,-0.982,-1.0743,-1.2365,-1.2771,-1.3641,-1.5418,-1.5741,-1.6064,-1.6886,-1.7465,-1.804,-1.8451,-1.9091,-1.9557,-1.9794,-2.0255,-2.0654,-2.1051,-2.1282,-2.1502,-2.1949,-2.1863,-2.1939,-2.2241,-2.1471,-2.1318,-2.1624,-2.0391,-2.0605,-2.1962,-2.1058,-2.0859,-2.1105,-2.06,-2.0674,-2.1113,-2.132,-2.1846,-2.2401,-2.2093,-2.2152,-2.2406,-2.2509,-2.2399,-2.2332,-2.2666,-2.2881,-2.2969,-2.2969,-2.3057,-2.3047,-2.3057,-2.3135,-2.3135,-2.3135,-2.3135,-2.3027,-2.2617,-2.2197,-2.1738,-2.1182,-2.0801,-2.0566,-2.0566,-2.0566,-2.0566,-2.0566,-2.0566,-2.0566,-2.0566,-2.0566,-2.0566,-2.0566,-2.0566,-2.0654,-2.0819,-2.0654,-2.0654,-2.0819,-2.0819,-2.0741,-2.0644,-2.0886,-2.0974,-2.0819,-2.0974,-2.1051,-2.1051,-2.1282,-2.1282,-2.1205,-2.1014,-2.0406,-1.9516,-1.8138,-1.7013,0.0,0.2005,0.0,-0.1219,-0.1948,-0.2654,0.0,0.0,-0.5212,-0.5711,-0.6079,-0.6378,-0.6685,-0.7026,-0.7488,-0.7876,-0.8699,-0.9607,-1.0466,-1.1335,-1.2581,-1.4323,-1.4636,-1.5206,-1.6304,-1.7057,-1.7635,-1.804,-1.8674,-1.9161,-1.9557,-2.0029,-2.042,-2.0644,-2.0819,-2.1128,-2.1502,-2.1088,-2.0847,-2.0914,-1.9747,-1.9659,-2.0498,-1.9301,-1.9706,-2.1165,-1.9923,-1.939,-1.9436,-1.976,-2.0251,-2.0928,-2.1631,-2.2381,-2.297,-2.3262,-2.3217,-2.3106,-2.3908,-2.3378,-2.258,-2.3424,-2.3096,-2.2441,-2.2715,-2.2803,-2.2882,-2.3057,-2.3135,-2.3135,-2.3135,-2.3135,-2.3027,-2.2617,-2.2197,-2.165,-2.0791,-2.0576,-2.0566,-2.0566,-2.0566,-2.0566,-2.0566,-2.0566,-2.0566,-2.0566,-2.0566,-2.0566,-2.0566,-2.0566,-2.0566,-2.0644,-2.0644,-2.0566,-2.0644,-2.0644,-2.0644,-2.0566,-2.0644,-2.0644,-2.0644,-2.0644,-2.0644,-2.0644,-2.0819,-2.0984,-2.1205,-2.1185,-2.0245,-1.8457,-1.8411,-1.724,0.0,0.0,0.0,-0.1235,-0.2311,-0.3205,-0.323,-0.4182,-0.5177,-0.5437,-0.5926,-0.6339,-0.6554,-0.6954,-0.7257,-0.7565,-0.8097,-0.8952,-1.0027,-1.0754,-1.1867,-1.3728,-1.4428,-1.513,-1.6079,-1.6902,-1.7473,-1.7635,-1.8362,-1.8931,-1.9161,-1.9715,-2.0177,-2.0566,-2.0819,-2.1051,-2.1502,-2.1339,-2.1405,-2.1634,-2.0789,-2.0634,-2.1088,-1.9696,-1.9775,-2.0934,-1.9548,-1.9311,-1.9882,-1.9913,-2.0007,-2.0307,-2.1128,-2.1899,-2.2527,-2.2549,-2.2764,-2.29,-2.3054,-2.2727,-2.2264,-2.2784,-2.2687,-2.2441,-2.253,-2.253,-2.253,-2.2618,-2.2618,-2.2706,-2.2882,-2.2592,-2.2131,-2.1598,-2.1267,-2.0947,-2.0635,-2.0566,-2.0566,-2.0566,-2.0566,-2.0566,-2.0566,-2.0566,-2.0566,-2.0566,-2.0566,-2.0566,-2.0566,-2.0566,-2.0566,-2.0566,-2.0566,-2.0566,-2.0566,-2.0566,-2.0566,-2.0566,-2.0566,-2.0566,-2.0566,-2.0566,-2.0566,-2.0566,-2.0654,-2.0731,-2.0809,-2.0974,-2.042,-1.9316,-1.8333,-1.7167,0.2104,0.0,0.0,0.0,-0.1538,-0.231,-0.2867,-0.3774,-0.4724,-0.5277,-0.588,-0.6346,-0.6533,-0.6945,-0.7267,-0.7472,-0.7868,-0.8471,-0.9365,-0.9846,-1.0745,-1.2457,-1.3213,-1.3971,-1.5083,-1.6078,-1.6722,-1.7057,-1.7959,0.0,-1.8425,-1.9311,-1.9863,-2.0079,-2.0576,-2.0809,-2.0876,-2.1031,-2.1185,-2.1482,-2.0547,-2.0401,-2.0789,-1.9292,-1.9371,-2.0469,-1.9073,-1.9152,-2.0186,-1.9845,-1.9806,-1.9998,-2.0649,-2.1247,-2.1845,-2.1938,-2.2176,-2.2441,-2.2264,-2.2087,-2.2008,-2.2087,-2.2176,-2.2176,-2.2264,-2.2264,-2.2353,-2.2353,-2.2337,-2.2233,-2.2505,-2.2083,-2.1518,-2.1024,-2.0721,-2.0566,-2.0566,-2.0566,-2.0566,-2.0566,-2.0566,-2.0566,-2.0566,-2.0566,-2.0566,-2.0566,-2.0566,-2.0566,-2.0566,-2.0566,-2.0566,-2.0566,-2.0566,-2.0566,-2.0566,-2.0566,-2.0566,-2.0566,-2.0566,-2.0566,-2.0566,-2.0566,-2.0566,-2.0566,-2.0566,-2.0566,-2.0566,-2.0731,-2.042,-1.9696,-1.8294,-1.6974,0.0,0.0,0.0,0.0,0.0,0.0,-0.3297,0.0,-0.3841,-0.5345,-0.5931,-0.6312,-0.6559,-0.6923,-0.7281,-0.7456,-0.7868,-0.8168,-0.8348,-0.8779,-0.9414,-1.0579,-1.1051,-1.1863,-1.3287,-1.4358,-1.5365,-1.6304,-1.7294,-1.7781,-1.7359,-1.8745,-1.939,-1.8957,-2.0001,-2.0235,-1.9599,-1.9923,-2.0157,-2.0157,-1.8718,-1.8559,-1.952,-1.8103,-1.8336,-1.9825,-1.8505,-1.8825,-2.0079,-1.9539,-1.954,-1.9952,-2.0356,-2.075,-2.1145,-2.1575,-2.1741,-2.1741,-2.1741,-2.1741,-2.1741,-2.1741,-2.1741,-2.1741,-2.2008,-2.2097,-2.2097,-2.2334,-2.2051,-2.1826,-2.2064,-2.17,-2.115,-2.087,-2.0711,-2.0566,-2.0566,-2.0566,-2.0566,-2.0566,-2.0566,-2.0566,-2.0566,-2.0566,-2.0566,-2.0566,-2.0566,-2.0566,-2.0566,-2.0566,-2.0566,-2.0566,-2.0566,-2.0566,-2.0566,-2.0566,-2.0566,-2.0566,-2.0566,-2.0566,-2.0566,-2.0566,-2.0566,-2.0566,-2.0566,-2.0566,-2.0566,-2.0566,-2.0167,-1.9301,-1.8381,-1.6716,0.0521,0.0,0.0,0.0,0.0,0.0,0.0,0.0,-0.4907,-0.6041,-0.6171,-0.6275,-0.6769,-0.7062,-0.736,-0.7842,-0.8025,-0.8196,-0.8399,-0.8769,-0.9513,-1.0751,-1.1289,-1.2158,-1.3682,-1.4253,-1.4639,0.0,-1.5876,-1.6281,-1.6191,-1.7172,-1.7819,-1.806,-1.8381,-1.8541,-1.8621,-1.8789,-1.8948,-1.9265,-1.8868,-1.8948,-1.9344,-1.8318,-1.8487,-1.9599,-1.8184,-1.8264,-1.9283,-1.8993,-1.9065,-1.954,-2.0246,-2.0585,-2.0769,-2.1475,-2.1741,-2.1741,-2.1741,-2.1741,-2.1741,-2.1741,-2.1741,-2.1731,-2.183,-2.183,-2.1765,-2.154,-2.1373,-2.1151,-2.0671,-2.0674,-2.0661,-2.0118,-2.0036,-2.0098,-2.0098,-2.0255,-2.042,-2.0566,-2.0566,-2.0566,-2.0566,-2.0566,-2.0566,-2.0566,-2.0566,-2.0566,-2.0566,-2.0566,-2.0566,-2.0566,-2.0566,-2.0566,-2.0566,-2.0566,-2.0566,-2.0566,-2.0566,-2.0566,-2.0566,-2.0566,-2.0566,-2.0566,-2.0566,-2.0566,-2.0566,-2.0566,-2.0489,-2.0148,-1.8208,-1.6305,0.0,0.0,0.0,0.0,0.0,0.0,-0.3601,-0.4492,-0.5451,0.0,-0.6815,-0.6895,-0.7359,-0.7628,-0.797,-0.8463,-0.8652,-0.8632,-0.8403,-0.8817,-0.9436,-1.0203,-1.0718,-1.147,-1.259,-1.3211,-1.3756,-1.411,-1.5058,-1.5703,-1.5944,-1.6198,-1.6527,-1.6854,-1.7253,-1.7415,-1.7504,-1.798,-1.8292,-1.8621,-1.847,-1.8479,-1.8638,-1.7844,-1.7764,-1.8327,-1.7456,-1.7538,-1.8336,-1.8201,-1.8523,-1.9145,-1.9779,-2.0207,-2.0594,-2.1236,-2.1585,-2.1741,-2.1741,-2.1741,-2.1741,-2.1741,-2.1741,-2.1741,-2.1741,-2.1741,-2.1649,-2.1227,-2.0955,-2.055,-1.9833,-1.999,-2.0174,-1.9701,-1.9715,-1.9863,-1.9863,-2.002,-2.0177,-2.0411,-2.0489,-2.0489,-2.0566,-2.0489,-2.0489,-2.0566,-2.0566,-2.0566,-2.0566,-2.0566,-2.0566,-2.0566,-2.0566,-2.0566,-2.0566,-2.0566,-2.0566,-2.0566,-2.0566,-2.0566,-2.0566,-2.0566,-2.0566,-2.0566,-2.0566,-2.0566,-2.0566,-2.0566,-2.0245,-1.9502,-1.7755,-1.6117,0.0,0.0,0.0,0.0,0.0,0.0,-0.5663,-0.5695,-0.5759,0.0,-0.7644,-0.7802,-0.8117,-0.8396,-0.8814,-0.918,-0.9443,-0.9406,-0.8699,-0.9013,-0.9397,-0.9397,-0.9869,-1.0467,-1.0884,-1.1846,-1.2625,-1.3153,-1.4331,-1.5433,-1.6026,-1.5553,-1.5311,-1.5567,-1.6281,-1.6527,-1.6229,-1.7172,-1.7721,-1.798,-1.7602,-1.7448,-1.7538,-1.6894,-1.6648,-1.6656,-1.6656,-1.6894,-1.731,-1.731,-1.7806,-1.8656,-1.9035,-1.9665,-2.0398,-2.0875,-2.1286,-2.1642,-2.1651,-2.1741,-2.1741,-2.1741,-2.1741,-2.1741,-2.1741,-2.1704,-2.1566,-2.1108,-2.0513,-2.0003,-1.9473,-1.9548,-1.9784,-1.9636,-1.9715,-1.9863,-1.9863,-1.9863,-1.9951,-2.0186,-2.0264,-2.0333,-2.0489,-2.0333,-2.0342,-2.0489,-2.0489,-2.0566,-2.0566,-2.0566,-2.0566,-2.0566,-2.0566,-2.0489,-2.0489,-2.0566,-2.0566,-2.0566,-2.0566,-2.0566,-2.0566,-2.0566,-2.0566,-2.0566,-2.0566,-2.0566,-2.0566,-2.0566,-1.9678,-1.798,-1.7295,-1.6117,0.0,0.0,0.0,0.0,0.0,0.0,-0.6687,-0.6717,-0.7124,0.0,-0.8271,-0.8212,-0.8842,-0.9033,-0.9156,-0.9302,-0.9742,-0.9907,-0.9637,-0.9695,-0.9922,-1.0218,-1.0408,-1.0673,-1.1349,-1.1618,-1.1848,-1.2141,-1.2814,-1.3483,-1.4216,-1.4062,-1.423,-1.465,-1.4803,-1.4977,-1.5068,-1.522,-1.5545,-1.5959,-1.5884,-1.6064,-1.6409,-1.6402,-1.6402,-1.6252,-1.6574,-1.6648,-1.6648,-1.673,-1.7383,-1.8155,-1.8607,-1.8996,-1.9556,-2.0297,-2.0855,-2.1177,-2.1553,-2.1741,-2.1741,-2.1741,-2.1741,-2.1741,-2.1741,-2.1502,-2.108,-2.0365,-1.9806,-1.9482,-1.932,-1.9381,-1.9381,-1.9381,-1.9381,-1.9381,-1.9381,-1.9548,-1.9636,-1.9724,-1.9872,-2.002,-2.002,-2.002,-2.002,-2.002,-2.002,-2.0098,-2.0342,-2.0186,-2.0098,-2.0342,-2.0186,-2.002,-2.002,-2.0255,-2.0342,-2.0342,-2.0489,-2.0566,-2.0566,-2.0566,-2.0566,-2.0566,-2.0566,-2.0566,-2.0566,-2.0566,-1.9678,-1.798,-1.7295,-1.6117,0.0,0.0,0.0,-0.9187,0.0,0.0,0.0,-0.8314,-0.8455,-0.9494,-0.9302,-0.9157,-0.976,-0.9967,-1.006,-1.0157,-1.0541,-1.083,-1.0826,-1.0648,-1.0594,-1.0812,-1.0962,-1.1241,-1.1538,-1.1603,-1.1721,-1.1902,-1.2412,-1.2876,-1.3182,-1.3406,-1.373,-1.4062,-1.4068,-1.4237,-1.4566,-1.4566,-1.4734,-1.5068,-1.5311,-1.5477,-1.5741,-1.6072,-1.6162,-1.6087,-1.6327,-1.6402,-1.6394,-1.6476,-1.6894,-1.7408,-1.7836,-1.8498,-1.9282,-1.973,-2.0157,-2.0645,-2.0916,-2.1195,-2.1365,-2.1365,-2.1407,-2.142,-2.142,-2.0998,-2.0438,-2.0044,-1.9622,-1.9301,-1.9301,-1.9301,-1.9301,-1.9301,-1.9301,-1.9301,-1.9301,-1.9381,-1.9469,-1.9469,-1.9548,-1.9627,-1.9863,-1.9794,-1.9794,-1.9863,-1.9863,-1.9942,-2.0108,-1.9942,-1.9942,-2.0108,-1.9942,-1.9863,-1.9863,-2.002,-2.0108,-2.0108,-2.0177,-2.0255,-2.0255,-2.0255,-2.0255,-2.0255,-2.0411,-2.0411,-2.0255,-2.0489,-1.9678,-1.798,-1.7295,-1.6117,0.0,0.0,0.0,0.0,0.0,-1.0508,0.0,0.0,0.0,-1.0853,-1.0656,-1.0455,-1.0848,0.0,0.0,-1.1075,0.0,0.0,0.0,-1.1444,0.0,-1.1236,-1.1484,-1.1706,-1.1706,-1.1696,-1.1719,-1.1823,-1.2208,-1.2543,-1.2731,-1.3027,-1.3341,-1.3652,-1.3652,-1.3899,-1.423,-1.4314,-1.4398,-1.465,-1.5061,-1.5228,-1.5401,-1.5741,-1.6004,-1.6012,-1.6087,-1.6162,-1.6229,-1.6312,-1.6484,-1.6648,-1.7066,-1.7879,-1.882,-1.8973,-1.9511,-2.0099,-2.0266,-2.0555,-2.0898,-2.0908,-2.0968,-2.0979,-2.0906,-2.0438,-1.9916,-1.9833,-1.9567,-1.9301,-1.9301,-1.9301,-1.9301,-1.9301,-1.9301,-1.9301,-1.9301,-1.9301,-1.9301,-1.9301,-1.9301,-1.9381,-1.9706,-1.9636,-1.9636,-1.9784,-1.9784,-1.9784,-1.9863,-1.9784,-1.9784,-1.9863,-1.9784,-1.9784,-1.9784,-1.9784,-1.9863,-1.9863,-1.9863,-1.9863,-1.9863,-1.9863,-1.9863,-1.9863,-2.0098,-2.0108,-1.9863,-2.0255,-1.9599,-1.7819,-1.7295,-1.604,0.0,0.0,0.0,0.0,-1.2883,0.0,0.0,0.0,-1.2278,-1.2803,0.0,-1.2252,0.0,0.0,0.0,0.0,0.0,0.0,-1.1725,-1.1783,-1.1852,-1.1659,-1.1706,-1.1706,-1.1706,-1.1515,-1.1501,-1.1558,-1.16,-1.1988,-1.263,-1.2762,-1.2977,-1.3385,-1.3652,-1.3737,-1.3822,-1.3997,-1.4243,-1.4398,-1.4482,-1.4734,-1.5166,-1.5401,-1.5492,-1.5514,-1.5922,-1.5997,-1.5816,-1.6079,-1.6245,-1.6476,-1.6648,-1.706,-1.7629,-1.8357,-1.8816,-1.9215,-2.0,-2.0292,-2.0413,-2.0421,-2.0485,-2.0521,-2.0173,-1.9998,-1.9852,-1.9476,-1.9338,-1.9301,-1.9301,-1.9301,-1.9301,-1.9301,-1.9301,-1.9301,-1.9301,-1.9301,-1.9301,-1.9301,-1.9301,-1.9301,-1.9381,-1.9381,-1.9301,-1.9381,-1.9381,-1.946,-1.9636,-1.9469,-1.9469,-1.9636,-1.9469,-1.9381,-1.9381,-1.9548,-1.9645,-1.9645,-1.9794,-1.9863,-1.9863,-1.9863,-1.9863,-1.9863,-1.9942,-1.9942,-1.9863,-1.9942,-1.9045,-1.7398,-1.7132,-1.5871,0.0,0.0,0.0,0.0,0.0,0.0,-1.4233,0.0,-1.3291,0.0,0.0,0.0,0.0,0.0,0.0,0.0,-1.2395,0.0,0.0,0.0,-1.2241,0.0,0.0,0.0,-1.2076,-1.1758,-1.1534,-1.1432,-1.1514,-1.163,-1.2013,-1.2312,-1.2616,-1.2983,-1.3231,-1.3483,-1.3737,-1.3822,-1.399,-1.4243,-1.4314,-1.4482,-1.4741,-1.5075,-1.5249,-1.5257,-1.5597,-1.5665,-1.5733,-1.5824,-1.5997,-1.6245,-1.6484,-1.687,-1.7379,-1.7693,-1.8096,-1.8653,-1.8766,-1.9156,-1.9507,-1.9428,-1.9724,-2.0026,-1.9381,-1.9335,-1.9531,-1.9356,-1.9301,-1.9301,-1.9301,-1.9301,-1.9301,-1.9301,-1.9301,-1.9301,-1.9301,-1.9301,-1.9301,-1.9301,-1.9301,-1.9301,-1.9301,-1.9301,-1.9301,-1.9301,-1.9301,-1.9301,-1.939,-1.9381,-1.9301,-1.939,-1.9381,-1.9301,-1.9301,-1.9381,-1.939,-1.939,-1.9548,-1.9539,-1.9539,-1.9539,-1.9539,-1.9539,-1.9636,-1.9636,-1.9539,-1.9784,-1.9125,-1.7649,-1.6987,-1.588,-1.8291,0.0,0.0,0.0,0.0,0.0,0.0,0.0,0.0,0.0,0.0,0.0,0.0,0.0,0.0,0.0,0.0,-1.3015,0.0,-1.2741,0.0,0.0,0.0,0.0,0.0,-1.2022,-1.1812,-1.1592,-1.1483,-1.1449,-1.1605,-1.189,-1.2249,-1.2566,-1.2841,-1.3146,-1.3652,-1.3652,-1.3828,-1.4088,-1.4243,-1.4321,-1.4398,-1.4741,-1.4999,-1.509,-1.5257,-1.5416,-1.5658,-1.5658,-1.5741,-1.5997,-1.6154,-1.6557,-1.7051,-1.7247,-1.7596,-1.7993,-1.7826,-1.8232,-1.8638,-1.844,-1.8941,-1.9471,-1.87,-1.8763,-1.9152,-1.9152,-1.9152,-1.9152,-1.9301,-1.9301,-1.9301,-1.9301,-1.9301,-1.9301,-1.9301,-1.9301,-1.9301,-1.9301,-1.9301,-1.9301,-1.9301,-1.9301,-1.9301,-1.9301,-1.9301,-1.9301,-1.9301,-1.9301,-1.9301,-1.9301,-1.9301,-1.9301,-1.9301,-1.9301,-1.9301,-1.9301,-1.9301,-1.9301,-1.9301,-1.9301,-1.9301,-1.9301,-1.9469,-1.9469,-1.9301,-1.9618,-1.9292,-1.8301,-1.6987,-1.588,0.0,0.0,0.0,-1.7988,0.0,0.0,0.0,0.0,-1.7106,0.0,0.0,0.0,0.0,0.0,0.0,0.0,0.0,0.0,0.0,0.0,0.0,0.0,0.0,0.0,0.0,-1.2279,-1.2219,0.0,-1.1407,-1.132,-1.1747,-1.1623,-1.1787,-1.23,-1.2572,-1.2958,-1.3392,-1.3568,-1.3828,-1.4088,-1.4088,-1.4243,-1.4398,-1.4398,-1.4657,-1.509,-1.509,-1.5257,-1.5431,-1.5431,-1.5499,-1.5733,-1.5733,-1.5989,-1.6539,-1.7059,-1.7294,-1.7358,-1.766,-1.7822,-1.7969,-1.7953,-1.8283,-1.8629,-1.821,-1.8371,-1.87,-1.87,-1.87,-1.8772,-1.9231,-1.9301,-1.9301,-1.9301,-1.9301,-1.9301,-1.9301,-1.9301,-1.9301,-1.9301,-1.9301,-1.9301,-1.9301,-1.9301,-1.9301,-1.9301,-1.9301,-1.9301,-1.9301,-1.9301,-1.9301,-1.9301,-1.9301,-1.9301,-1.9301,-1.9301,-1.9301,-1.9301,-1.9301,-1.9301,-1.9301,-1.9301,-1.9301,-1.9301,-1.9301,-1.9301,-1.9301,-1.9301,-1.9301,-1.9195,-1.7295,-1.5726,0.0,0.0,-2.0157,-1.8638,0.0,0.0,0.0,0.0,0.0,0.0,0.0,0.0,0.0,0.0,0.0,0.0,0.0,0.0,0.0,0.0,0.0,0.0,0.0,0.0,0.0,0.0,0.0,0.0,-1.1614,0.0,-1.1552,-1.1508,-1.1612,-1.1787,-1.2049,-1.2431,-1.2952,-1.3124,-1.3471,-1.3828,-1.3997,-1.4173,-1.4243,-1.4314,-1.4482,-1.4657,-1.4999,-1.5173,-1.5173,-1.5347,-1.5423,-1.5499,-1.5658,-1.5816,-1.5997,-1.6534,-1.698,-1.7294,-1.7405,-1.7552,-1.7499,-1.7244,-1.7654,-1.8129,-1.7716,-1.7878,-1.8201,-1.8201,-1.8201,-1.8362,-1.8763,-1.8922,-1.9002,-1.9222,-1.9301,-1.9301,-1.9301,-1.9301,-1.9301,-1.9301,-1.9301,-1.9301,-1.9301,-1.9301,-1.9301,-1.9301,-1.9301,-1.9301,-1.9301,-1.9301,-1.9301,-1.9301,-1.9301,-1.9301,-1.9301,-1.9301,-1.9301,-1.9301,-1.9301,-1.9301,-1.9301,-1.9301,-1.9301,-1.9301,-1.9301,-1.9301,-1.9301,-1.9301,-1.8975,-1.839,-1.7013,-1.5958,-2.1676,-2.1652,0.0,-1.9882,-1.9602,0.0,-1.9336,0.0,0.0,0.0,0.0,0.0,0.0,0.0,0.0,0.0,0.0,0.0,0.0,-1.3815,0.0,0.0,0.0,0.0,0.0,0.0,-1.2327,-1.2522,-1.1959,-1.1598,0.0,-1.1507,-1.1508,-1.1528,-1.1697,-1.1994,-1.2588,-1.2852,-1.3156,-1.3587,-1.3951,-1.4088,-1.4088,-1.4243,-1.4321,-1.4391,-1.4824,-1.4999,-1.509,-1.5347,-1.5431,-1.5431,-1.5582,-1.5658,-1.5733,-1.6229,-1.6716,-1.7088,-1.7088,-1.7095,-1.7066,-1.682,-1.7229,-1.7716,-1.731,-1.7473,-1.7823,-1.7958,-1.7899,-1.7904,-1.8528,-1.8717,-1.878,-1.8993,-1.9231,-1.9301,-1.9301,-1.9301,-1.9301,-1.9301,-1.9301,-1.9301,-1.9301,-1.9301,-1.9301,-1.9301,-1.9301,-1.9301,-1.9301,-1.9301,-1.9301,-1.9301,-1.9301,-1.9301,-1.9301,-1.9301,-1.9301,-1.9301,-1.9301,-1.9301,-1.9301,-1.9301,-1.9301,-1.9301,-1.9301,-1.9301,-1.9301,-1.8975,-1.8567,-1.7989,-1.6629,-1.5785]}]]